[[{"header":{"parameterUnit":"m.s-1","parameterCategory":1,"la1":30.6,"la2":29.2853,"lo1":-89.7004,"lo2":-87.6739,"dy":0.0162,"dx":0.0183,"nx":112,"ny":82,"refTime":"2026-03-04T12:00:00:Z","depth":0,"parameterNumber":2,"parameterNumberName":"U-component_of_WINDS"},"data":[0.0,0.0,0.0,0.0,0.0,0.0,0.0,0.0,0.0,0.0,0.0,0.0,0.0,0.0,0.0,0.0,0.0,0.0,0.0,0.0,0.0,0.0,0.0,0.0,0.0,0.0,0.0,0.0,0.0,0.0,0.0,0.0,0.0,0.0,0.0,0.0,0.0,0.0,0.0,0.0,0.0,0.0,0.0,0.0,0.0,0.0,0.0,0.0,0.0,0.0,0.0,0.0,0.0,0.0,0.0,0.0,0.0,0.0,0.0,0.0,0.0,0.0,0.0,0.0,0.0,0.0,0.0,0.0,0.0,0.0,0.0,0.0,0.0,0.0,0.0,0.0,0.0,0.0,0.0,0.0,0.0,0.0,0.0,0.0,0.0,0.0,0.0,0.0,0.0,0.0,0.0,-1.3005,-1.4033,-1.5518,-1.7614,-1.6339,-1.4881,-1.3571,0.0,0.0,0.0,0.0,0.0,0.0,0.0,0.0,0.0,0.0,0.0,0.0,0.0,0.0,0.0,0.0,0.0,0.0,0.0,0.0,0.0,0.0,0.0,0.0,0.0,0.0,0.0,0.0,0.0,0.0,0.0,0.0,0.0,0.0,0.0,0.0,0.0,0.0,0.0,0.0,0.0,0.0,0.0,0.0,0.0,0.0,0.0,0.0,0.0,0.0,0.0,0.0,0.0,0.0,0.0,0.0,0.0,0.0,0.0,0.0,0.0,0.0,0.0,0.0,0.0,0.0,0.0,0.0,0.0,0.0,0.0,0.0,0.0,0.0,0.0,0.0,0.0,0.0,0.0,0.0,0.0,0.0,0.0,0.0,0.0,0.0,0.0,0.0,0.0,0.0,0.0,0.0,0.0,0.0,0.0,0.0,0.0,0.0,0.0,0.0,0.0,0.0,0.0,0.0,-1.2592,-1.5712,-1.5683,-1.6086,-1.7665,-1.5873,-1.4338,-1.3554,0.0,0.0,0.0,0.0,0.0,0.0,0.0,0.0,0.0,0.0,0.0,0.0,0.0,0.0,0.0,0.0,0.0,0.0,0.0,0.0,0.0,0.0,0.0,0.0,0.0,0.0,0.0,0.0,0.0,0.0,0.0,0.0,0.0,0.0,0.0,0.0,0.0,0.0,0.0,0.0,0.0,0.0,0.0,0.0,0.0,0.0,0.0,0.0,0.0,0.0,0.0,0.0,0.0,0.0,0.0,0.0,0.0,0.0,0.0,0.0,0.0,0.0,0.0,0.0,0.0,0.0,0.0,0.0,0.0,0.0,0.0,0.0,0.0,0.0,0.0,0.0,0.0,0.0,0.0,0.0,0.0,0.0,0.0,0.0,0.0,0.0,0.0,0.0,0.0,0.0,0.0,0.0,0.0,0.0,0.0,0.0,0.0,0.0,0.0,0.0,0.0,0.0,0.0,-1.2011,-1.3642,-1.6959,-1.6637,-1.6627,-1.7698,-1.6143,-1.4616,-1.3514,-1.1965,0.0,0.0,0.0,0.0,0.0,0.0,0.0,0.0,0.0,0.0,0.0,0.0,0.0,0.0,0.0,0.0,0.0,0.0,0.0,0.0,0.0,0.0,0.0,0.0,0.0,0.0,0.0,0.0,0.0,0.0,0.0,0.0,0.0,0.0,0.0,0.0,0.0,0.0,0.0,0.0,0.0,0.0,0.0,0.0,0.0,0.0,0.0,0.0,0.0,0.0,0.0,0.0,0.0,0.0,0.0,0.0,0.0,0.0,0.0,0.0,0.0,0.0,0.0,0.0,0.0,0.0,0.0,0.0,0.0,0.0,0.0,0.0,0.0,0.0,0.0,0.0,0.0,0.0,0.0,0.0,0.0,0.0,0.0,0.0,0.0,0.0,0.0,0.0,0.0,0.0,0.0,0.0,0.0,0.0,0.0,0.0,0.0,0.0,0.0,0.0,0.0,0.0,-1.4048,-1.4928,-1.7512,-1.7304,-1.7196,-1.7749,-1.6289,-1.4793,-1.3481,-1.0927,0.0,0.0,0.0,0.0,0.0,0.0,0.0,0.0,0.0,0.0,0.0,0.0,0.0,0.0,0.0,0.0,0.0,0.0,0.0,0.0,0.0,0.0,0.0,0.0,0.0,0.0,0.0,0.0,0.0,0.0,0.0,0.0,0.0,0.0,0.0,0.0,0.0,0.0,0.0,0.0,0.0,0.0,0.0,0.0,0.0,0.0,0.0,0.0,0.0,0.0,0.0,0.0,0.0,0.0,0.0,0.0,0.0,0.0,0.0,0.0,0.0,0.0,0.0,0.0,0.0,0.0,0.0,0.0,0.0,0.0,0.0,0.0,0.0,0.0,0.0,0.0,0.0,0.0,0.0,0.0,0.0,0.0,0.0,0.0,0.0,0.0,0.0,0.0,0.0,0.0,0.0,0.0,0.0,0.0,0.0,0.0,0.0,0.0,0.0,0.0,0.0,0.0,-1.4623,-1.6052,-1.7631,-1.7749,-1.7732,-1.78,-1.5822,-1.4242,-1.3447,-0.9969,0.0,0.0,0.0,0.0,0.0,0.0,0.0,0.0,0.0,0.0,0.0,0.0,0.0,0.0,0.0,0.0,0.0,0.0,0.0,0.0,0.0,0.0,0.0,0.0,0.0,0.0,0.0,0.0,0.0,0.0,0.0,0.0,0.0,0.0,0.0,0.0,0.0,0.0,0.0,0.0,0.0,0.0,0.0,0.0,0.0,0.0,0.0,0.0,0.0,0.0,0.0,0.0,0.0,0.0,0.0,0.0,0.0,0.0,0.0,0.0,0.0,0.0,0.0,0.0,0.0,0.0,0.0,0.0,0.0,0.0,0.0,0.0,0.0,0.0,0.0,0.0,0.0,0.0,0.0,0.0,0.0,0.0,0.0,0.0,0.0,0.0,0.0,0.0,0.0,0.0,0.0,0.0,0.0,0.0,0.0,0.0,0.0,0.0,0.0,0.0,0.0,0.0,-1.4293,-1.5653,0.0,-1.78,-1.7597,-1.7162,-1.5933,-1.4479,-1.2829,0.0,0.0,0.0,0.0,0.0,0.0,0.0,0.0,0.0,0.0,0.0,0.0,0.0,0.0,0.0,0.0,0.0,0.0,0.0,0.0,0.0,0.0,0.0,0.0,0.0,0.0,0.0,0.0,0.0,0.0,0.0,0.0,0.0,0.0,0.0,0.0,0.0,0.0,0.0,0.0,0.0,0.0,0.0,0.0,0.0,0.0,0.0,0.0,0.0,0.0,0.0,0.0,0.0,0.0,0.0,0.0,0.0,0.0,0.0,0.0,0.0,0.0,0.0,0.0,0.0,0.0,0.0,0.0,0.0,0.0,0.0,0.0,0.0,0.0,0.0,0.0,0.0,0.0,0.0,0.0,0.0,0.0,0.0,0.0,0.0,0.0,0.0,0.0,0.0,0.0,0.0,0.0,0.0,0.0,0.0,0.0,0.0,0.0,0.0,0.0,0.0,0.0,-1.2933,-1.4124,-1.5298,0.0,-1.6981,-1.6498,-1.5336,-1.4542,-1.3371,-1.1651,0.0,0.0,0.0,0.0,0.0,0.0,0.0,0.0,0.0,0.0,0.0,0.0,0.0,0.0,0.0,0.0,0.0,0.0,0.0,0.0,0.0,0.0,0.0,0.0,0.0,0.0,0.0,0.0,0.0,0.0,0.0,0.0,0.0,0.0,0.0,0.0,0.0,0.0,0.0,0.0,0.0,0.0,0.0,0.0,0.0,0.0,0.0,0.0,0.0,0.0,0.0,0.0,0.0,0.0,0.0,0.0,0.0,0.0,0.0,0.0,0.0,0.0,0.0,0.0,0.0,0.0,0.0,0.0,0.0,0.0,0.0,0.0,0.0,0.0,0.0,0.0,0.0,0.0,0.0,0.0,0.0,0.0,0.0,0.0,0.0,0.0,0.0,0.0,0.0,0.0,0.0,0.0,0.0,0.0,0.0,0.0,0.0,0.0,0.0,0.0,0.0,0.0,-1.2718,-1.4252,-1.518,-1.517,-1.518,-1.4344,-1.2264,-1.1359,-1.0613,0.0,0.0,0.0,0.0,0.0,0.0,0.0,0.0,0.0,0.0,0.0,0.0,0.0,0.0,0.0,0.0,0.0,0.0,0.0,0.0,0.0,0.0,0.0,0.0,0.0,0.0,0.0,0.0,0.0,0.0,0.0,0.0,0.0,0.0,0.0,0.0,0.0,0.0,0.0,0.0,0.0,0.0,0.0,0.0,0.0,0.0,0.0,0.0,0.0,0.0,0.0,0.0,0.0,0.0,0.0,0.0,0.0,0.0,0.0,0.0,0.0,0.0,0.0,0.0,0.0,0.0,0.0,0.0,0.0,0.0,0.0,0.0,0.0,0.0,0.0,0.0,0.0,0.0,0.0,0.0,0.0,0.0,0.0,0.0,0.0,0.0,0.0,0.0,0.0,0.0,0.0,0.0,0.0,0.0,0.0,0.0,0.0,0.0,0.0,0.0,0.0,0.0,0.0,-1.1245,-1.2305,-1.3077,-1.359,-1.3649,-1.2982,-1.133,-1.0968,-1.0302,-0.906,0.0,0.0,0.0,0.0,0.0,0.0,0.0,0.0,0.0,0.0,0.0,0.0,0.0,0.0,0.0,0.0,0.0,0.0,0.0,0.0,0.0,0.0,0.0,0.0,0.0,0.0,0.0,0.0,0.0,0.0,0.0,0.0,0.0,0.0,0.0,0.0,0.0,0.0,0.0,0.0,0.0,0.0,0.0,0.0,0.0,0.0,0.0,0.0,0.0,0.0,0.0,0.0,0.0,0.0,0.0,0.0,0.0,0.0,0.0,0.0,0.0,0.0,0.0,0.0,0.0,0.0,0.0,0.0,0.0,0.0,0.0,0.0,0.0,0.0,0.0,0.0,0.0,0.0,0.0,0.0,0.0,0.0,0.0,0.0,0.0,0.0,0.0,0.0,0.0,0.0,0.0,0.0,0.0,0.0,0.0,0.0,0.0,0.0,0.0,0.0,0.0,0.0,-1.0398,-1.127,-1.1763,-1.191,-1.1917,-1.1116,-0.913,-0.9424,-0.9015,-0.7351,0.0,0.0,0.0,0.0,0.0,0.0,0.0,0.0,0.0,0.0,0.0,0.0,0.0,0.0,0.0,0.0,0.0,0.0,0.0,0.0,0.0,0.0,0.0,0.0,0.0,0.0,0.0,0.0,0.0,0.0,0.0,0.0,0.0,0.0,0.0,0.0,0.0,0.0,0.0,0.0,0.0,0.0,0.0,0.0,0.0,0.0,0.0,0.0,0.0,0.0,0.0,0.0,0.0,0.0,0.0,0.0,0.0,0.0,0.0,0.0,0.0,0.0,0.0,0.0,0.0,0.0,0.0,0.0,0.0,0.0,0.0,0.0,0.0,0.0,0.0,0.0,0.0,0.0,0.0,0.0,0.0,0.0,0.0,0.0,0.0,0.0,0.0,0.0,0.0,0.0,0.0,0.0,0.0,0.0,0.0,0.0,0.0,0.0,0.0,0.0,0.0,0.0,-0.9876,-1.0686,-1.0819,-1.0166,-1.0086,-0.9022,-0.6405,-0.7298,-0.7217,-0.5397,0.0,0.0,0.0,0.0,0.0,0.0,0.0,0.0,0.0,0.0,0.0,0.0,0.0,0.0,0.0,0.0,0.0,0.0,0.0,0.0,0.0,0.0,0.0,0.0,0.0,0.0,0.0,0.0,0.0,0.0,0.0,0.0,0.0,0.0,0.0,0.0,0.0,0.0,0.0,0.0,0.0,0.0,0.0,0.0,0.0,0.0,0.0,0.0,0.0,0.0,0.0,0.0,0.0,0.0,0.0,0.0,0.0,0.0,0.0,0.0,-0.954,0.0,0.0,0.0,0.0,0.0,0.0,0.0,0.0,0.0,0.0,0.0,0.0,0.0,0.0,0.0,0.0,0.0,0.0,0.0,0.0,0.0,0.0,0.0,0.0,0.0,0.0,0.0,0.0,0.0,0.0,0.0,0.0,0.0,0.0,0.0,0.0,0.0,0.0,0.0,0.0,0.0,-0.8523,-0.8724,-0.8659,-0.8506,-0.8483,-0.7826,-0.6185,-0.6769,-0.6824,-0.5885,-0.6033,0.0,0.0,0.0,0.0,0.0,0.0,0.0,0.0,0.0,0.0,0.0,0.0,0.0,0.0,0.0,0.0,0.0,0.0,0.0,0.0,0.0,0.0,0.0,0.0,0.0,0.0,0.0,0.0,0.0,0.0,0.0,0.0,0.0,0.0,0.0,0.0,0.0,0.0,0.0,0.0,0.0,0.0,0.0,0.0,0.0,0.0,0.0,0.0,0.0,0.0,0.0,0.0,0.0,0.0,0.0,0.0,0.0,0.0,0.0,0.0,-1.0659,0.0,0.0,0.0,0.0,0.0,0.0,0.0,0.0,0.0,0.0,0.0,0.0,0.0,0.0,0.0,0.0,0.0,0.0,0.0,0.0,0.0,0.0,0.0,0.0,0.0,0.0,0.0,0.0,0.0,0.0,0.0,0.0,0.0,0.0,0.0,0.0,0.0,0.0,0.0,0.0,-0.8453,-0.8537,-0.8477,-0.8477,-0.8455,-0.7896,-0.66,-0.7059,-0.7017,-0.6007,-0.6325,0.0,0.0,0.0,0.0,0.0,0.0,0.0,0.0,0.0,0.0,0.0,0.0,0.0,0.0,0.0,0.0,0.0,0.0,0.0,0.0,0.0,0.0,0.0,0.0,0.0,0.0,0.0,0.0,0.0,0.0,0.0,0.0,0.0,0.0,0.0,0.0,0.0,0.0,0.0,0.0,0.0,0.0,0.0,0.0,0.0,0.0,0.0,0.0,0.0,0.0,0.0,0.0,0.0,-1.1477,-1.196,-1.2064,-1.1999,-1.2458,-1.3238,-1.2131,-1.2432,-1.3597,0.0,0.0,0.0,0.0,0.0,0.0,0.0,0.0,0.0,0.0,0.0,0.0,0.0,0.0,0.0,0.0,0.0,0.0,0.0,0.0,0.0,0.0,0.0,0.0,0.0,-0.935,-0.9351,0.0,0.0,0.0,0.0,0.0,0.0,0.0,0.0,0.0,0.0,0.0,0.0,-0.8812,-0.8978,-0.9022,-0.9135,-0.9004,-0.8424,-0.7253,-0.7605,-0.7383,-0.6147,-0.6562,-0.6428,0.0,0.0,0.0,0.0,0.0,0.0,0.0,0.0,0.0,0.0,0.0,0.0,0.0,0.0,0.0,0.0,0.0,0.0,0.0,0.0,0.0,0.0,0.0,0.0,0.0,0.0,0.0,0.0,0.0,0.0,0.0,0.0,-0.7826,-0.9605,0.0,0.0,0.0,0.0,0.0,0.0,0.0,0.0,0.0,0.0,0.0,0.0,0.0,-1.0632,-1.2301,-1.169,-1.1731,-1.2441,-1.2361,-1.2444,-1.2677,-1.2677,-1.2898,-1.329,-1.3106,0.0,-1.3269,-1.2061,0.0,0.0,0.0,0.0,0.0,0.0,0.0,0.0,0.0,0.0,0.0,0.0,0.0,0.0,0.0,0.0,0.0,0.0,0.0,0.0,0.0,0.0,-1.0585,-1.0107,-0.9928,-0.9914,0.0,-0.9212,-0.833,-0.765,0.0,0.0,0.0,0.0,0.0,0.0,0.0,0.0,-0.8748,-0.8921,-0.9138,-0.9713,-0.9257,-0.8589,-0.7846,-0.7854,-0.7578,-0.6816,-0.6696,-0.6822,-0.7243,-0.633,0.0,0.0,0.0,0.0,0.0,0.0,0.0,0.0,0.0,0.0,0.0,0.0,0.0,0.0,0.0,0.0,0.0,0.0,0.0,0.0,0.0,0.0,0.0,0.0,0.0,0.0,0.0,0.0,0.0,-0.7779,-0.9037,-1.0692,-0.9829,-0.958,0.0,0.0,0.0,0.0,0.0,0.0,0.0,0.0,0.0,-1.1104,-1.0863,-1.124,-1.2341,-1.2349,-1.2349,-1.2368,-1.2919,-1.308,-1.288,-1.3214,-1.3447,-1.3576,-1.3576,-1.3576,-1.3499,-1.2476,-1.2129,-1.2184,0.0,0.0,0.0,0.0,-1.1973,-1.1556,-1.1442,-1.1186,0.0,0.0,0.0,0.0,0.0,0.0,0.0,0.0,0.0,0.0,0.0,0.0,0.0,-1.0378,-1.0196,-1.0266,-1.0636,-1.0226,-0.9531,0.0,-0.9298,-0.9627,-0.8563,0.0,0.0,0.0,0.0,-0.8554,-0.9456,-0.9287,-0.9306,-0.994,-0.9451,-0.8801,-0.8126,-0.8068,-0.7811,-0.7222,-0.7099,-0.7013,-0.6935,-0.6743,-0.6287,0.0,0.0,0.0,0.0,0.0,0.0,0.0,0.0,0.0,0.0,0.0,0.0,0.0,0.0,0.0,0.0,0.0,0.0,0.0,0.0,0.0,0.0,0.0,0.0,0.0,0.0,0.0,0.0,-0.8873,-0.9873,-1.1508,-1.0904,-1.0663,0.0,0.0,0.0,0.0,0.0,0.0,-0.9982,-1.1056,-1.1682,-1.1633,-1.1488,-1.1749,-1.2451,-1.2755,-1.2821,-1.2672,-1.3579,-1.3857,-1.3582,-1.387,-1.4014,-1.4001,-1.387,-1.3804,-1.3726,-1.2877,-1.2794,-1.3133,-1.2334,-1.2265,-1.2691,-1.3412,-1.3313,-1.2799,-1.2642,-1.2302,-1.1912,-1.175,0.0,-1.0429,-1.1268,0.0,0.0,0.0,0.0,-1.2225,-1.1818,-1.1603,-1.1295,-1.0494,-1.0417,-1.0612,-1.0913,-1.1069,-1.085,0.0,-1.0424,-1.0688,-0.9254,0.0,0.0,0.0,0.0,-0.9419,-1.0017,-0.9706,-0.9664,-1.0286,-0.9804,-0.9234,-0.8725,-0.8382,-0.8024,-0.7635,-0.7429,-0.7097,-0.6601,-0.6894,-0.6499,-0.5262,0.0,0.0,0.0,0.0,0.0,0.0,0.0,0.0,0.0,0.0,0.0,0.0,0.0,0.0,0.0,0.0,0.0,0.0,0.0,0.0,0.0,0.0,0.0,0.0,0.0,0.0,0.0,0.0,0.0,-1.1774,-1.1931,0.0,0.0,0.0,0.0,-1.0378,-1.1304,-1.1683,-1.1135,-1.1671,-1.2246,-1.2797,-1.2257,-1.2531,-1.37,-1.3176,-1.3438,-1.4467,-1.452,-1.4833,-1.5343,-1.4825,-1.4563,-1.452,-1.4027,-1.3804,-1.3752,-1.314,-1.2891,-1.2883,-1.2527,-1.2242,-1.2146,-1.3013,-1.3138,-1.2893,-1.2878,-1.2852,-1.2747,-1.2167,-1.1944,-1.2039,-1.2919,-1.26,0.0,0.0,-1.2269,-1.1385,-1.1854,-1.1606,-1.1057,-1.0456,-1.0743,-1.1017,-1.0456,-1.1429,-1.2034,0.0,-1.0343,-1.0154,-1.0134,0.0,-0.9411,-1.0035,-0.959,-0.9423,-1.0013,-1.0069,-1.0314,-1.0973,-1.0451,-1.0041,-1.0013,-0.8892,-0.8188,-0.816,-0.7502,-0.7101,-0.7066,-0.6485,-0.6424,-0.6971,-0.6027,0.0,0.0,0.0,0.0,0.0,0.0,0.0,0.0,0.0,0.0,0.0,0.0,0.0,0.0,0.0,0.0,0.0,0.0,0.0,0.0,0.0,0.0,0.0,0.0,0.0,0.0,0.0,0.0,-1.3435,-1.2672,0.0,-1.2823,-1.3242,-1.3056,-1.205,-1.2716,-1.2742,-1.1774,-1.2257,-1.286,-1.3464,-1.3265,-1.3722,-1.4872,-1.4676,-1.4786,-1.5191,-1.5191,-1.5291,-1.5487,-1.5283,-1.5191,-1.516,-1.4977,-1.4886,-1.489,-1.4668,-1.4145,-1.3425,-1.2916,-1.2898,-1.3203,-1.3496,-1.3559,-1.3425,-1.3032,-1.2902,-1.281,-1.219,-1.227,-1.264,-1.2944,-1.3095,-1.3216,-1.3538,-1.3519,-1.3268,-1.2716,-1.2444,-1.2051,-1.1096,-1.1044,-1.1135,-1.0926,-1.0992,-1.1057,-1.1005,-1.1656,-1.1978,-1.1222,-1.0762,-1.0487,-1.0525,-1.017,-0.9989,-1.02,-0.993,-0.9939,-1.0517,-1.0048,-0.9725,-0.9725,-0.8942,-0.8295,-0.7895,-0.7318,-0.6969,-0.6969,-0.6738,-0.6537,-0.6402,-0.6395,-0.6268,0.0,0.0,0.0,0.0,0.0,0.0,0.0,0.0,0.0,0.0,0.0,0.0,0.0,0.0,0.0,0.0,0.0,0.0,0.0,0.0,0.0,0.0,0.0,0.0,0.0,0.0,-1.2339,-1.3857,-1.3356,-1.2962,-1.3173,-1.3722,-1.3657,-1.2677,-1.3343,-1.3448,-1.2648,-1.316,-1.3752,-1.4337,-1.438,-1.4747,-1.5487,-1.5487,-1.5591,-1.58,-1.58,-1.5892,-1.6062,-1.5879,-1.58,-1.5787,-1.5578,-1.5487,-1.5487,-1.5487,-1.5042,-1.4324,-1.3935,-1.3909,-1.4079,-1.4079,-1.3961,-1.3752,-1.3346,-1.3203,-1.315,-1.274,-1.2886,-1.3203,-1.3203,-1.3346,-1.3543,-1.3752,-1.3762,-1.3644,-1.3294,-1.2899,-1.2455,-1.1907,-1.1475,-1.1201,-1.1201,-1.0886,-1.0717,-1.1122,-1.1987,-1.2396,-1.1603,-1.1467,-1.1451,-1.1442,-1.0965,-1.0664,-1.0847,-1.0221,-0.9906,-1.026,-0.9973,-0.9762,-0.9762,-0.9411,-0.8839,-0.8047,-0.7671,-0.7297,-0.6921,-0.7074,-0.6979,-0.6584,-0.6966,-0.6865,-0.6234,0.0,0.0,0.0,0.0,0.0,0.0,0.0,0.0,0.0,0.0,0.0,0.0,0.0,0.0,0.0,0.0,0.0,0.0,0.0,0.0,0.0,0.0,0.0,-1.1305,-1.2234,-1.2954,-1.3006,-1.3961,-1.3945,-1.2268,-1.364,-1.3958,-1.2242,-1.3213,-1.387,-1.3857,-1.4354,-1.4899,-1.55,-1.5526,-1.5545,-1.5539,-1.5539,-1.584,-1.6415,-1.6415,-1.6689,-1.7186,-1.665,-1.6415,-1.6388,-1.58,-1.5539,-1.5539,-1.5539,-1.5539,-1.5539,-1.5513,-1.5134,-1.4642,-1.4642,-1.4302,-1.3831,-1.3831,-1.3817,-1.3804,-1.3804,-1.3804,-1.3804,-1.3804,-1.3399,-1.3059,-1.3647,-1.2949,-1.2333,-1.3513,-1.2949,-1.2203,-1.2781,-1.2064,-1.1253,-1.1227,-1.1201,-1.1201,-1.1201,-1.1201,-1.1201,-1.1214,-1.1669,-1.2216,-1.2781,-1.1933,0.0,-1.1942,-1.1029,-1.0326,-1.0339,-1.0339,-1.0339,-1.0339,-1.0312,-0.9805,-0.867,-0.8592,-0.808,-0.6965,-0.7414,-0.7696,-0.7696,-0.7696,-0.717,-0.6125,0.0,0.0,0.0,0.0,0.0,0.0,0.0,0.0,0.0,0.0,0.0,0.0,0.0,0.0,0.0,0.0,0.0,0.0,0.0,0.0,0.0,-1.2156,-1.3229,-1.3608,-1.3608,-1.4027,-1.5296,-1.4938,-1.4585,-1.4546,-1.5369,-1.5513,-1.4611,-1.5251,-1.5487,-1.5061,-1.516,-1.5526,-1.6127,-1.6153,-1.6336,-1.6728,-1.6728,-1.682,-1.6977,-1.6977,-1.7055,-1.7186,-1.7042,-1.6977,-1.6963,-1.6807,-1.6728,-1.6728,-1.6728,-1.6728,-1.665,-1.5813,-1.5395,-1.5251,-1.5251,-1.4872,-1.4393,-1.4393,-1.4132,-1.3804,-1.3804,-1.3804,-1.3804,-1.3804,-1.3687,-1.3595,-1.3752,-1.3552,-1.3474,-1.418,-1.384,-1.3343,-1.35,-1.298,-1.2298,-1.1878,-1.1475,-1.1201,-1.1201,-1.1201,-1.1318,-1.1709,-1.2272,-1.2559,-1.2296,-1.1968,0.0,-1.198,-1.1382,-1.1109,-1.1499,-1.1173,-1.0939,-1.0939,-1.056,-0.9805,-0.867,-0.8187,-0.7809,-0.7492,-0.7627,-0.7696,-0.7696,-0.7696,-0.7358,0.0,0.0,0.0,0.0,0.0,0.0,0.0,0.0,0.0,0.0,0.0,0.0,0.0,0.0,0.0,0.0,0.0,0.0,0.0,0.0,0.0,0.0,-1.3137,-1.4154,-1.5218,-1.4877,-1.4886,-1.5892,-1.5395,-1.5108,-1.5479,-1.5833,-1.5866,-1.5526,-1.5813,-1.597,-1.5866,-1.5866,-1.6127,-1.6715,-1.6728,-1.6885,-1.7199,-1.7199,-1.7199,-1.7199,-1.7199,-1.7199,-1.7199,-1.7199,-1.7199,0.0,-1.7199,-1.7199,-1.7199,-1.7199,-1.7199,0.0,0.0,0.0,0.0,0.0,-1.5283,-1.4977,-1.4977,-1.4598,-1.4145,-1.4145,-1.3971,-1.3804,-1.3804,-1.3804,-1.3804,-1.3804,-1.3804,-1.3922,-1.4472,-1.421,-1.3857,-1.4092,-1.3503,-1.281,-1.2453,-1.1931,-1.1475,-1.124,0.0,0.0,-1.1643,-1.235,-1.2938,-1.3066,-1.2688,-1.2466,-1.2727,-1.2035,-1.1656,-1.1968,-1.1527,-1.1201,-1.1201,-1.0873,0.0,0.0,0.0,-0.8683,-0.8469,-0.8456,0.0,0.0,0.0,0.0,0.0,0.0,0.0,0.0,-0.6799,-0.7009,0.0,0.0,0.0,0.0,0.0,0.0,0.0,0.0,0.0,0.0,0.0,0.0,0.0,0.0,0.0,0.0,-1.4014,-1.4642,-1.6179,-1.5983,-1.5683,-1.5683,-1.5649,-1.5617,-1.5683,-1.5683,-1.5683,-1.5683,-1.5683,-1.5937,-1.6454,0.0,0.0,0.0,0.0,-1.7199,-1.7199,-1.7199,-1.7199,-1.7199,-1.7199,-1.7199,-1.7199,-1.7199,-1.7199,-1.7199,-1.7199,-1.7199,-1.7199,-1.7199,-1.7199,-1.7199,-1.7199,-1.6911,-1.6428,-1.5879,-1.5644,-1.5591,-1.5591,0.0,0.0,-1.4689,-1.4393,-1.3988,-1.3988,-1.3988,-1.3988,-1.3909,-1.3896,-1.4001,-1.4485,-1.421,-1.3935,-1.4467,-1.3778,-1.3006,-1.3006,-1.257,-1.2033,-1.1501,-1.1788,-1.1957,-1.1475,-1.2182,-1.316,-1.4245,-1.3556,-1.3124,-1.3726,-1.2805,-1.2125,-1.2203,0.0,0.0,-1.1305,-1.1292,-1.0782,-0.9577,-0.9946,-0.9999,-0.9511,-0.9563,-0.9776,-1.0195,-1.0208,-0.9933,-0.9406,-0.9406,-0.9148,-0.8683,-0.8083,-0.8096,0.0,0.0,0.0,0.0,0.0,0.0,0.0,0.0,0.0,0.0,0.0,0.0,0.0,0.0,0.0,-1.431,-1.5251,-1.6009,-1.6349,-1.6663,-1.6872,-1.6872,-1.648,-1.6388,-1.6833,-1.6872,-1.6872,-1.6872,-1.6872,-1.6924,-1.7042,-1.7042,0.0,-1.7199,-1.7199,-1.7199,-1.7199,-1.7199,-1.7199,-1.7199,0.0,0.0,-1.7199,-1.7199,-1.7199,-1.7199,-1.7199,-1.7199,-1.7199,-1.7199,-1.7199,-1.7199,-1.7199,-1.7133,-1.7029,-1.6911,-1.6598,-1.6219,-1.6219,-1.5826,-1.5317,-1.5317,-1.5251,-1.516,-1.516,-1.516,0.0,-1.4572,-1.4459,-1.4472,-1.4559,-1.421,-1.3935,-1.4467,-1.4105,-1.3634,-1.3634,-1.3543,-1.3281,-1.2692,-1.2651,-1.2677,-1.2588,-1.2363,-1.2413,-1.3108,-1.3045,-1.3124,-1.3726,-1.3176,-1.2912,-1.3396,-1.2928,-1.2376,-1.1877,-1.1851,-1.1173,-0.9603,-0.9603,-0.9604,-0.9498,-0.9919,-0.9986,-0.9657,-0.9657,-0.9357,-0.8772,-0.8772,-0.8965,-0.9303,-0.8706,-0.8487,0.0,0.0,0.0,0.0,0.0,0.0,0.0,0.0,0.0,0.0,0.0,-1.2977,-1.3249,0.0,-1.4851,-1.5408,-1.6016,-1.6493,-1.6754,-1.7029,-1.7199,-1.7199,-1.6963,-1.6911,-1.7173,-1.7199,-1.7199,-1.7199,-1.7199,-1.7199,-1.7199,-1.7199,-1.7199,-1.7199,-1.7199,-1.7199,-1.7199,-1.7199,-1.7199,-1.7199,-1.7199,-1.7199,-1.7199,-1.7199,-1.7199,-1.7199,-1.7199,-1.7199,-1.7199,-1.7199,-1.7199,-1.7199,-1.7199,-1.7199,-1.7199,-1.7199,-1.7029,-1.6794,-1.6794,-1.6428,-1.5944,-1.5944,-1.5754,-1.5487,-1.5487,-1.5487,-1.5434,-1.5152,-1.482,-1.4598,-1.4598,-1.421,-1.387,-1.4145,-1.4001,-1.3804,-1.3804,-1.3804,-1.3621,-1.3019,-1.315,-1.3147,-1.2544,-1.2453,-1.2664,-1.3268,-1.3098,-1.3124,-1.3726,-1.3543,-1.3477,-1.3765,-1.3268,-1.2768,-1.2479,-1.2164,-1.1642,-1.0795,-1.0507,-1.0349,-1.0349,-1.0312,-1.0169,-0.9906,-0.9906,-0.9906,-0.9906,-0.9906,-1.0181,-1.0743,-1.0443,-1.0,0.0,0.0,0.0,0.0,0.0,0.0,0.0,0.0,-1.2025,-1.257,-1.3801,-1.4768,-1.4768,-1.5283,-1.5866,-1.6454,-1.6565,-1.6741,-1.7303,-1.7264,-1.7199,-1.7199,-1.7199,-1.7199,-1.7199,-1.7199,-1.7199,-1.7199,-1.7199,-1.7199,-1.7199,-1.7199,-1.7199,-1.7199,-1.7199,-1.7199,-1.7199,-1.7199,-1.7199,-1.7199,-1.7199,-1.7199,-1.7199,-1.7199,-1.7199,-1.7199,-1.7199,-1.7199,-1.7199,-1.7199,-1.7199,-1.7199,-1.7199,-1.7199,-1.7199,-1.7199,-1.7199,-1.7199,-1.7199,-1.6911,-1.6565,-1.6565,-1.6219,-1.5826,-1.5826,-1.5826,-1.58,-1.5696,-1.5317,-1.4912,-1.4825,-1.438,-1.3961,-1.3961,-1.3883,-1.3804,-1.3804,-1.3883,-1.3778,-1.3189,-1.3556,-1.3644,-1.2659,-1.2821,-1.3203,-1.3569,-1.3108,-1.2993,-1.3713,-1.37,-1.3674,-1.3791,-1.3373,-1.3032,-1.2915,-1.2348,-1.2007,-1.2007,-1.1591,-1.1358,-1.1358,-1.0899,-1.0638,-1.0638,-1.0638,-1.0873,-1.1358,-1.1358,-1.1579,-1.2007,-1.2007,-1.1512,-1.2825,-1.1526,-1.0612,-1.1499,-1.1773,-1.219,0.0,0.0,-1.4389,-1.499,-1.5251,-1.5395,-1.5395,-1.5892,-1.648,-1.7016,-1.7107,-1.7316,-1.7917,-1.7539,-1.7199,-1.7199,-1.7199,-1.7199,-1.7199,-1.7199,-1.7199,-1.7199,-1.7199,-1.7199,-1.7199,-1.7199,-1.7199,-1.7199,-1.7199,-1.7199,-1.7199,-1.7199,-1.7199,-1.7199,-1.7199,-1.7199,-1.7199,-1.7199,-1.7199,-1.7199,-1.7199,-1.7199,-1.7199,-1.7199,-1.7199,-1.7199,-1.7199,-1.7199,-1.7199,-1.7199,-1.7199,-1.7199,-1.7199,-1.716,-1.7107,-1.7107,-1.7055,-1.7003,-1.7003,-1.7003,-1.6911,-1.6428,-1.6245,-1.6075,-1.5545,-1.4951,-1.4507,-1.4507,-1.4158,-1.3804,-1.3804,-1.4184,-1.4337,-1.3788,-1.4145,-1.4472,-1.4324,-1.3958,-1.3543,-1.3072,-1.2479,-1.2503,-1.366,-1.3333,-1.3216,-1.3752,-1.3739,-1.349,-1.2954,-1.2348,-1.2007,-1.2007,-1.1942,-1.1916,-1.1916,-1.1851,-1.1797,-1.1797,-1.1797,-1.1851,-1.1916,-1.1916,-1.1942,-1.2007,-1.2007,-1.1942,-1.4629,-1.3618,-1.2831,-1.3017,-1.3275,-1.3693,-1.4428,-1.4859,-1.5204,-1.5453,-1.6023,-1.6388,-1.6075,-1.648,-1.7042,0.0,-1.7421,-1.7408,-1.8022,-1.7303,-1.6846,-1.716,-1.6924,-1.6859,-1.7173,-1.7199,-1.7199,-1.7199,-1.7199,-1.7199,-1.7199,-1.7199,-1.7356,-1.7708,-1.7721,-1.7865,-1.8192,-1.7878,-1.7878,-1.8192,-1.7865,-1.7891,-1.8192,-1.8192,-1.8022,-1.7721,-1.7721,-1.7525,-1.7199,-1.7199,-1.7199,-1.7199,-1.7199,-1.7199,-1.7199,-1.7199,-1.7199,-1.7199,-1.7199,-1.7199,-1.7199,-1.7199,-1.7199,-1.7199,-1.7199,-1.7199,-1.7146,-1.6924,-1.6637,-1.6336,-1.6094,-1.5584,-1.5047,-1.4676,-1.4428,-1.4184,-1.387,-1.3988,-1.4079,-1.3844,-1.4219,-1.4493,-1.4197,-1.421,-1.4184,-1.3935,-1.3409,-1.3108,-1.3268,-1.3059,-1.286,-1.2753,-1.3069,-1.3176,-1.2915,-1.2991,-1.304,-1.304,-1.2729,-1.2533,-1.2533,-1.219,-1.2007,-1.2007,-1.2007,-1.2164,-1.2533,-1.2533,-1.2703,-1.3027,-1.2688,-1.2533,-1.5449,-1.482,-1.4367,-1.4302,-1.4694,-1.5113,-1.5113,-1.5539,-1.5957,-1.5957,-1.6624,-1.7081,-1.6689,-1.682,-1.7264,-1.8179,-1.7565,-1.729,-1.8192,-1.7342,-1.6754,-1.7146,-1.6859,-1.6767,-1.716,-1.7199,-1.7199,-1.7199,-1.7199,-1.7264,-1.7434,-1.7447,-1.7721,-1.8296,-1.8323,-1.8506,-1.8911,-1.8519,-1.8519,-1.8898,-1.8506,-1.8532,-1.8911,-1.8911,-1.8689,-1.8323,-1.8323,-1.7996,-1.7447,-1.7447,-1.7356,-1.7199,-1.7199,-1.7199,-1.7199,-1.7199,-1.7199,-1.7199,-1.7199,-1.7199,-1.7199,-1.7199,-1.7199,-1.7199,-1.7199,-1.7199,-1.7199,-1.7199,-1.6924,-1.6611,-1.6611,-1.6199,-1.5649,-1.5199,-1.4964,-1.4729,-1.4337,-1.4145,-1.4027,-1.4027,-1.4206,-1.4297,-1.4066,-1.4337,-1.4598,-1.4598,-1.4275,-1.3922,-1.366,-1.3477,-1.3082,-1.2335,-1.2638,-1.2836,-1.2664,-1.32,-1.3556,-1.3556,-1.3294,-1.315,-1.315,-1.2727,-1.2505,-1.2505,-1.2505,-1.2701,-1.315,-1.315,-1.3373,-1.3791,-1.3346,-1.315,-1.4642,-1.4219,-1.4092,-1.5191,-1.5892,-1.6336,-1.6336,-1.6754,-1.7146,-1.7146,-1.7173,-1.7199,-1.7186,-1.6754,-1.6963,-1.861,-1.7499,-1.699,-1.8649,-1.7891,-1.7186,-1.7199,-1.7186,-1.7186,0.0,-1.7199,-1.7199,-1.7199,-1.7199,-1.746,-1.8035,-1.8074,-1.8323,-1.8858,-1.8885,-1.8885,-1.8911,-1.8885,-1.8885,-1.8911,-1.8885,-1.8885,-1.8911,-1.8911,-1.8898,-1.8885,-1.8885,-1.8571,-1.8074,-1.8074,-1.7735,-1.7199,-1.7199,-1.7199,-1.7199,-1.7199,-1.7199,-1.7199,-1.7199,-1.7199,-1.7199,-1.7199,-1.7199,-1.7199,-1.7199,-1.7199,-1.7199,-1.7199,-1.7186,-1.7173,-1.7173,-1.6767,-1.6382,-1.6336,-1.5892,-1.5479,-1.5447,-1.4977,-1.4589,-1.4589,-1.4184,-1.3971,-1.448,-1.4585,-1.4598,-1.4598,-1.4589,-1.4768,-1.5343,-1.4917,-1.4132,-1.2993,-1.2888,-1.2664,-1.2086,-1.2585,-1.2928,-1.2928,-1.3464,-1.3778,-1.3778,-1.3765,-1.3752,-1.3752,-1.3752,-1.3752,-1.3778,-1.3778,-1.3778,-1.3804,-1.3778,-1.3778,-1.5204,-1.5055,-1.5126,-1.5892,-1.6245,-1.648,-1.6846,-1.7068,-1.7199,-1.7199,-1.7199,-1.7199,-1.7199,-1.7042,-1.7251,-1.8218,-1.7565,-1.7264,-1.8231,-1.7382,-1.6794,-1.716,-1.6885,0.0,0.0,0.0,0.0,-1.7225,-1.7565,-1.7891,-1.8087,-1.81,-1.8532,-1.9473,-1.9499,-1.9682,-2.0085,-1.9695,-1.9695,-2.0085,-2.0085,-2.0085,-2.0085,-2.0085,-1.9889,-1.9499,-1.9499,-1.9172,-1.8636,-1.8636,-1.8506,-1.8336,-1.8336,-1.8336,-1.8283,-1.7931,-1.78,-1.7735,-1.7342,-1.7199,-1.7199,-1.7199,-1.7199,-1.7199,-1.7199,-1.7199,-1.7199,-1.7199,-1.7199,-1.7199,-1.7199,-1.7068,-1.6833,-1.648,-1.6232,-1.5983,-1.5578,-1.533,-1.5068,-1.4676,-1.4441,-1.4289,-1.4105,-1.4079,-1.4197,-1.4563,-1.4302,-1.4145,-1.4354,-1.4197,-1.3922,-1.3543,-1.3503,-1.3409,-1.3213,-1.337,-1.3503,-1.3503,-1.37,-1.3804,-1.3804,-1.3804,-1.3804,-1.3804,-1.3804,-1.3804,-1.3804,-1.3804,-1.3804,-1.3804,-1.3804,-1.3804,-1.5696,-1.5657,-1.5683,-1.648,-1.6676,-1.6767,-1.712,-1.7199,-1.7146,-1.695,-1.6911,-1.6911,-1.6911,-1.6728,-1.6924,-1.7944,-1.7434,-1.7186,-1.7996,-1.7473,-1.7133,-1.7473,-1.7382,-1.7421,0.0,0.0,0.0,-1.7277,-1.7944,-1.8388,-1.8388,-1.8597,-1.9133,-2.0074,-2.0137,-2.0308,-2.0699,-2.0321,-2.0321,-2.0699,-2.0699,-2.0699,-2.0699,-2.0699,-2.0478,-2.0137,-2.0137,-1.9773,-1.9224,-1.9224,-1.9094,-1.8911,-1.8911,-1.8911,-1.8858,-1.8506,-1.8388,-1.827,-1.7473,-1.7199,-1.7199,-1.7199,-1.7199,-1.7199,-1.7199,-1.7199,-1.7199,-1.7199,-1.7199,-1.7199,-1.7199,-1.7199,-1.7107,-1.6767,-1.6676,-1.6571,-1.6179,-1.5957,-1.5696,-1.5317,-1.5055,-1.4825,-1.4472,-1.4236,-1.4145,-1.4302,-1.4184,-1.4092,-1.4092,-1.4092,-1.4014,-1.3817,-1.3804,-1.3804,-1.3804,-1.3988,-1.4092,-1.4092,-1.4302,-1.4419,-1.4419,-1.4419,-1.4419,-1.4419,-1.4419,-1.4419,-1.4419,-1.4419,-1.4419,-1.4419,-1.4419,-1.4302,-1.6153,-1.6055,-1.5911,-1.7018,-1.7259,-1.7238,-1.7212,-1.7186,-1.7003,-1.6474,-1.6349,-1.6336,0.0,0.0,-1.6088,-1.7735,-1.712,-1.682,-1.7904,-1.8074,-1.81,0.0,0.0,0.0,0.0,0.0,0.0,-1.7408,0.0,-1.895,-1.895,-1.9486,-2.0074,-2.0686,-2.0699,-2.0699,-2.0699,-2.0699,-2.0699,-2.0699,-2.0699,-2.0699,-2.0699,-2.0699,-2.0699,-2.0699,-2.0699,-2.0373,-1.9852,-1.9852,-1.9512,-1.8989,-1.8989,-1.8989,-1.8989,-1.8963,-1.895,-1.8793,-1.7669,-1.729,-1.7277,-1.7251,-1.7251,-1.7238,-1.7212,-1.7199,-1.7199,-1.7199,-1.7199,-1.7199,-1.7199,-1.7199,-1.7199,-1.7199,-1.7199,-1.7199,-1.7199,-1.6794,-1.6428,-1.6402,-1.5905,-1.5487,-1.5487,-1.5008,-1.4428,-1.3922,-1.4245,-1.4559,-1.4598,-1.4642,-1.4459,-1.3948,-1.387,-1.3844,-1.3844,-1.4315,-1.4598,-1.4598,-1.516,-1.5487,-1.5487,-1.5487,-1.5487,-1.5487,-1.5487,-1.5487,-1.5487,-1.5487,-1.5487,-1.5487,-1.5487,-1.5199,-1.7368,-1.7509,-1.7605,-1.8236,-1.8118,-1.7748,-1.7303,-1.6885,-1.6428,-1.584,-1.5741,-1.5578,0.0,0.0,0.0,-1.6754,-1.6924,0.0,-1.7382,-1.7813,0.0,-1.81,0.0,-1.8911,-1.8911,-1.946,0.0,0.0,-1.9159,-1.9577,-1.9577,-1.9721,-2.0074,-2.0686,-2.0699,-2.0699,-2.0699,-2.0699,-2.0699,-2.0699,-2.0699,-2.0699,-2.0699,-2.0699,-2.0699,-2.0699,-2.0699,-2.062,-2.0465,-2.0465,-2.0373,-2.0229,-2.0229,-2.0229,-2.0177,-1.9734,-1.9577,-1.9473,-1.8728,-1.8479,-1.8401,-1.7996,-1.7865,-1.7787,-1.7342,-1.7199,-1.7199,-1.7199,-1.7199,-1.7199,-1.7199,-1.7199,-1.7199,-1.7199,-1.7199,-1.7199,-1.7199,-1.7094,-1.6872,-1.648,-1.5905,-1.5487,-1.5487,-1.5008,-1.4546,-1.4419,-1.4184,-1.4158,-1.4563,-1.499,-1.5212,-1.5068,-1.465,-1.4406,-1.4406,-1.4507,-1.4598,-1.4598,-1.516,-1.5487,-1.5487,-1.5487,-1.5487,-1.5487,-1.5487,-1.5487,-1.5487,-1.5487,-1.5487,-1.5487,-1.5487,-1.5657,-1.8442,-1.8858,-1.9062,-1.8855,-1.8609,-1.8132,-1.7091,-1.6611,-1.6153,-1.5278,-1.5113,-1.4925,-1.4337,-1.5199,-1.6016,0.0,0.0,0.0,-1.7199,-1.7917,-1.8453,0.0,-1.9172,0.0,-1.9693,-2.0007,-2.0059,0.0,-2.0007,-2.0074,-1.9812,-2.0035,-2.0347,-2.0699,-2.0699,-2.0699,-2.0699,-2.0699,-2.0699,-2.0699,-2.0699,-2.0699,-2.0699,-2.0699,-2.0699,-2.0699,0.0,-2.0699,-2.0699,-2.0699,-2.0699,-2.0699,-2.0699,-2.0699,-2.0673,-2.0321,-2.0203,-2.0151,-1.981,-1.9693,-1.9538,-1.8715,-1.8453,-1.8388,-1.8048,-1.7787,-1.7591,-1.7591,-1.7408,-1.7199,-1.7199,-1.7199,-1.7199,-1.7199,-1.7199,-1.7199,-1.7199,-1.7199,-1.7107,-1.6807,-1.648,-1.6166,-1.595,-1.5604,-1.5199,-1.4676,-1.4337,-1.4184,-1.4232,-1.455,-1.4833,-1.5068,-1.4794,-1.4703,-1.4964,-1.499,-1.499,-1.499,-1.5304,-1.5487,-1.5487,-1.5487,-1.5487,-1.5487,-1.5487,-1.5487,-1.5487,-1.5487,-1.5487,-1.5487,-1.5487,-1.5545,-1.9488,-1.9999,-2.0175,-1.9315,-1.892,-1.8337,-1.6811,-1.6356,-1.5897,-1.4733,-1.448,-1.4297,-1.367,-1.4563,-1.5369,-1.5369,0.0,-1.7146,-1.7303,-1.8166,-1.8819,-1.8898,-1.9889,-2.0594,-2.0594,-2.066,-2.0699,-2.0699,-2.0699,-2.0465,-1.9943,-2.0412,-2.0699,-2.0699,-2.0699,-2.0699,-2.0699,-2.0699,-2.0699,-2.0699,-2.0699,-2.0699,-2.0699,-2.0699,-2.0699,-2.0699,0.0,0.0,-2.0699,-2.0699,-2.0699,-2.0699,-2.0699,-2.0699,-2.0699,-2.0699,-2.0699,-2.0699,-2.0699,-2.0699,-2.0515,-1.9381,-1.9028,-1.9015,-1.8924,-1.8571,-1.8192,-1.8114,-1.7721,-1.7303,-1.7212,-1.7199,-1.7199,-1.7199,-1.7199,-1.7199,-1.7199,-1.7199,-1.7199,-1.7199,-1.7199,-1.7042,-1.6584,-1.6441,-1.6036,-1.5008,-1.4768,-1.4563,-1.4092,-1.3896,-1.3988,-1.4428,-1.448,-1.4703,-1.5225,-1.533,-1.5369,-1.5369,-1.5466,-1.5487,-1.5487,-1.5487,-1.5487,-1.5487,-1.5487,-1.5487,-1.5487,-1.5487,-1.5487,-1.5487,-1.5408,-1.5134,-2.0634,-2.0569,-2.038,-2.0637,-1.9537,-1.812,-1.7109,-1.6094,0.0,-1.413,-1.3948,-1.3605,-1.2503,-1.364,-1.4773,-1.4773,-1.5748,-1.6859,-1.7813,-1.8114,-1.8401,0.0,-1.9525,-1.9956,-1.9956,-2.0412,0.0,0.0,0.0,-2.066,-2.0543,-2.0646,-2.0699,-2.0699,-2.0699,-2.0699,-2.0699,-2.0699,-2.0699,-2.0699,-2.0699,-2.0699,-2.0699,-2.0699,-2.0699,-2.0699,-2.0699,0.0,-2.0699,-2.0699,-2.0699,-2.0699,-2.0699,-2.0699,-2.0699,-2.0699,-2.0699,-2.0699,-2.0699,-2.0699,-2.0594,-1.9865,-1.9643,-1.9551,-1.9054,-1.8845,-1.8675,-1.8218,-1.8022,-1.7826,-1.7329,-1.7199,-1.7199,-1.7199,-1.7199,-1.7199,-1.7199,-1.7199,-1.7199,-1.7199,-1.7199,-1.7173,-1.7081,-1.6689,-1.6323,-1.6114,-1.5657,-1.5304,-1.5231,-1.4393,-1.3844,-1.3935,-1.3948,-1.3988,-1.4092,-1.4493,-1.4773,-1.4773,-1.5212,-1.5487,-1.5487,-1.5487,-1.5487,-1.5487,-1.5487,-1.5487,-1.5487,-1.5487,-1.5487,-1.5487,-1.4977,-1.4964,-2.0794,-2.0958,-2.0956,-2.0642,-1.9627,-1.8375,-1.7084,0.0,0.0,-1.4196,-1.3921,-1.3543,-1.2622,-1.3644,-1.4598,-1.4598,-1.5343,-1.6323,-1.7473,-1.763,-1.7839,-1.8427,-1.9264,-1.9799,0.0,-2.0347,0.0,0.0,0.0,-2.0699,-2.0699,-2.0699,-2.0699,-2.0699,-2.0699,-2.0699,-2.0699,-2.0699,-2.0699,-2.0699,-2.0699,-2.0699,-2.0699,-2.0699,-2.0699,-2.0699,-2.0699,0.0,-2.0699,-2.0699,-2.0699,-2.0699,-2.0699,-2.0699,-2.0699,-2.0699,-2.0699,-2.0699,-2.0699,-2.0699,-2.066,-2.036,-2.0268,-2.0216,-1.9928,-1.9603,-1.9316,-1.9054,-1.8767,-1.8453,-1.8166,-1.8087,-1.8087,-1.8087,-1.7865,-1.7578,-1.7264,-1.7199,-1.7199,-1.7199,-1.7199,-1.7199,-1.7199,-1.699,-1.6715,-1.6441,-1.6153,-1.584,-1.5545,-1.5309,-1.4917,-1.4289,-1.3975,-1.3804,-1.3804,-1.404,-1.4184,-1.4184,-1.4459,-1.4629,-1.4629,-1.4629,-1.4629,-1.4629,-1.4629,-1.4629,-1.4629,-1.4629,-1.4629,-1.4616,-1.4328,-1.4341,-2.0703,-2.0976,-2.1113,-2.0416,-1.9393,-1.8263,-1.7017,-1.5847,0.0,-1.4398,-1.4023,-1.3621,-1.3006,-1.3752,-1.4428,0.0,-1.5029,-1.5892,-1.7042,-1.7303,-1.7565,0.0,-1.9107,0.0,-1.963,0.0,0.0,0.0,0.0,0.0,-2.0699,-2.0699,-2.0699,-2.0699,-2.0699,-2.0699,-2.0699,-2.0699,-2.0699,-2.0699,-2.0699,-2.0699,-2.0699,-2.0699,-2.0699,-2.0699,-2.0699,0.0,0.0,-2.0699,-2.0699,-2.0699,-2.0699,-2.0699,-2.0699,-2.0699,-2.0699,-2.0699,-2.0699,-2.0699,-2.0699,-2.0699,-2.0699,-2.0699,-2.0699,-2.0373,-1.9969,-1.9839,-1.946,-1.9068,-1.8937,-1.8911,-1.8911,-1.8911,-1.8584,-1.814,-1.7669,-1.7473,-1.7382,-1.7382,-1.729,-1.7199,-1.7199,-1.7199,-1.7055,-1.6624,-1.6558,-1.6388,-1.5937,-1.6186,-1.6036,-1.51,-1.4616,-1.4367,-1.4367,-1.4132,-1.3975,-1.3975,-1.387,-1.3804,-1.3804,-1.3804,-1.3804,-1.3804,-1.3804,-1.3804,-1.3804,-1.3804,-1.3804,-1.3804,-1.3804,-1.387,-2.0703,-2.0303,-2.0004,-2.0516,-1.8765,-1.6958,-1.7105,0.0,-1.4723,-1.4365,-1.4023,-1.3621,-1.3006,-1.3438,0.0,0.0,0.0,-1.5892,-1.7042,-1.7669,-1.8035,-1.8087,0.0,0.0,-1.9041,0.0,0.0,0.0,0.0,0.0,-2.0699,-2.0699,-2.0699,-2.0699,-2.0699,-2.0699,-2.0699,-2.0699,-2.0699,-2.0699,-2.0699,-2.0699,-2.0699,-2.0699,-2.0699,-2.0699,-2.0699,0.0,0.0,-2.0699,-2.0699,-2.0699,-2.0699,-2.0699,-2.0699,-2.0699,-2.0699,-2.0699,-2.0699,-2.0699,-2.0699,-2.0699,-2.0699,-2.0699,-2.0699,-2.0673,-2.0491,-1.9943,-1.9773,-1.959,-1.9041,-1.8911,-1.8911,-1.8911,-1.8872,-1.8819,-1.8767,-1.8362,-1.8022,-1.8022,-1.7578,-1.7199,-1.7199,-1.7199,-1.7186,-1.7133,-1.7133,-1.7107,-1.7042,-1.6663,-1.6349,-1.6245,-1.6179,-1.6153,-1.6153,-1.5147,-1.452,-1.452,-1.4079,-1.3804,-1.3804,-1.3804,-1.3804,-1.3804,-1.3804,-1.3804,-1.3804,-1.3804,-1.3804,-1.3804,-1.3804,-1.4066,-1.8999,-1.9286,-1.9678,-1.954,-1.8386,-1.7337,-1.7476,-1.6102,-1.4761,-1.4636,-1.417,-1.3726,-1.349,-1.3647,-1.3909,-1.4236,-1.4393,0.0,-1.5526,-1.584,-1.6127,-1.6493,-1.7865,0.0,0.0,0.0,0.0,0.0,0.0,0.0,-2.0699,-2.0699,-2.0699,-2.0699,-2.0699,-2.0699,-2.0699,-2.0699,-2.0699,-2.0699,-2.0699,-2.0699,-2.0699,-2.0699,-2.0699,-2.0699,-2.0699,0.0,0.0,-2.0699,-2.0699,-2.0699,-2.0699,-2.0699,-2.0699,-2.0699,-2.0699,-2.0699,-2.0699,-2.0699,-2.0699,-2.0699,-2.0699,-2.0699,-2.0699,-2.0699,-2.066,-2.0412,-2.0334,-2.0281,-2.0046,-1.998,-1.9889,-1.9525,-1.9447,-1.9342,-1.8989,-1.8728,-1.8493,-1.8166,-1.7904,-1.763,-1.7264,-1.7199,-1.7199,-1.7199,-1.7199,-1.7199,-1.7199,-1.7329,-1.7421,-1.7421,-1.648,-1.5853,-1.5853,-1.5408,-1.5134,-1.5134,-1.4938,-1.4825,-1.4825,-1.4825,-1.4825,-1.4825,-1.4472,-1.4472,-1.4825,-1.4472,-1.4472,-1.4825,-1.4825,-1.4943,-1.8072,-1.8553,-1.9031,-1.8777,-1.8057,-1.7399,-1.7399,-1.6037,-1.4808,-1.4808,-1.4268,-1.3804,-1.3804,-1.3804,-1.3922,-1.4302,-1.4053,-1.4053,-1.4773,-1.5016,-1.5343,0.0,0.0,0.0,0.0,0.0,0.0,0.0,0.0,0.0,0.0,-2.0804,-2.0699,-2.0699,-2.0699,-2.0699,-2.0699,-2.0699,-2.0699,-2.0699,-2.0857,-2.0936,-2.0936,-2.1106,-2.1118,-2.0936,0.0,0.0,0.0,-2.0699,-2.0699,-2.0699,-2.0699,-2.0699,-2.0699,-2.0699,-2.0699,-2.0699,-2.0699,-2.0699,-2.0699,-2.0699,-2.0699,-2.0699,-2.0699,-2.0699,-2.0699,-2.0699,-2.0699,-2.0699,-2.0699,-2.0699,-2.0607,-2.0177,-2.0061,-1.9943,-1.9512,-1.929,-1.9054,-1.8675,-1.8453,-1.8153,-1.7565,-1.7473,-1.7408,-1.7225,-1.7199,-1.7199,-1.7199,-1.7565,-1.7826,-1.7826,-1.6728,-1.6075,-1.6245,-1.5957,-1.5761,-1.5761,-1.5591,-1.5487,-1.5487,-1.5487,-1.5487,-1.5487,-1.5082,-1.5068,-1.5487,-1.5068,-1.5082,-1.5487,-1.5487,-1.5591,-1.8506,-1.8207,-1.7878,-1.8553,-1.7713,-1.6711,-1.6711,-1.5717,-1.4808,-1.4808,-1.4268,-1.3804,-1.3804,-1.3804,-1.3804,-1.3817,-1.3804,0.0,-1.5317,-1.5996,-1.6571,0.0,0.0,0.0,0.0,0.0,0.0,0.0,0.0,0.0,0.0,-2.0988,-2.0699,-2.0699,-2.0699,-2.0699,-2.0699,-2.0699,-2.0699,-2.0712,-2.1224,-2.1498,-2.1525,-2.2113,-2.2061,0.0,0.0,0.0,0.0,-2.0699,-2.0699,-2.0699,-2.0699,-2.0699,-2.0699,-2.0699,-2.0699,-2.0699,-2.0699,-2.0699,-2.0699,-2.0699,-2.0699,-2.0699,-2.0699,-2.0699,-2.0699,-2.0699,-2.0699,-2.0699,-2.0699,-2.0699,-2.0699,-2.0699,-2.0699,-2.0699,-2.0686,-2.0216,-1.9799,-1.9786,-1.9303,-1.8728,-1.8179,-1.8087,-1.7891,-1.729,-1.7199,-1.7199,-1.7199,-1.7212,-1.7212,-1.7212,-1.7186,-1.7421,-1.8022,-1.7029,-1.6388,-1.6388,-1.5826,-1.5487,-1.5487,-1.5487,-1.5487,-1.5487,-1.5487,-1.5487,-1.5487,-1.5487,-1.5487,-1.5487,-1.5487,-1.5813,-1.6907,-1.752,-1.8207,-1.7503,-1.701,-1.6696,-1.6696,-1.54,-1.4304,-1.471,-1.3945,-1.332,-1.3726,-1.3804,-1.3922,-1.4302,-1.4337,0.0,0.0,0.0,0.0,-1.6624,-1.8349,0.0,0.0,0.0,0.0,0.0,0.0,0.0,0.0,-2.1342,-2.108,-2.0712,-2.0699,-2.0699,-2.0699,-2.0699,-2.0699,-2.0699,-2.087,-2.0949,-2.0962,-2.1157,0.0,0.0,0.0,0.0,0.0,-2.0699,-2.0699,-2.0699,-2.0699,-2.0699,-2.0699,-2.0699,-2.0699,-2.0699,-2.0699,-2.0699,-2.0699,-2.0699,-2.0699,-2.0699,-2.0699,-2.0699,-2.0699,-2.0699,-2.0699,-2.0699,-2.0699,-2.0699,-2.0699,-2.0699,-2.0699,-2.0699,-2.0699,-2.0543,-2.0294,-1.9878,-1.9656,-1.9342,-1.8754,-1.8649,-1.8453,-1.7904,-1.7813,-1.7669,-1.7251,-1.7199,-1.7199,-1.7199,-1.7199,-1.7277,-1.7473,-1.7146,-1.695,-1.695,-1.6767,-1.6663,-1.6663,-1.6663,-1.6663,-1.6663,-1.6297,-1.6297,-1.6663,-1.6284,-1.6297,-1.6663,-1.6663,-1.6754,-1.6219,-1.7011,-1.7726,-1.678,-1.6556,-1.6482,-1.6231,-1.4903,-1.3848,-1.4359,-1.3635,-1.3019,-1.3399,-1.3647,-1.3909,-1.4232,-1.4118,0.0,0.0,0.0,0.0,-1.6963,0.0,0.0,0.0,0.0,0.0,0.0,0.0,0.0,0.0,-2.1302,-2.1053,-2.0712,-2.0699,-2.0699,-2.0699,-2.0699,-2.0699,-2.0699,-2.0909,-2.1001,-2.1014,-2.1237,0.0,0.0,0.0,0.0,0.0,-2.0699,-2.0699,-2.0699,-2.0699,-2.0699,-2.0699,-2.0699,-2.0699,-2.0699,-2.0699,-2.0699,-2.0699,-2.0699,-2.0699,-2.0699,-2.0699,-2.0699,-2.0699,-2.0699,-2.0699,-2.0699,-2.0699,-2.0699,-2.0699,-2.0699,-2.0699,-2.0699,-2.0699,-2.0699,-2.0607,-2.0216,-2.0151,-1.9967,-1.9342,-1.9251,-1.8989,-1.8218,-1.81,-1.7878,-1.7277,-1.7199,-1.7199,-1.7199,-1.7199,-1.7199,-1.7199,-1.7199,-1.7199,-1.7199,-1.7199,-1.7199,-1.7199,-1.7199,-1.7199,-1.7199,-1.6872,-1.6859,-1.7199,-1.6859,-1.6872,-1.7199,-1.7199,-1.7199,0.0,-1.6517,-1.6486,-1.6178,-1.6085,-1.5925,-1.5299,-1.4193,0.0,-1.374,-1.3269,-1.2823,-1.2941,-1.3386,-1.3778,-1.3909,-1.3451,0.0,0.0,-1.563,0.0,0.0,0.0,0.0,0.0,0.0,0.0,0.0,0.0,0.0,0.0,-2.0909,-2.0646,-2.0646,-2.0646,-2.0673,-2.0699,-2.0699,-2.0699,-2.0712,-2.1223,-2.1446,-2.1472,-2.2021,0.0,0.0,0.0,0.0,0.0,-2.0699,-2.0699,-2.0699,-2.0699,-2.0699,-2.0699,-2.0699,-2.0699,-2.0699,-2.0699,-2.0699,-2.0699,-2.0699,-2.0699,-2.0699,-2.0699,-2.0699,-2.0699,-2.0699,-2.0699,-2.0699,-2.0699,-2.0699,-2.0699,-2.0699,-2.0699,-2.0699,-2.0699,-2.0699,-2.0699,-2.0699,-2.0699,-2.0504,-1.9956,-1.9865,-1.9486,-1.8388,-1.8218,-1.7996,-1.7395,-1.7316,-1.7316,-1.7316,-1.729,-1.7264,-1.7264,-1.7225,-1.7199,-1.7199,-1.7199,-1.7199,-1.7199,-1.7199,-1.7199,-1.7199,-1.7199,-1.7199,-1.7199,-1.7199,-1.7199,-1.7199,-1.7199,-1.7199,-1.426,0.0,-1.5057,-1.4277,-1.4078,-1.4048,0.0,-1.2951,-1.2306,-1.2997,-1.2333,-1.2012,-1.3346,-1.3333,-1.3556,-1.4872,0.0,0.0,-1.6062,0.0,0.0,0.0,0.0,0.0,0.0,0.0,0.0,0.0,0.0,0.0,0.0,-2.0074,-2.0009,-2.0009,-2.0009,-2.0242,-2.0699,-2.0699,-2.0699,-2.0699,-2.0818,-2.0883,-2.0883,-2.1027,0.0,0.0,0.0,0.0,-2.0699,-2.0699,-2.0699,-2.0699,-2.0699,-2.0699,-2.0699,-2.0699,-2.0699,-2.0699,-2.0699,-2.0699,-2.0699,-2.0699,-2.0699,-2.0699,-2.0699,-2.0699,-2.0699,-2.0699,-2.0699,-2.0699,-2.0699,-2.0699,-2.0699,-2.0699,-2.0699,-2.0699,-2.0699,-2.0699,-2.0699,-2.0699,-2.0699,-2.066,-2.0504,-2.0478,-2.0242,-1.9512,-1.9407,-1.9185,-1.8584,-1.8506,-1.8506,-1.8506,-1.8127,-1.7891,-1.7891,-1.746,-1.7199,-1.7199,-1.7199,-1.7199,-1.7199,-1.7199,-1.7199,-1.7199,-1.7199,-1.7199,-1.7199,-1.7199,-1.7199,-1.7199,-1.7199,-1.7199,-1.2777,-1.381,-1.4598,-1.378,-1.3611,-1.3584,-1.3445,-1.2402,-1.1629,-1.2236,-1.1925,-1.1867,-1.2808,-1.3356,-1.4001,-1.4925,-1.5317,0.0,0.0,0.0,0.0,0.0,0.0,0.0,0.0,0.0,0.0,0.0,0.0,0.0,0.0,-1.9394,-1.9394,-1.9394,-1.9669,-2.0074,-2.0699,-2.0699,-2.0699,-2.0699,-2.0699,-2.0699,-2.0699,-2.0699,-2.0699,0.0,0.0,0.0,-2.0699,-2.0699,-2.0699,-2.0699,-2.0699,-2.0699,-2.0699,-2.0699,-2.0699,-2.0699,-2.0699,-2.0699,-2.0699,-2.0699,-2.0699,-2.0699,-2.0699,-2.0699,-2.0699,-2.0699,-2.0699,-2.0699,-2.0699,-2.0699,-2.0699,-2.0699,-2.0699,-2.0699,-2.0699,-2.0699,-2.0699,-2.0699,-2.0699,-2.0699,-2.0699,-2.0699,-2.0491,-1.9891,-1.9799,-1.959,-1.8989,-1.8911,-1.8911,-1.8911,-1.8649,-1.8466,-1.8466,-1.7944,-1.7486,-1.7212,-1.7199,-1.7199,-1.7199,-1.7199,-1.7199,-1.7199,-1.7199,-1.7199,-1.7199,-1.7199,-1.7199,-1.7199,-1.7199,-1.7199,-1.1967,-1.3295,-1.4463,-1.37,-1.3585,-1.3597,-1.3318,-1.2257,-1.1414,-1.1736,-1.1908,-1.2086,-1.2346,-1.3552,0.0,0.0,0.0,0.0,-1.7996,-1.8545,0.0,0.0,0.0,0.0,0.0,0.0,0.0,0.0,0.0,0.0,0.0,-1.8649,-1.8689,-1.878,-1.9277,-1.9812,-2.0424,-2.0529,-2.0543,-2.0543,-2.0543,-2.062,-2.0699,-2.0607,-2.062,0.0,0.0,0.0,-2.0699,-2.0699,-2.0699,-2.0699,-2.0699,-2.0699,-2.0699,-2.0699,-2.0699,-2.0699,-2.0699,-2.0699,-2.0699,-2.0699,-2.0699,-2.0699,-2.0699,-2.0699,-2.0699,-2.0699,-2.0699,-2.0699,-2.0699,-2.0699,-2.0699,-2.0699,-2.0699,-2.0699,-2.0699,-2.0699,-2.0699,-2.0699,-2.0699,-2.0699,-2.0699,-2.0699,-2.0517,-2.0009,-1.9943,-1.9747,-1.9214,-1.9172,-1.9172,-1.9149,-1.9071,-1.9041,-1.9041,-1.8545,-1.7996,-1.7486,-1.7303,-1.7199,-1.7199,-1.7199,-1.7199,-1.7199,-1.7199,-1.7199,-1.7199,-1.7199,-1.7199,-1.7199,-1.7199,-1.7199,-1.2708,-1.3469,-1.3672,-1.2493,-1.2403,-1.2618,-1.2575,-1.2197,-1.1963,-1.2234,-1.2144,-1.2451,-1.3931,-1.4049,-1.4419,0.0,0.0,-1.7369,0.0,0.0,0.0,0.0,0.0,0.0,0.0,0.0,0.0,0.0,0.0,0.0,0.0,-1.746,-1.7695,-1.8205,-1.831,-1.8623,-1.9172,-1.9682,-1.9943,-1.9943,-1.9943,-2.0216,-2.0686,-2.0177,-2.0229,0.0,0.0,-2.0699,-2.0699,-2.0699,-2.0699,-2.0699,-2.0699,-2.0699,-2.0699,-2.0699,-2.0699,-2.0699,-2.0699,-2.0699,-2.0699,-2.0699,-2.0699,-2.0699,-2.0699,-2.0699,-2.0699,-2.0699,-2.0699,-2.0699,-2.0699,-2.0699,-2.0699,-2.0699,-2.0699,-2.0699,-2.0699,-2.0699,-2.0699,-2.0699,-2.0699,-2.0699,-2.0699,-2.0699,-2.0673,-2.0594,-2.0543,-2.0492,-2.029,-2.0338,-2.0388,-2.0277,-1.9908,-1.9669,-1.9669,-1.912,-1.8741,-1.8649,-1.7735,-1.7199,-1.7199,-1.7199,-1.7199,-1.7199,-1.7199,-1.7199,-1.7199,-1.7199,-1.7199,-1.7199,-1.7199,-1.7199,-1.1909,-1.2537,-1.2897,-1.2321,-1.3012,-1.3745,-1.3262,-1.3056,-1.3009,-1.3134,-1.3293,-1.364,-1.4441,0.0,-1.5676,-1.7081,0.0,-1.8296,0.0,0.0,0.0,0.0,0.0,0.0,0.0,0.0,0.0,0.0,0.0,0.0,0.0,0.0,-1.7329,-1.7604,-1.7617,-1.7735,-1.7983,-1.8584,-1.9028,-1.9316,-1.9316,-1.946,-1.9719,-1.9433,-1.9643,-2.0216,0.0,-2.0399,-2.0699,-2.0699,-2.0699,-2.0699,-2.0699,-2.0699,-2.0699,-2.0699,-2.0699,-2.0699,-2.0699,-2.0699,-2.0699,-2.0699,-2.0699,-2.0699,-2.0699,-2.0699,-2.0699,-2.0699,-2.0699,-2.0699,-2.0699,-2.0699,-2.0699,-2.0699,-2.0699,-2.0699,-2.0699,-2.0699,-2.0699,-2.0699,-2.0699,-2.0699,-2.0699,-2.0699,-2.0699,-2.0699,-2.0699,-2.0687,-2.0612,-2.0662,-2.0687,-2.0612,-2.0427,-2.0294,-2.0294,-1.9721,-1.9251,-1.8924,-1.814,-1.7682,-1.7682,-1.7369,-1.7199,-1.7199,-1.7199,-1.7199,-1.7199,-1.7199,-1.7199,-1.7199,-1.7199,-1.7369,-1.1536,-1.2061,-1.2553,-1.27,-1.3776,-1.4654,-1.4104,-1.3988,-1.404,-1.4171,-1.4507,-1.4846,-1.5008,-1.5866,0.0,-1.7944,-1.8558,0.0,0.0,0.0,0.0,0.0,0.0,0.0,0.0,0.0,0.0,0.0,0.0,0.0,0.0,0.0,-1.7199,-1.7199,-1.7199,-1.7199,-1.7199,-1.7656,-1.8166,-1.8715,-1.8715,-1.878,-1.8911,-1.8767,-1.9041,-1.959,-1.959,-1.9839,-2.0281,-2.0425,-2.0478,-2.0491,-2.0646,-2.0699,-2.0699,-2.0699,-2.0699,-2.0699,-2.0699,-2.0699,-2.0699,-2.0699,-2.0699,-2.0699,-2.0699,-2.0699,-2.0699,-2.0699,-2.0699,-2.0699,-2.0699,-2.0699,-2.0699,-2.0699,-2.0699,-2.0699,-2.0699,-2.0699,-2.0699,-2.0699,-2.0687,-2.0662,-2.0687,-2.0687,-2.0662,-2.0699,-2.0699,-2.0687,-2.0662,-2.0662,-2.0637,-2.0599,-2.0637,-2.0687,-2.0699,-2.0281,-1.9799,-1.9342,-1.8662,-1.8283,-1.8283,-1.7839,-1.7591,-1.7591,-1.7591,-1.7591,-1.7591,-1.7591,-1.7591,-1.7591,-1.7591,-1.7852,-1.2861,-1.3016,-1.2996,-1.3559,-1.3798,-1.4021,-1.4446,-1.4533,-1.4689,-1.5251,-1.5408,-1.5604,-1.6166,-1.6741,-1.7356,-1.7996,-1.8558,0.0,0.0,0.0,0.0,0.0,0.0,0.0,0.0,0.0,0.0,0.0,0.0,0.0,0.0,0.0,0.0,-1.7199,-1.7199,-1.7199,-1.7199,-1.7238,-1.7565,-1.8153,-1.8153,-1.8427,-1.8885,-1.8388,-1.8453,-1.8963,-1.8963,-1.8989,-1.9068,-1.963,-1.9865,-1.9917,-2.0478,-2.0699,-2.0699,-2.0699,-2.0699,-2.0699,-2.0699,-2.0699,-2.0699,-2.0699,-2.0699,-2.0699,-2.0699,-2.0699,-2.0699,-2.0699,-2.0699,-2.0699,-2.0699,-2.0699,-2.0699,-2.0699,-2.0699,-2.0699,-2.0699,-2.0699,-2.0699,-2.0699,-2.0612,-2.0537,-2.0687,-2.0612,-2.0562,-2.0687,-2.0699,-2.0662,-2.0537,-2.0511,-2.0423,-2.0258,-2.0398,-2.0562,-2.0687,-2.0673,-2.062,-2.0581,-1.9496,-1.8845,-1.8845,-1.8806,-1.878,-1.878,-1.878,-1.878,-1.878,-1.878,-1.878,-1.878,-1.878,-1.8806,-1.1879,-1.2441,-1.286,-1.2714,-1.35,-1.4459,-1.5034,-1.5453,-1.5866,-1.6441,-1.6558,-1.6624,-1.6859,0.0,-1.7512,-1.8453,0.0,0.0,0.0,0.0,0.0,0.0,0.0,0.0,0.0,0.0,0.0,0.0,0.0,0.0,0.0,0.0,0.0,-1.7199,-1.7199,-1.7199,-1.7199,-1.7565,-1.7865,-1.81,-1.7721,-1.7643,-1.7839,-1.763,-1.7852,-1.8401,-1.8401,-1.8597,-1.895,-1.9551,-1.9799,-1.9865,-2.0451,-2.0699,-2.0699,-2.0699,-2.0662,-2.0587,-2.0587,-2.0498,-2.0385,-2.0385,-2.0473,-2.0562,-2.0423,-2.0473,-2.0587,-2.0587,-2.0587,-2.0587,-2.0687,-2.0699,-2.0699,-2.0699,-2.0699,-2.0687,-2.0587,-2.0587,-2.0537,-2.041,-2.0347,-2.0322,-2.0398,-2.0448,-2.0486,-2.0385,-2.0511,-2.0498,-2.0347,-2.0309,-2.0283,-2.0207,-2.0258,-2.0372,-2.0562,-2.0587,-2.0587,-2.0587,-1.988,-1.946,-1.946,-1.9107,-1.8911,-1.8911,-1.8911,-1.8911,-1.8911,-1.8911,-1.8911,-1.8911,-1.8911,-1.9107,-1.1501,-1.2169,-1.2849,-1.2622,-1.3588,-1.4825,-1.5591,-1.5957,-1.6375,-1.729,-1.7486,-1.7486,-1.7486,0.0,0.0,0.0,0.0,0.0,0.0,0.0,0.0,0.0,0.0,0.0,0.0,0.0,0.0,0.0,0.0,0.0,0.0,0.0,0.0,0.0,-1.7382,-1.7382,-1.7199,-1.78,-1.81,-1.81,-1.7852,-1.7643,-1.7486,-1.7486,-1.7708,-1.81,-1.81,-1.831,-1.8675,-1.9094,-1.9486,-1.9865,-2.0451,-2.0687,-2.0637,-2.0637,-2.0537,-2.041,-2.041,-2.0322,-2.0207,-2.0207,-2.0296,-2.0372,-2.0233,-2.0296,-2.041,-2.041,-2.041,-2.0423,-2.0524,-2.0624,-2.0687,-2.0662,-2.0637,-2.0587,-2.0423,-2.041,-2.0372,-2.0233,-2.0182,-2.0156,-2.0182,-2.0271,-2.0296,-2.0207,-2.0322,-2.0347,-2.0207,-2.0156,-2.0131,-2.0131,-2.0131,-2.022,-2.0398,-2.0461,-2.0461,-2.041,-2.0173,-2.0025,-2.0025,-1.9634,-1.9436,-1.946,-1.946,-1.946,-1.946,-1.946,-1.946,-1.946,-1.946,-1.9682,-1.2164,-1.244,-1.3045,-1.3647,-1.421,-1.493,-1.6114,-1.5931,-1.5996,-1.7735,-1.81,-1.8114,-1.8114,-1.8114,0.0,0.0,0.0,0.0,0.0,0.0,0.0,0.0,0.0,0.0,0.0,0.0,0.0,0.0,0.0,0.0,0.0,0.0,0.0,0.0,-1.7787,-1.7813,-1.7212,-1.7813,-1.8114,-1.8127,-1.8649,-1.8623,-1.8114,-1.8114,-1.8114,-1.81,-1.8114,-1.8114,-1.81,-1.8114,-1.878,-1.9865,-2.0451,-2.0599,-2.0486,-2.0486,-2.0372,-2.0207,-2.0207,-2.0207,-2.0207,-2.0207,-2.0207,-2.0207,-2.0207,-2.0207,-2.0207,-2.0207,-2.0207,-2.0207,-2.0207,-2.0448,-2.0662,-2.0537,-2.0486,-2.0436,-2.0233,-2.0207,-2.0207,-2.0207,-2.008,-2.0042,-2.0182,-2.008,-2.0042,-2.0182,-2.0207,-2.0207,-2.0207,-2.0093,-1.999,-1.999,-1.999,-2.0042,-2.0182,-2.0372,-2.041,-2.0207,-2.0372,-2.0486,-2.0486,-2.0486,-2.0562,-2.0687,-2.0699,-2.0699,-2.0699,-2.0699,-2.0699,-2.0699,-2.0699,-2.0699,-1.2059,-1.2125,-1.2518,-1.3539,-1.421,-1.493,-1.6114,-1.6258,-1.6506,-1.7826,-1.8401,-1.8662,-1.8662,-1.8662,0.0,0.0,0.0,0.0,0.0,0.0,0.0,0.0,0.0,0.0,0.0,0.0,0.0,0.0,0.0,0.0,0.0,0.0,0.0,0.0,-1.8205,-1.8192,-1.8388,-1.8989,-1.9303,-1.9303,-1.946,-1.9237,-1.8662,-1.8662,-1.8504,-1.8275,-1.8549,-1.8504,-1.8275,-1.8549,-1.9107,-1.9826,-1.9995,-2.0235,-2.0486,-2.0486,-2.0296,-2.0067,-2.0067,-2.0003,-1.9914,-1.9914,-1.9978,-2.0029,-1.9939,-1.9978,-2.0067,-2.0067,-2.0067,-2.0093,-2.0182,-2.0283,-2.0334,-2.0296,-2.0296,-2.0246,-2.008,-2.0067,-2.0029,-1.9939,-1.9888,-1.9862,-1.9914,-1.9952,-1.9978,-1.9939,-2.0003,-2.0029,-1.9939,-1.9888,-1.9862,-1.9862,-1.9862,-1.9926,-2.0042,-2.0118,-1.9952,-1.9526,-1.9552,-1.963,-1.9721,-2.0105,-2.0169,-1.994,-2.0334,-2.0612,-2.0699,-2.0699,-2.0699,-2.0699,-2.0699,-2.0699,-1.2197,-1.2314,-1.2654,-1.4046,-1.468,-1.5246,-1.6394,-1.7027,-1.7591,-1.8283,-1.8872,-1.9264,-1.9264,-1.9264,0.0,0.0,0.0,0.0,0.0,0.0,0.0,0.0,0.0,0.0,0.0,0.0,0.0,0.0,0.0,0.0,0.0,0.0,0.0,0.0,-1.8819,-1.8819,-1.8911,-1.9499,-1.9799,-1.9799,-1.9851,-1.9687,-1.9339,-1.9119,-1.8874,-1.8672,-1.8654,-1.8446,-1.815,-1.8413,-1.8689,-1.9019,-1.9473,-1.9789,-1.9963,-1.9978,-1.9823,-1.9565,-1.9344,-1.9344,-1.9474,-1.9474,-1.9682,-1.9901,-1.9837,-1.9862,-1.9926,-1.9926,-1.9926,-1.9952,-2.0016,-2.0042,-2.0042,-2.0105,-2.0105,-2.008,-1.9952,-1.9926,-1.9901,-1.9837,-1.9798,-1.9798,-1.9798,-1.9862,-1.9888,-1.9798,-1.9862,-1.9888,-1.9798,-1.9798,-1.9798,-1.9798,-1.9798,-1.9824,-1.9926,-1.9772,-1.9526,-1.9133,-1.8963,-1.8765,-1.8528,-1.9123,-1.9371,-1.9176,-1.9656,-1.9939,-2.0029,-2.0144,-2.0195,-2.0195,-2.0195,-2.0258,-1.2409,-1.2709,-1.311,-1.4854,-1.5465,-1.586,-1.6798,-1.7939,-1.88,-1.8875,0.0,-1.9826,-1.9865,-1.9878,0.0,0.0,0.0,0.0,0.0,0.0,0.0,0.0,0.0,0.0,0.0,0.0,0.0,0.0,0.0,0.0,0.0,0.0,0.0,-1.9081,-1.9538,-1.9564,-1.9068,-1.9616,-1.9854,0.0,-1.9939,-1.9965,-1.9927,-1.9434,-1.9206,-1.9157,-1.8563,-1.8147,-1.7884,-1.7889,-1.7797,-1.7801,-1.884,-1.9202,-1.912,-1.9109,-1.9028,-1.8854,-1.8282,-1.8494,-1.8987,-1.8934,-1.9317,-1.9798,-1.9747,-1.9747,-1.9798,-1.9798,-1.9798,-1.9798,-1.9798,-1.9798,-1.9824,-1.9952,-1.999,-1.9952,-1.9837,-1.9798,-1.9798,-1.9798,-1.9798,-1.9798,-1.9798,-1.9849,-1.9899,-1.9949,-1.9949,-1.9936,-1.9886,-1.9874,-1.9835,-1.9734,-1.9721,-1.9695,-1.9643,-1.9305,-1.9028,-1.8854,-1.8444,-1.7879,-1.7146,-1.7879,-1.8325,-1.839,-1.8762,-1.896,-1.896,-1.9237,-1.9368,-1.9394,-1.9394,-1.9617,-1.1774,-1.2054,-1.2522,-1.469,-1.5923,-1.6705,-1.7063,-1.7575,-1.8119,-1.8685,-1.9337,-1.9943,-2.0412,0.0,0.0,0.0,0.0,0.0,0.0,0.0,0.0,0.0,0.0,0.0,0.0,0.0,0.0,0.0,0.0,0.0,0.0,0.0,0.0,-2.0294,-1.9969,-1.9956,-2.0308,-2.0425,-2.0329,0.0,-1.9991,-1.9824,-1.9539,-1.9401,-1.9236,-1.903,-1.8571,-1.8154,-1.7729,-1.7753,-1.7743,-1.7718,-1.7984,-1.8253,-1.8496,-1.8472,-1.8417,-1.8294,-1.8147,-1.8494,-1.8934,-1.8456,-1.8977,-1.9721,-1.9291,-1.9474,-1.9798,-1.9798,-1.9798,-1.9798,-1.9798,-1.9798,-1.9811,-1.9837,-1.9837,-1.9837,-1.9811,-1.9798,-1.9798,-1.9798,-1.9798,-1.9798,-1.9798,-2.0175,-2.0654,-2.1054,-2.1129,-2.0966,-2.0566,-2.0503,-2.0168,-1.9273,-1.9172,-1.8975,-1.8525,-1.839,-1.8108,-1.7617,-1.7506,-1.7185,-1.6591,-1.7584,-1.7972,-1.7655,-1.8163,-1.854,-1.8753,-1.8975,-1.9146,-1.9239,-1.9356,-1.9447,-1.1381,-1.1799,-1.2319,-1.4615,-1.5758,-1.6459,-1.6938,-1.7149,-1.7425,-1.8122,-1.8828,-1.9506,0.0,0.0,0.0,0.0,0.0,0.0,0.0,0.0,0.0,0.0,0.0,0.0,0.0,0.0,0.0,0.0,0.0,0.0,0.0,-2.0175,-2.005,-2.0334,-1.9876,-1.9775,-2.008,-2.0093,-1.9901,-1.9514,-1.9293,-1.8898,-1.836,-1.8709,-1.8747,-1.8432,-1.77,-1.7468,-1.7556,-1.6832,-1.6648,-1.6811,-1.7063,-1.7311,-1.7505,-1.7687,-1.7727,-1.7617,-1.7363,-1.7667,-1.8093,-1.7754,-1.8271,-1.8924,-1.8643,-1.8975,-1.9422,-1.9422,-1.9592,-1.9798,-1.9798,-1.9798,-1.9798,-1.9798,-1.9798,-1.9798,-1.9798,-1.9798,-1.9798,-1.9798,-1.9798,-1.9886,-2.0189,-2.0434,-2.0733,-2.1162,-2.0844,-2.0711,-2.1039,-2.0616,-2.0025,-1.9359,-1.8947,-1.8635,-1.8444,-1.8171,-1.7762,-1.724,-1.6972,-1.6684,-1.6402,-1.6965,-1.7179,-1.6937,-1.7363,-1.7655,-1.7793,-1.8023,-1.8224,-1.8375,-1.8533,-1.8747,-1.08,-1.1602,-1.2345,-1.4494,-1.5367,-1.588,-1.6578,-1.6727,-1.6858,-1.7412,-1.8097,-1.8791,0.0,0.0,0.0,0.0,0.0,0.0,0.0,0.0,0.0,0.0,0.0,0.0,0.0,0.0,0.0,0.0,0.0,0.0,-2.0699,-2.0207,-1.994,-1.9965,-1.9565,-1.9342,-1.9368,-1.9342,-1.9172,-1.8881,-1.836,-1.776,-1.7134,-1.776,-1.7925,-1.766,-1.6781,-1.6696,-1.711,-1.5881,-1.5493,-1.5706,-1.6168,-1.6384,-1.6491,-1.6819,-1.6997,-1.7,-1.6563,-1.674,-1.7174,-1.7101,-1.7545,-1.8093,-1.7984,-1.8375,-1.8842,-1.8842,-1.9148,-1.9501,-1.9501,-1.9501,-1.9501,-1.9501,-1.9666,-1.9756,-1.9668,-1.9643,-1.9655,-1.9638,-1.9698,-1.9945,-2.0541,-2.0564,-2.0668,-2.1008,-2.0382,-2.0335,-2.1618,-2.0762,-1.9894,-1.9594,-1.8981,-1.8621,-1.8677,-1.813,-1.7651,-1.7316,-1.6869,-1.6612,-1.6612,-1.6539,-1.6498,-1.6498,-1.6662,-1.6733,-1.6761,-1.7004,-1.7217,-1.7412,-1.759,-1.7947,-0.9403,-1.099,-1.2706,-1.4009,-1.5024,-1.5767,-1.6066,-1.6413,-1.6722,0.0,-1.7374,0.0,0.0,0.0,0.0,0.0,0.0,0.0,0.0,0.0,0.0,0.0,0.0,0.0,0.0,0.0,0.0,0.0,0.0,0.0,-2.0673,-2.0016,-1.9696,-1.9824,-1.9317,-1.9119,-1.9239,-1.9119,-1.8827,-1.8387,-1.7678,-1.7162,-1.6874,-1.6948,-1.6976,-1.6944,-1.6801,-1.6447,-1.5927,-1.5801,-1.5533,-1.5177,-1.5217,-1.5446,-1.5844,-1.5864,-1.6161,-1.6488,-1.6431,-1.674,-1.7129,-1.6666,-1.7234,-1.8011,-1.7479,-1.7727,-1.8228,-1.8228,-1.8282,-1.8336,-1.8336,-1.8336,-1.8336,-1.8336,-1.9068,-1.9676,-1.9216,-1.9119,-1.9066,-1.8958,-1.9258,-1.972,-2.0271,-2.0534,-2.0914,-2.1594,-2.1233,-2.1369,-2.272,-2.174,-2.0576,-1.9602,-1.9404,-1.907,-1.8343,-1.7716,-1.7466,-1.7614,-1.7584,-1.7523,-1.7523,-1.7141,-1.6924,-1.6924,-1.6599,-1.6506,-1.6637,-1.6779,-1.6948,-1.7067,-1.7385,-1.7645,-0.931,-1.0792,-1.2263,-1.336,-1.4223,-1.4985,-1.5769,-1.6059,-1.6241,-1.6612,0.0,0.0,0.0,0.0,0.0,0.0,0.0,0.0,0.0,0.0,0.0,0.0,0.0,0.0,0.0,0.0,0.0,0.0,0.0,-1.9352,-1.9623,-1.882,-1.8387,-1.8437,-1.7934,-1.7714,-1.7847,-1.7989,-1.7854,-1.744,-1.6976,-1.6676,-1.6573,-1.6573,-1.6573,-1.657,-1.629,-1.5988,-1.5658,-1.5145,-1.4871,-1.4695,-1.4631,-1.4877,-1.5337,-1.5596,-1.6008,-1.6413,-1.6413,-1.6563,-1.6712,-1.6488,-1.6733,-1.7106,-1.6825,-1.714,-1.7589,-1.7589,-1.7836,-1.8093,-1.8093,-1.8311,-1.8476,-1.8445,-1.9048,-1.969,-1.9923,-1.9881,-1.9713,-1.9281,-1.9611,-2.006,-2.0459,-2.0523,-2.1008,-2.2347,-2.108,-2.0193,-2.0782,-2.0344,-1.9814,-1.9327,-1.9284,-1.9126,-1.8736,-1.8465,-1.8227,-1.7999,-1.7802,-1.7699,-1.7699,-1.7502,-1.7399,-1.7399,-1.6736,-1.6431,-1.6477,-1.6534,-1.6637,-1.6768,-1.6994,-1.7228,-0.924,-1.0434,-1.1452,-1.2526,-1.3451,-1.4348,-1.5253,0.0,-1.588,0.0,0.0,0.0,0.0,0.0,0.0,0.0,0.0,0.0,0.0,0.0,0.0,0.0,0.0,0.0,0.0,0.0,0.0,0.0,0.0,-1.8272,-1.8554,-1.7617,-1.7096,-1.7108,-1.6583,-1.6361,-1.653,-1.6852,-1.6897,-1.6705,-1.6488,-1.6413,-1.6413,-1.6413,-1.6413,-1.6392,-1.6039,-1.5741,-1.5474,-1.4767,-1.4359,-1.4195,-1.4139,-1.449,-1.5038,-1.539,-1.5877,-1.6413,-1.6413,-1.6413,-1.6413,-1.6413,-1.6413,-1.6413,-1.6413,-1.6694,-1.7,-1.7,-1.7335,-1.7689,-1.7784,-1.8069,-1.8378,-1.844,-1.8958,-1.961,-2.0065,-2.0056,-1.9815,-1.9336,-1.9636,-2.0062,-2.0247,-2.0172,-2.0549,-2.1865,-2.0376,-1.9108,-1.9108,-1.9108,-1.9108,-1.9108,-1.9108,-1.9108,-1.9108,-1.9108,-1.8911,-1.8476,-1.8195,-1.8071,-1.8071,-1.7926,-1.7864,-1.7864,-1.7129,-1.6663,-1.655,-1.6464,-1.6459,-1.6552,-1.6694,-1.6902,-0.8709,-0.9604,-1.0335,-1.1414,-1.2902,-1.4116,0.0,0.0,0.0,0.0,0.0,0.0,0.0,0.0,0.0,0.0,0.0,0.0,0.0,0.0,0.0,0.0,0.0,0.0,0.0,0.0,0.0,0.0,0.0,-1.6814,-1.789,-1.6825,-1.6238,-1.6341,-1.5789,-1.5564,-1.577,-1.6036,-1.6261,-1.6431,-1.6402,-1.6413,-1.6413,-1.6413,-1.6413,-1.6413,-1.6381,-1.5863,-1.5023,-1.4966,-1.4428,-1.3644,-1.3641,-1.421,-1.4997,-1.5028,-1.5608,-1.6413,-1.6413,-1.6413,-1.6413,-1.6413,-1.6413,-1.6413,-1.6413,-1.6431,-1.6431,-1.6431,-1.6459,-1.6582,-1.695,-1.7075,-1.7199,-1.7645,-1.8592,-1.9273,-1.8805,-1.8593,-1.85,-1.8468,-1.8843,-1.9166,-1.9189,-1.9177,-1.9198,-1.9297,-1.9198,-1.9108,-1.9108,-1.9108,-1.9108,-1.9108,-1.9108,-1.9108,-1.9108,-1.9108,-1.9088,-1.9056,-1.9046,-1.9036,-1.9036,-1.8611,-1.835,-1.835,-1.7864,-1.742,-1.6975,-1.6581,-1.6413,-1.6402,-1.6563,-1.6694,-0.7962,-0.9203,-1.0459,-1.055,-1.2058,-1.3521,-1.3574,-1.4449,-1.5338,0.0,0.0,0.0,0.0,0.0,0.0,0.0,0.0,0.0,0.0,0.0,0.0,0.0,0.0,0.0,0.0,0.0,0.0,0.0,0.0,0.0,-1.6671,-1.5997,-1.546,-1.5152,-1.486,-1.4866,-1.5247,-1.5337,-1.5581,-1.5967,-1.5967,-1.6122,-1.6413,-1.6413,-1.6247,-1.5967,-1.5967,-1.5577,-1.4976,-1.4676,-1.4179,-1.3597,-1.3597,-1.4003,-1.4593,-1.4894,-1.539,-1.598,-1.6309,-1.6413,-1.6413,-1.6413,-1.6413,-1.6413,-1.6413,-1.6413,-1.6413,-1.6413,-1.6413,-1.6477,-1.6903,-1.7234,-1.7637,-1.8413,-1.8898,-1.9156,-1.8965,-1.8865,-1.8859,-1.8859,-1.8994,-1.9108,-1.9108,-1.9108,-1.9108,-1.9108,-1.9108,-1.9108,-1.9108,-1.9108,-1.9108,-1.9108,-1.9108,-1.9108,-1.9108,-1.9108,-1.9108,-1.9108,-1.9108,-1.9108,-1.9108,-1.8942,-1.8859,-1.8859,-1.8382,-1.7781,-1.7017,-1.6851,-1.6653,-1.6413,-1.6459,-1.6534,-0.7506,-0.8753,-1.0219,-1.0462,-1.1467,-1.2563,-1.3385,0.0,-1.4475,0.0,0.0,0.0,0.0,0.0,0.0,0.0,0.0,0.0,0.0,0.0,0.0,0.0,0.0,0.0,0.0,0.0,0.0,0.0,0.0,0.0,-1.5445,-1.4994,-1.4559,-1.4222,-1.4104,-1.4293,-1.4759,-1.4769,-1.4997,-1.5463,-1.5608,-1.5846,-1.6184,-1.634,-1.6125,-1.568,-1.5525,-1.5194,-1.4738,-1.4438,-1.401,-1.3597,-1.3597,-1.3969,-1.4573,-1.4883,-1.539,-1.5998,-1.6299,-1.6413,-1.6413,-1.6413,-1.6413,-1.6413,-1.6413,-1.6413,-1.6413,-1.6413,-1.6413,-1.6519,-1.7089,-1.7688,-1.833,-1.8963,-1.9108,-1.9108,-1.9108,-1.9108,-1.9108,-1.9108,-1.9108,-1.9108,-1.9108,-1.9108,-1.9108,-1.9108,-1.9108,-1.9108,-1.9108,-1.9108,-1.9108,-1.9108,-1.9108,-1.9108,-1.9108,-1.9108,-1.9108,-1.9108,-1.9108,-1.9108,-1.9108,-1.9108,-1.9108,-1.9108,-1.8797,-1.8175,-1.7244,-1.7089,-1.6779,-1.6413,-1.6413,-1.6477,0.0,0.0,0.0,0.0,0.0,0.0,-1.3493,0.0,0.0,0.0,0.0,0.0,0.0,0.0,0.0,0.0,0.0,0.0,0.0,0.0,0.0,0.0,0.0,0.0,0.0,0.0,0.0,0.0,0.0,-1.377,-1.4374,-1.3905,-1.3597,-1.3597,-1.3597,-1.3828,-1.4283,-1.4283,-1.4521,-1.4987,-1.5452,-1.568,-1.5711,-1.6195,-1.6153,-1.5639,-1.5194,-1.4728,-1.4283,-1.4283,-1.4,-1.3597,-1.3597,-1.4179,-1.4976,-1.4987,-1.5577,-1.6392,-1.6402,-1.6413,-1.6413,-1.6413,-1.6413,-1.6413,-1.6413,-1.6413,-1.6413,-1.6413,-1.6413,-1.6591,-1.7471,-1.8402,-1.9108,-1.9108,-1.9108,-1.9108,-1.9108,-1.9108,-1.9108,-1.9108,-1.9108,-1.9108,-1.9108,-1.9108,-1.9108,-1.9108,-1.9108,-1.9108,-1.9108,-1.9108,-1.9108,-1.9108,-1.9108,-1.9108,-1.9108,-1.9108,-1.9108,-1.9108,-1.9108,-1.9108,-1.9108,-1.9108,-1.9108,-1.9108,-1.9108,-1.863,-1.7699,-1.7254,-1.68,-1.6413,-1.6413,-1.6477,-0.8049,0.0,0.0,0.0,0.0,0.0,0.0,0.0,0.0,0.0,0.0,0.0,0.0,0.0,0.0,0.0,0.0,0.0,0.0,0.0,0.0,0.0,0.0,0.0,0.0,0.0,0.0,0.0,-1.4245,-1.4231,-1.4396,-1.3905,-1.3597,-1.3597,-1.3597,-1.3659,-1.3783,-1.3783,-1.4035,-1.45,-1.4966,-1.5359,-1.5711,-1.6195,-1.5977,-1.5183,-1.5059,-1.4542,-1.3783,-1.3783,-1.3734,-1.3597,-1.3597,-1.3983,-1.4542,-1.4873,-1.537,-1.5929,-1.6288,-1.6413,-1.6413,-1.6413,-1.6413,-1.6413,-1.6413,-1.6413,-1.6413,-1.6413,-1.6413,-1.6591,-1.7471,-1.8402,-1.9108,-1.9108,-1.9108,-1.9108,-1.9108,-1.9108,-1.9108,-1.9108,-1.9108,-1.9108,-1.9108,-1.9108,-1.9108,-1.9108,-1.9108,-1.9108,-1.9108,-1.9108,-1.9108,-1.9108,-1.9108,-1.9108,-1.9108,-1.9108,-1.9108,-1.9108,-1.9108,-1.9108,-1.9108,-1.9108,-1.9108,-1.9108,-1.9108,-1.863,-1.7699,-1.7575,-1.714,-1.6413,-1.6506,-1.6552,-0.875,-0.9416,-1.0219,0.0,0.0,0.0,0.0,-1.1738,0.0,0.0,0.0,0.0,0.0,0.0,0.0,0.0,0.0,0.0,0.0,0.0,0.0,0.0,0.0,0.0,0.0,0.0,0.0,-1.4048,-1.4069,-1.4069,-1.4069,-1.3776,-1.3597,-1.3597,-1.3597,-1.3597,-1.3597,-1.3597,-1.3731,-1.4024,-1.4687,-1.5142,-1.5421,-1.6112,-1.5877,-1.4997,-1.4997,-1.4469,-1.3597,-1.3597,-1.3597,-1.3597,-1.3597,-1.39,-1.4366,-1.4831,-1.5297,-1.5753,-1.6247,-1.6413,-1.6413,-1.6413,-1.6413,-1.6413,-1.6413,-1.6413,-1.6413,-1.6413,-1.6653,-1.7067,-1.7564,-1.8402,-1.9108,-1.9108,-1.9108,-1.9108,-1.9108,-1.9108,-1.9108,-1.9108,-1.9108,-1.9108,-1.9108,-1.9108,-1.9108,-1.9108,-1.9108,-1.9108,-1.9108,-1.9108,-1.9108,-1.9108,-1.9108,-1.9108,-1.9108,-1.9108,-1.9108,-1.9108,-1.9108,-1.9108,-1.9108,-1.9108,-1.9108,-1.9108,-1.9108,-1.863,-1.7699,-1.7699,-1.7234,-1.6413,-1.6477,-1.6534,-0.9617,-1.0119,-1.0996,0.0,0.0,0.0,-1.2385,-1.1709,-1.0984,0.0,0.0,0.0,0.0,0.0,0.0,0.0,0.0,0.0,0.0,0.0,0.0,0.0,0.0,0.0,0.0,-1.3651,-1.3658,-1.3597,-1.3597,-1.3597,-1.3597,-1.3597,-1.3597,-1.3597,-1.3597,-1.3597,-1.3597,-1.3597,-1.3597,-1.3607,-1.45,-1.4945,-1.5028,-1.5846,-1.5773,-1.4997,-1.4945,-1.4428,-1.3597,-1.3597,-1.3597,-1.3597,-1.3597,-1.39,-1.4366,-1.4831,-1.5297,-1.5753,-1.6247,-1.6413,-1.6413,-1.6413,-1.6413,-1.6413,-1.6413,-1.6413,-1.6413,-1.6413,-1.6995,-1.7637,-1.7688,-1.8361,-1.9046,-1.9088,-1.9108,-1.9108,-1.9108,-1.9108,-1.9108,-1.9108,-1.9108,-1.9108,-1.9108,-1.9108,-1.9108,-1.9108,-1.9108,-1.9108,-1.9108,-1.9108,-1.9108,-1.9108,-1.9108,-1.9108,-1.9108,-1.9108,-1.9108,-1.9108,-1.9108,-1.9108,-1.9108,-1.9108,-1.9108,-1.9108,-1.9056,-1.8578,-1.7699,-1.7657,-1.7182,-1.6413,-1.6431,-1.6402,-1.105,-1.1575,-1.1874,-1.1084,0.0,0.0,-1.049,-1.051,-1.0716,0.0,0.0,0.0,0.0,0.0,0.0,0.0,0.0,0.0,0.0,0.0,0.0,0.0,0.0,0.0,0.0,-1.4249,-1.4069,-1.3634,-1.3597,-1.3597,-1.3597,-1.3597,-1.3597,-1.3597,-1.3597,-1.3597,-1.3597,-1.3597,-1.3597,-1.3597,-1.4179,-1.4635,-1.5007,-1.5183,-1.5163,-1.4976,-1.4604,-1.4128,-1.3597,-1.3597,-1.3597,-1.3597,-1.3597,-1.39,-1.4366,-1.4831,-1.5297,-1.5753,-1.6247,-1.6413,-1.6413,-1.6413,-1.6413,-1.6413,-1.6413,-1.6413,-1.6413,-1.6413,-1.6767,-1.7234,-1.7606,-1.8123,-1.8642,-1.9015,-1.9108,-1.9108,-1.9108,-1.9108,-1.9108,-1.9108,-1.9108,-1.9108,-1.9108,-1.9108,-1.9108,-1.9108,-1.9108,-1.9108,-1.9108,-1.9108,-1.9108,-1.9108,-1.9108,-1.9108,-1.9108,-1.9108,-1.9108,-1.9108,-1.9108,-1.9108,-1.9108,-1.9108,-1.9108,-1.9108,-1.8735,-1.8257,-1.7699,-1.7327,-1.6872,-1.6413,-1.6506,-1.6506,-1.1831,-1.2087,-1.2318,-1.1487,0.0,0.0,0.0,0.0,0.0,0.0,0.0,0.0,0.0,0.0,0.0,0.0,0.0,0.0,0.0,0.0,0.0,0.0,0.0,0.0,0.0,-1.3341,-1.3325,-1.3258,-1.3462,-1.3597,-1.3597,-1.3597,-1.3597,-1.3597,-1.3597,-1.3597,-1.3597,-1.3597,-1.3597,-1.3597,-1.4086,-1.4552,-1.4997,-1.4997,-1.4997,-1.4976,-1.4511,-1.402,-1.3597,-1.3597,-1.3597,-1.3597,-1.3597,-1.3731,-1.4045,-1.4738,-1.5142,-1.5442,-1.6174,-1.6413,-1.6413,-1.6413,-1.6413,-1.6413,-1.6413,-1.6413,-1.6413,-1.6413,-1.6694,-1.712,-1.7585,-1.8061,-1.8528,-1.8994,-1.9108,-1.9108,-1.9108,-1.9108,-1.9108,-1.9108,-1.9108,-1.9108,-1.9108,-1.9108,-1.9108,-1.9108,-1.9108,-1.9108,-1.9108,-1.9108,-1.9108,-1.9108,-1.9108,-1.9108,-1.9108,-1.9108,-1.9108,-1.9108,-1.9108,-1.9108,-1.9108,-1.9108,-1.9108,-1.9108,-1.888,-1.8402,-1.7699,-1.7471,-1.7006,-1.6413,-1.6477,-1.6459,0.0,0.0,0.0,0.0,0.0,-1.1006,0.0,0.0,0.0,0.0,0.0,0.0,0.0,0.0,0.0,0.0,0.0,0.0,0.0,0.0,0.0,0.0,0.0,0.0,0.0,-1.2068,-1.2245,-1.2762,-1.2967,-1.3183,-1.3442,-1.3462,-1.3504,-1.3597,-1.3597,-1.3597,-1.3597,-1.3597,-1.3597,-1.3597,-1.3969,-1.4469,-1.4987,-1.4811,-1.4831,-1.4966,-1.4417,-1.3962,-1.3597,-1.3597,-1.3597,-1.3597,-1.3597,-1.3597,-1.37,-1.4656,-1.4997,-1.5132,-1.6053,-1.6413,-1.6413,-1.6413,-1.6413,-1.6413,-1.6413,-1.6413,-1.6413,-1.6413,-1.6632,-1.7006,-1.7564,-1.7988,-1.8392,-1.8973,-1.9108,-1.9108,-1.9108,-1.9108,-1.9108,-1.9108,-1.9108,-1.9108,-1.9108,-1.9108,-1.9108,-1.9108,-1.9108,-1.9108,-1.9108,-1.9108,-1.9108,-1.9108,-1.9108,-1.9108,-1.9108,-1.9108,-1.9108,-1.9108,-1.9108,-1.9108,-1.9108,-1.9108,-1.9108,-1.9108,-1.9108,-1.863,-1.7699,-1.7699,-1.7234,-1.6413,-1.6413,-1.6413,0.0,0.0,0.0,0.0,-1.2009,0.0,0.0,0.0,0.0,0.0,0.0,0.0,0.0,0.0,0.0,0.0,0.0,0.0,0.0,0.0,0.0,0.0,0.0,0.0,0.0,0.0,-1.1426,-1.2296,-1.1654,-1.1727,-1.2915,-1.2977,-1.3163,-1.3576,-1.3597,-1.3597,-1.3597,-1.3597,-1.3597,-1.3597,-1.3638,-1.4148,-1.4976,-1.4148,-1.4221,-1.4945,-1.4051,-1.3638,-1.3597,-1.3597,-1.3597,-1.3597,-1.3597,-1.3597,-1.37,-1.4656,-1.4997,-1.5132,-1.6053,-1.6413,-1.6413,-1.6413,-1.6413,-1.6413,-1.6413,-1.6413,-1.6413,-1.6413,-1.6444,-1.6653,-1.7482,-1.774,-1.7988,-1.8901,-1.9108,-1.9108,-1.9108,-1.9108,-1.9108,-1.9108,-1.9108,-1.9108,-1.9108,-1.9108,-1.9108,-1.9108,-1.9108,-1.9108,-1.9108,-1.9108,-1.9108,-1.9108,-1.9108,-1.9108,-1.9108,-1.9108,-1.9108,-1.9108,-1.9108,-1.9108,-1.9108,-1.9108,-1.9108,-1.9108,-1.9108,-1.863,-1.7699,-1.7699,-1.7234,-1.6413,-1.6413,-1.6413,0.0,0.0,0.0,0.0,0.0,0.0,-0.981,0.0,-0.9736,0.0,0.0,0.0,0.0,0.0,0.0,0.0,0.0,0.0,0.0,0.0,0.0,0.0,0.0,0.0,0.0,0.0,0.0,0.0,0.0,-1.1262,-1.2089,-1.2637,-1.2987,-1.3183,-1.3452,-1.3597,-1.3597,-1.3597,-1.3597,-1.361,-1.3318,-1.3814,-1.4956,-1.3765,-1.3845,-1.4945,-1.4014,-1.3597,-1.3597,-1.3597,-1.3597,-1.3597,-1.3597,-1.3597,-1.37,-1.4656,-1.4997,-1.5132,-1.6053,-1.6413,-1.6413,-1.6413,-1.6413,-1.6413,-1.6413,-1.6413,-1.6413,-1.6413,-1.657,-1.6882,-1.7533,-1.7884,-1.8268,-1.8953,-1.9108,-1.9108,-1.9108,-1.9108,-1.9108,-1.9108,-1.9108,-1.9108,-1.9108,-1.9108,-1.9108,-1.9108,-1.9108,-1.9108,-1.9108,-1.9108,-1.9108,-1.9108,-1.9108,-1.9108,-1.9108,-1.9108,-1.9108,-1.9108,-1.9108,-1.9108,-1.9108,-1.9108,-1.9108,-1.9108,-1.9108,-1.8787,-1.8112,-1.7823,-1.7368,-1.6727,-1.6498,-1.6413,-1.3019,0.0,0.0,0.0,0.0,0.0,0.0,0.0,0.0,0.0,0.0,0.0,0.0,0.0,0.0,0.0,0.0,0.0,0.0,0.0,0.0,0.0,0.0,0.0,0.0,0.0,0.0,0.0,0.0,0.0,-1.1354,-1.213,-1.2646,-1.2894,-1.3359,-1.3597,-1.3597,-1.3597,-1.3597,-1.361,-1.3256,-1.369,-1.4769,-1.3607,-1.371,-1.4759,-1.3962,-1.3597,-1.3597,-1.3597,-1.3597,-1.3597,-1.3597,-1.3669,-1.3876,-1.4707,-1.4997,-1.5132,-1.6053,-1.6413,-1.6413,-1.6413,-1.6413,-1.6413,-1.6413,-1.6413,-1.6413,-1.6413,-1.6694,-1.712,-1.7585,-1.8061,-1.8528,-1.8994,-1.9108,-1.9108,-1.9108,-1.9108,-1.9108,-1.9108,-1.9108,-1.9108,-1.9108,-1.9108,-1.9108,-1.9108,-1.9108,-1.9108,-1.9108,-1.9108,-1.9108,-1.9108,-1.9108,-1.9108,-1.9108,-1.9108,-1.9108,-1.9108,-1.9108,-1.9108,-1.9108,-1.9108,-1.9108,-1.9108,-1.9108,-1.888,-1.8414,-1.8061,-1.7575,-1.6996,-1.6581,-1.6413,0.0,0.0,0.0,-1.0788,0.0,0.0,0.0,0.0,-1.0293,0.0,0.0,0.0,0.0,0.0,0.0,0.0,0.0,0.0,0.0,0.0,0.0,0.0,0.0,0.0,0.0,0.0,0.0,0.0,0.0,0.0,-1.0828,-1.1375,-1.2037,-1.2874,-1.3359,-1.3597,-1.3597,-1.3597,-1.3597,-1.3597,-1.3576,-1.3834,-1.4314,-1.3817,-1.3859,-1.4304,-1.3803,-1.3597,-1.3597,-1.3597,-1.3597,-1.3597,-1.3597,-1.3865,-1.4345,-1.4821,-1.4997,-1.5132,-1.6053,-1.6413,-1.6413,-1.6413,-1.6413,-1.6413,-1.6413,-1.6413,-1.6413,-1.6413,-1.6694,-1.712,-1.7585,-1.8061,-1.8528,-1.8994,-1.9108,-1.9108,-1.9108,-1.9108,-1.9108,-1.9108,-1.9108,-1.9108,-1.9108,-1.9108,-1.9108,-1.9108,-1.9108,-1.9108,-1.9108,-1.9108,-1.9108,-1.9108,-1.9108,-1.9108,-1.9108,-1.9108,-1.9108,-1.9108,-1.9108,-1.9108,-1.9108,-1.9108,-1.9108,-1.9108,-1.9108,-1.888,-1.8414,-1.8361,-1.7905,-1.6996,-1.6581,-1.6413,0.0,0.0,-1.3289,-1.1923,0.0,0.0,0.0,0.0,0.0,0.0,0.0,0.0,0.0,0.0,0.0,0.0,0.0,0.0,0.0,0.0,0.0,0.0,0.0,0.0,0.0,0.0,0.0,0.0,-0.9767,0.0,0.0,-1.1477,-1.2193,-1.2504,-1.2927,-1.3287,-1.3597,-1.3597,-1.3597,-1.361,-1.3287,-1.3558,-1.4283,-1.3483,-1.3555,-1.4283,-1.3793,-1.3597,-1.3597,-1.3597,-1.3597,-1.3597,-1.3597,-1.39,-1.4366,-1.4831,-1.5194,-1.5546,-1.6195,-1.6413,-1.6413,-1.6413,-1.6413,-1.6413,-1.6413,-1.6413,-1.6475,-1.6736,-1.712,-1.7575,-1.804,-1.8495,-1.8911,-1.9067,-1.9108,-1.9108,-1.9108,-1.9108,-1.9108,-1.9108,-1.9108,-1.9108,-1.9108,-1.9108,-1.9108,-1.9108,-1.8568,-1.8257,-1.8497,-1.8517,-1.8548,-1.8642,-1.8922,-1.9108,-1.9108,-1.9108,-1.9108,-1.9108,-1.9108,-1.9108,-1.9108,-1.9108,-1.9108,-1.9108,-1.9108,-1.9025,-1.887,-1.8237,-1.7761,-1.7451,-1.6726,-1.6413,-1.3267,-1.3372,0.0,-1.2307,-1.1954,0.0,-1.1045,0.0,0.0,0.0,0.0,0.0,0.0,0.0,0.0,0.0,0.0,0.0,0.0,0.0,0.0,0.0,0.0,0.0,0.0,0.0,-0.9691,-1.0159,-0.9764,0.0,0.0,0.0,-1.2027,-1.2504,-1.275,-1.3121,-1.361,-1.3597,-1.3514,-1.3349,-1.3204,-1.3369,-1.3796,-1.3338,-1.3473,-1.402,-1.3721,-1.3597,-1.3597,-1.3597,-1.3597,-1.3597,-1.3597,-1.4003,-1.4593,-1.4883,-1.539,-1.598,-1.6309,-1.6413,-1.6413,-1.6413,-1.6413,-1.6413,-1.6413,-1.6487,-1.6674,-1.6934,-1.7451,-1.803,-1.8309,-1.8756,-1.9108,-1.9108,-1.9108,-1.9108,-1.9108,-1.8973,-1.8911,-1.9077,-1.8973,-1.8911,-1.9077,-1.8963,-1.8859,-1.8859,-1.8299,-1.7895,-1.8009,-1.803,-1.8112,-1.8383,-1.8683,-1.8922,-1.9088,-1.9108,-1.9108,-1.9108,-1.9108,-1.9108,-1.9108,-1.9108,-1.9108,-1.9108,-1.9108,-1.9108,-1.9108,-1.8485,-1.8019,-1.7688,-1.714,-1.6684]},{"header":{"parameterUnit":"m.s-1","parameterCategory":1,"la1":30.6,"la2":29.2853,"lo1":-89.7004,"lo2":-87.6739,"dy":0.0162,"dx":0.0183,"nx":112,"ny":82,"refTime":"2026-03-04T12:00:00:Z","depth":0,"parameterNumber":3,"parameterNumberName":"V-component_of_WINDS"},"data":[0.0,0.0,0.0,0.0,0.0,0.0,0.0,0.0,0.0,0.0,0.0,0.0,0.0,0.0,0.0,0.0,0.0,0.0,0.0,0.0,0.0,0.0,0.0,0.0,0.0,0.0,0.0,0.0,0.0,0.0,0.0,0.0,0.0,0.0,0.0,0.0,0.0,0.0,0.0,0.0,0.0,0.0,0.0,0.0,0.0,0.0,0.0,0.0,0.0,0.0,0.0,0.0,0.0,0.0,0.0,0.0,0.0,0.0,0.0,0.0,0.0,0.0,0.0,0.0,0.0,0.0,0.0,0.0,0.0,0.0,0.0,0.0,0.0,0.0,0.0,0.0,0.0,0.0,0.0,0.0,0.0,0.0,0.0,0.0,0.0,0.0,0.0,0.0,0.0,0.0,0.0,0.7116,0.7959,0.8982,1.0195,0.9434,0.8483,0.7464,0.0,0.0,0.0,0.0,0.0,0.0,0.0,0.0,0.0,0.0,0.0,0.0,0.0,0.0,0.0,0.0,0.0,0.0,0.0,0.0,0.0,0.0,0.0,0.0,0.0,0.0,0.0,0.0,0.0,0.0,0.0,0.0,0.0,0.0,0.0,0.0,0.0,0.0,0.0,0.0,0.0,0.0,0.0,0.0,0.0,0.0,0.0,0.0,0.0,0.0,0.0,0.0,0.0,0.0,0.0,0.0,0.0,0.0,0.0,0.0,0.0,0.0,0.0,0.0,0.0,0.0,0.0,0.0,0.0,0.0,0.0,0.0,0.0,0.0,0.0,0.0,0.0,0.0,0.0,0.0,0.0,0.0,0.0,0.0,0.0,0.0,0.0,0.0,0.0,0.0,0.0,0.0,0.0,0.0,0.0,0.0,0.0,0.0,0.0,0.0,0.0,0.0,0.0,0.0,0.7016,0.8957,0.9009,0.9287,1.0224,0.9187,0.8174,0.7455,0.0,0.0,0.0,0.0,0.0,0.0,0.0,0.0,0.0,0.0,0.0,0.0,0.0,0.0,0.0,0.0,0.0,0.0,0.0,0.0,0.0,0.0,0.0,0.0,0.0,0.0,0.0,0.0,0.0,0.0,0.0,0.0,0.0,0.0,0.0,0.0,0.0,0.0,0.0,0.0,0.0,0.0,0.0,0.0,0.0,0.0,0.0,0.0,0.0,0.0,0.0,0.0,0.0,0.0,0.0,0.0,0.0,0.0,0.0,0.0,0.0,0.0,0.0,0.0,0.0,0.0,0.0,0.0,0.0,0.0,0.0,0.0,0.0,0.0,0.0,0.0,0.0,0.0,0.0,0.0,0.0,0.0,0.0,0.0,0.0,0.0,0.0,0.0,0.0,0.0,0.0,0.0,0.0,0.0,0.0,0.0,0.0,0.0,0.0,0.0,0.0,0.0,0.0,0.6813,0.7777,0.9767,0.9581,0.96,1.0244,0.9344,0.8396,0.7607,0.6735,0.0,0.0,0.0,0.0,0.0,0.0,0.0,0.0,0.0,0.0,0.0,0.0,0.0,0.0,0.0,0.0,0.0,0.0,0.0,0.0,0.0,0.0,0.0,0.0,0.0,0.0,0.0,0.0,0.0,0.0,0.0,0.0,0.0,0.0,0.0,0.0,0.0,0.0,0.0,0.0,0.0,0.0,0.0,0.0,0.0,0.0,0.0,0.0,0.0,0.0,0.0,0.0,0.0,0.0,0.0,0.0,0.0,0.0,0.0,0.0,0.0,0.0,0.0,0.0,0.0,0.0,0.0,0.0,0.0,0.0,0.0,0.0,0.0,0.0,0.0,0.0,0.0,0.0,0.0,0.0,0.0,0.0,0.0,0.0,0.0,0.0,0.0,0.0,0.0,0.0,0.0,0.0,0.0,0.0,0.0,0.0,0.0,0.0,0.0,0.0,0.0,0.0,0.809,0.8597,1.0136,0.999,0.9903,1.0273,0.9404,0.8519,0.7744,0.6309,0.0,0.0,0.0,0.0,0.0,0.0,0.0,0.0,0.0,0.0,0.0,0.0,0.0,0.0,0.0,0.0,0.0,0.0,0.0,0.0,0.0,0.0,0.0,0.0,0.0,0.0,0.0,0.0,0.0,0.0,0.0,0.0,0.0,0.0,0.0,0.0,0.0,0.0,0.0,0.0,0.0,0.0,0.0,0.0,0.0,0.0,0.0,0.0,0.0,0.0,0.0,0.0,0.0,0.0,0.0,0.0,0.0,0.0,0.0,0.0,0.0,0.0,0.0,0.0,0.0,0.0,0.0,0.0,0.0,0.0,0.0,0.0,0.0,0.0,0.0,0.0,0.0,0.0,0.0,0.0,0.0,0.0,0.0,0.0,0.0,0.0,0.0,0.0,0.0,0.0,0.0,0.0,0.0,0.0,0.0,0.0,0.0,0.0,0.0,0.0,0.0,0.0,0.8422,0.9268,1.0205,1.0273,1.0263,1.0303,0.9158,0.8223,0.7725,0.5741,0.0,0.0,0.0,0.0,0.0,0.0,0.0,0.0,0.0,0.0,0.0,0.0,0.0,0.0,0.0,0.0,0.0,0.0,0.0,0.0,0.0,0.0,0.0,0.0,0.0,0.0,0.0,0.0,0.0,0.0,0.0,0.0,0.0,0.0,0.0,0.0,0.0,0.0,0.0,0.0,0.0,0.0,0.0,0.0,0.0,0.0,0.0,0.0,0.0,0.0,0.0,0.0,0.0,0.0,0.0,0.0,0.0,0.0,0.0,0.0,0.0,0.0,0.0,0.0,0.0,0.0,0.0,0.0,0.0,0.0,0.0,0.0,0.0,0.0,0.0,0.0,0.0,0.0,0.0,0.0,0.0,0.0,0.0,0.0,0.0,0.0,0.0,0.0,0.0,0.0,0.0,0.0,0.0,0.0,0.0,0.0,0.0,0.0,0.0,0.0,0.0,0.0,0.8252,0.906,0.0,1.0303,1.0185,0.9884,0.9199,0.8359,0.7388,0.0,0.0,0.0,0.0,0.0,0.0,0.0,0.0,0.0,0.0,0.0,0.0,0.0,0.0,0.0,0.0,0.0,0.0,0.0,0.0,0.0,0.0,0.0,0.0,0.0,0.0,0.0,0.0,0.0,0.0,0.0,0.0,0.0,0.0,0.0,0.0,0.0,0.0,0.0,0.0,0.0,0.0,0.0,0.0,0.0,0.0,0.0,0.0,0.0,0.0,0.0,0.0,0.0,0.0,0.0,0.0,0.0,0.0,0.0,0.0,0.0,0.0,0.0,0.0,0.0,0.0,0.0,0.0,0.0,0.0,0.0,0.0,0.0,0.0,0.0,0.0,0.0,0.0,0.0,0.0,0.0,0.0,0.0,0.0,0.0,0.0,0.0,0.0,0.0,0.0,0.0,0.0,0.0,0.0,0.0,0.0,0.0,0.0,0.0,0.0,0.0,0.0,0.7675,0.8424,0.9124,0.0,1.0078,0.9742,0.8944,0.8523,0.7856,0.6812,0.0,0.0,0.0,0.0,0.0,0.0,0.0,0.0,0.0,0.0,0.0,0.0,0.0,0.0,0.0,0.0,0.0,0.0,0.0,0.0,0.0,0.0,0.0,0.0,0.0,0.0,0.0,0.0,0.0,0.0,0.0,0.0,0.0,0.0,0.0,0.0,0.0,0.0,0.0,0.0,0.0,0.0,0.0,0.0,0.0,0.0,0.0,0.0,0.0,0.0,0.0,0.0,0.0,0.0,0.0,0.0,0.0,0.0,0.0,0.0,0.0,0.0,0.0,0.0,0.0,0.0,0.0,0.0,0.0,0.0,0.0,0.0,0.0,0.0,0.0,0.0,0.0,0.0,0.0,0.0,0.0,0.0,0.0,0.0,0.0,0.0,0.0,0.0,0.0,0.0,0.0,0.0,0.0,0.0,0.0,0.0,0.0,0.0,0.0,0.0,0.0,0.0,0.8063,0.9036,0.9578,0.9594,0.9578,0.8963,0.7424,0.6995,0.6567,0.0,0.0,0.0,0.0,0.0,0.0,0.0,0.0,0.0,0.0,0.0,0.0,0.0,0.0,0.0,0.0,0.0,0.0,0.0,0.0,0.0,0.0,0.0,0.0,0.0,0.0,0.0,0.0,0.0,0.0,0.0,0.0,0.0,0.0,0.0,0.0,0.0,0.0,0.0,0.0,0.0,0.0,0.0,0.0,0.0,0.0,0.0,0.0,0.0,0.0,0.0,0.0,0.0,0.0,0.0,0.0,0.0,0.0,0.0,0.0,0.0,0.0,0.0,0.0,0.0,0.0,0.0,0.0,0.0,0.0,0.0,0.0,0.0,0.0,0.0,0.0,0.0,0.0,0.0,0.0,0.0,0.0,0.0,0.0,0.0,0.0,0.0,0.0,0.0,0.0,0.0,0.0,0.0,0.0,0.0,0.0,0.0,0.0,0.0,0.0,0.0,0.0,0.0,0.6993,0.7802,0.8371,0.8658,0.8674,0.8231,0.7114,0.692,0.6548,0.5772,0.0,0.0,0.0,0.0,0.0,0.0,0.0,0.0,0.0,0.0,0.0,0.0,0.0,0.0,0.0,0.0,0.0,0.0,0.0,0.0,0.0,0.0,0.0,0.0,0.0,0.0,0.0,0.0,0.0,0.0,0.0,0.0,0.0,0.0,0.0,0.0,0.0,0.0,0.0,0.0,0.0,0.0,0.0,0.0,0.0,0.0,0.0,0.0,0.0,0.0,0.0,0.0,0.0,0.0,0.0,0.0,0.0,0.0,0.0,0.0,0.0,0.0,0.0,0.0,0.0,0.0,0.0,0.0,0.0,0.0,0.0,0.0,0.0,0.0,0.0,0.0,0.0,0.0,0.0,0.0,0.0,0.0,0.0,0.0,0.0,0.0,0.0,0.0,0.0,0.0,0.0,0.0,0.0,0.0,0.0,0.0,0.0,0.0,0.0,0.0,0.0,0.0,0.6866,0.7566,0.7953,0.8014,0.8038,0.748,0.6058,0.6356,0.6124,0.4958,0.0,0.0,0.0,0.0,0.0,0.0,0.0,0.0,0.0,0.0,0.0,0.0,0.0,0.0,0.0,0.0,0.0,0.0,0.0,0.0,0.0,0.0,0.0,0.0,0.0,0.0,0.0,0.0,0.0,0.0,0.0,0.0,0.0,0.0,0.0,0.0,0.0,0.0,0.0,0.0,0.0,0.0,0.0,0.0,0.0,0.0,0.0,0.0,0.0,0.0,0.0,0.0,0.0,0.0,0.0,0.0,0.0,0.0,0.0,0.0,0.0,0.0,0.0,0.0,0.0,0.0,0.0,0.0,0.0,0.0,0.0,0.0,0.0,0.0,0.0,0.0,0.0,0.0,0.0,0.0,0.0,0.0,0.0,0.0,0.0,0.0,0.0,0.0,0.0,0.0,0.0,0.0,0.0,0.0,0.0,0.0,0.0,0.0,0.0,0.0,0.0,0.0,0.7241,0.7853,0.7969,0.7539,0.7548,0.6753,0.4707,0.5537,0.5513,0.4002,0.0,0.0,0.0,0.0,0.0,0.0,0.0,0.0,0.0,0.0,0.0,0.0,0.0,0.0,0.0,0.0,0.0,0.0,0.0,0.0,0.0,0.0,0.0,0.0,0.0,0.0,0.0,0.0,0.0,0.0,0.0,0.0,0.0,0.0,0.0,0.0,0.0,0.0,0.0,0.0,0.0,0.0,0.0,0.0,0.0,0.0,0.0,0.0,0.0,0.0,0.0,0.0,0.0,0.0,0.0,0.0,0.0,0.0,0.0,0.0,0.8552,0.0,0.0,0.0,0.0,0.0,0.0,0.0,0.0,0.0,0.0,0.0,0.0,0.0,0.0,0.0,0.0,0.0,0.0,0.0,0.0,0.0,0.0,0.0,0.0,0.0,0.0,0.0,0.0,0.0,0.0,0.0,0.0,0.0,0.0,0.0,0.0,0.0,0.0,0.0,0.0,0.0,0.6278,0.6694,0.6841,0.6751,0.6748,0.6225,0.4931,0.5421,0.5477,0.4712,0.465,0.0,0.0,0.0,0.0,0.0,0.0,0.0,0.0,0.0,0.0,0.0,0.0,0.0,0.0,0.0,0.0,0.0,0.0,0.0,0.0,0.0,0.0,0.0,0.0,0.0,0.0,0.0,0.0,0.0,0.0,0.0,0.0,0.0,0.0,0.0,0.0,0.0,0.0,0.0,0.0,0.0,0.0,0.0,0.0,0.0,0.0,0.0,0.0,0.0,0.0,0.0,0.0,0.0,0.0,0.0,0.0,0.0,0.0,0.0,0.0,0.9962,0.0,0.0,0.0,0.0,0.0,0.0,0.0,0.0,0.0,0.0,0.0,0.0,0.0,0.0,0.0,0.0,0.0,0.0,0.0,0.0,0.0,0.0,0.0,0.0,0.0,0.0,0.0,0.0,0.0,0.0,0.0,0.0,0.0,0.0,0.0,0.0,0.0,0.0,0.0,0.0,0.6501,0.6775,0.688,0.688,0.6908,0.648,0.5381,0.5806,0.5797,0.4996,0.5099,0.0,0.0,0.0,0.0,0.0,0.0,0.0,0.0,0.0,0.0,0.0,0.0,0.0,0.0,0.0,0.0,0.0,0.0,0.0,0.0,0.0,0.0,0.0,0.0,0.0,0.0,0.0,0.0,0.0,0.0,0.0,0.0,0.0,0.0,0.0,0.0,0.0,0.0,0.0,0.0,0.0,0.0,0.0,0.0,0.0,0.0,0.0,0.0,0.0,0.0,0.0,0.0,0.0,1.1477,1.196,1.1855,1.1921,1.2649,1.3798,1.1843,1.1953,1.3333,0.0,0.0,0.0,0.0,0.0,0.0,0.0,0.0,0.0,0.0,0.0,0.0,0.0,0.0,0.0,0.0,0.0,0.0,0.0,0.0,0.0,0.0,0.0,0.0,0.0,0.9128,0.8873,0.0,0.0,0.0,0.0,0.0,0.0,0.0,0.0,0.0,0.0,0.0,0.0,0.7088,0.7286,0.7355,0.7464,0.7439,0.6975,0.594,0.6311,0.6181,0.5193,0.558,0.5466,0.0,0.0,0.0,0.0,0.0,0.0,0.0,0.0,0.0,0.0,0.0,0.0,0.0,0.0,0.0,0.0,0.0,0.0,0.0,0.0,0.0,0.0,0.0,0.0,0.0,0.0,0.0,0.0,0.0,0.0,0.0,0.0,0.7557,0.948,0.0,0.0,0.0,0.0,0.0,0.0,0.0,0.0,0.0,0.0,0.0,0.0,0.0,1.047,1.2115,1.187,1.1912,1.2252,1.2662,1.2718,1.2485,1.2485,1.3011,1.3883,1.3572,0.0,1.374,1.2354,0.0,0.0,0.0,0.0,0.0,0.0,0.0,0.0,0.0,0.0,0.0,0.0,0.0,0.0,0.0,0.0,0.0,0.0,0.0,0.0,0.0,0.0,1.0379,0.9889,0.9821,0.9807,0.0,0.8478,0.7386,0.6828,0.0,0.0,0.0,0.0,0.0,0.0,0.0,0.0,0.7228,0.7387,0.7583,0.8114,0.7716,0.7144,0.654,0.6561,0.6344,0.5732,0.5872,0.6142,0.6521,0.5637,0.0,0.0,0.0,0.0,0.0,0.0,0.0,0.0,0.0,0.0,0.0,0.0,0.0,0.0,0.0,0.0,0.0,0.0,0.0,0.0,0.0,0.0,0.0,0.0,0.0,0.0,0.0,0.0,0.0,0.7661,0.8861,1.088,1.0002,0.9727,0.0,0.0,0.0,0.0,0.0,0.0,0.0,0.0,0.0,1.1676,1.1447,1.187,1.3033,1.3214,1.3214,1.3062,1.3884,1.4027,1.3572,1.3955,1.4326,1.4686,1.4686,1.4686,1.4571,1.3147,1.256,1.2425,0.0,0.0,0.0,0.0,1.1613,1.148,1.1593,1.1407,0.0,0.0,0.0,0.0,0.0,0.0,0.0,0.0,0.0,0.0,0.0,0.0,0.0,1.0912,1.0815,1.0937,1.1232,1.0406,0.9305,0.0,0.8354,0.8276,0.7297,0.0,0.0,0.0,0.0,0.7838,0.8646,0.8454,0.8491,0.9129,0.8622,0.803,0.7495,0.7442,0.7173,0.6574,0.6591,0.6598,0.6567,0.6343,0.5888,0.0,0.0,0.0,0.0,0.0,0.0,0.0,0.0,0.0,0.0,0.0,0.0,0.0,0.0,0.0,0.0,0.0,0.0,0.0,0.0,0.0,0.0,0.0,0.0,0.0,0.0,0.0,0.0,0.9188,1.0069,1.2127,1.1516,1.1261,0.0,0.0,0.0,0.0,0.0,0.0,1.1013,1.1856,1.2527,1.2864,1.2731,1.3049,1.3889,1.4166,1.4239,1.4136,1.5081,1.5356,1.5051,1.537,1.553,1.5515,1.537,1.5298,1.5211,1.387,1.36,1.387,1.2552,1.2345,1.2858,1.3353,1.3313,1.3053,1.3206,1.2963,1.2552,1.2409,0.0,1.1159,1.1491,0.0,0.0,0.0,0.0,1.2577,1.2399,1.2226,1.2007,1.1603,1.162,1.1812,1.212,1.1844,1.1162,0.0,0.987,0.9729,0.8461,0.0,0.0,0.0,0.0,0.9196,0.9758,0.9434,0.9393,1.0042,0.9529,0.8995,0.8593,0.8273,0.7885,0.7389,0.7237,0.6989,0.6601,0.6834,0.6428,0.5262,0.0,0.0,0.0,0.0,0.0,0.0,0.0,0.0,0.0,0.0,0.0,0.0,0.0,0.0,0.0,0.0,0.0,0.0,0.0,0.0,0.0,0.0,0.0,0.0,0.0,0.0,0.0,0.0,0.0,1.3105,1.3279,0.0,0.0,0.0,0.0,1.1576,1.2582,1.3003,1.234,1.2961,1.36,1.4181,1.3643,1.3948,1.5182,1.4602,1.4892,1.6068,1.6126,1.6474,1.704,1.6429,1.6139,1.6126,1.5544,1.5298,1.524,1.4529,1.4254,1.4183,1.3288,1.31,1.3401,1.3742,1.4027,1.4226,1.424,1.4211,1.4095,1.3513,1.3294,1.3313,1.3643,1.3541,0.0,0.0,1.3128,1.2561,1.3165,1.2862,1.2226,1.1638,1.1931,1.2209,1.1663,1.2202,1.2462,0.0,1.0456,0.987,0.9722,0.0,0.9148,0.9627,0.9301,0.922,0.9818,0.9873,1.0069,1.0596,1.0181,0.9846,0.9818,0.8757,0.8081,0.8054,0.7634,0.737,0.7349,0.6878,0.6828,0.7251,0.5988,0.0,0.0,0.0,0.0,0.0,0.0,0.0,0.0,0.0,0.0,0.0,0.0,0.0,0.0,0.0,0.0,0.0,0.0,0.0,0.0,0.0,0.0,0.0,0.0,0.0,0.0,0.0,0.0,1.4921,1.4136,0.0,1.421,1.4674,1.45,1.3382,1.4123,1.4152,1.3105,1.3643,1.4282,1.4921,1.4732,1.524,1.6518,1.63,1.6385,1.6835,1.6835,1.6982,1.72,1.6936,1.6835,1.6837,1.6634,1.6532,1.6501,1.6255,1.5675,1.4877,1.4126,1.4169,1.4631,1.476,1.4862,1.4877,1.4442,1.4297,1.4196,1.3598,1.3657,1.4007,1.4126,1.4385,1.4645,1.4774,1.4818,1.4703,1.4123,1.379,1.3355,1.2323,1.2238,1.234,1.2134,1.2048,1.1988,1.1983,1.2203,1.2162,1.1345,1.1193,1.1051,1.0687,1.0624,1.0688,1.0891,1.0556,1.052,1.1156,1.0659,1.0293,1.0293,0.9527,0.8876,0.8448,0.7864,0.7522,0.7522,0.7337,0.7149,0.6956,0.6828,0.6519,0.0,0.0,0.0,0.0,0.0,0.0,0.0,0.0,0.0,0.0,0.0,0.0,0.0,0.0,0.0,0.0,0.0,0.0,0.0,0.0,0.0,0.0,0.0,0.0,0.0,0.0,1.3674,1.5356,1.4834,1.4427,1.4631,1.524,1.5168,1.4079,1.4819,1.4935,1.4078,1.4616,1.524,1.5922,1.5936,1.6342,1.72,1.72,1.7316,1.7548,1.7548,1.765,1.7838,1.7635,1.7548,1.7534,1.7301,1.72,1.72,1.72,1.6706,1.5908,1.5443,1.5414,1.5602,1.5602,1.5472,1.524,1.479,1.4631,1.4573,1.418,1.4311,1.4631,1.4631,1.479,1.5008,1.524,1.5284,1.5153,1.4732,1.4326,1.3832,1.3195,1.2717,1.2412,1.2412,1.2091,1.1928,1.2325,1.2911,1.3062,1.228,1.246,1.2607,1.2243,1.1966,1.1896,1.21,1.1376,1.1002,1.1445,1.11,1.0842,1.0842,1.0475,0.986,0.8996,0.852,0.8069,0.7619,0.7822,0.7751,0.7344,0.7736,0.7459,0.647,0.0,0.0,0.0,0.0,0.0,0.0,0.0,0.0,0.0,0.0,0.0,0.0,0.0,0.0,0.0,0.0,0.0,0.0,0.0,0.0,0.0,0.0,0.0,1.2528,1.3558,1.4355,1.4413,1.5472,1.5487,1.3685,1.5183,1.5502,1.3656,1.4674,1.537,1.5356,1.5907,1.6547,1.7214,1.7243,1.7226,1.7258,1.7258,1.7592,1.823,1.823,1.8535,1.9087,1.8491,1.823,1.8201,1.7548,1.7258,1.7258,1.7258,1.7258,1.7258,1.7229,1.6808,1.6226,1.6226,1.5849,1.5327,1.5327,1.5312,1.5298,1.5298,1.5298,1.5298,1.5298,1.4848,1.4471,1.5124,1.4413,1.3758,1.5008,1.4413,1.3612,1.4195,1.3369,1.2443,1.2441,1.2412,1.2412,1.2412,1.2412,1.2412,1.2427,1.2989,1.3627,1.4195,1.3224,0.0,1.3321,1.2303,1.1544,1.1558,1.1533,1.1533,1.1533,1.1504,1.0962,0.9671,0.9584,0.8993,0.7684,0.8252,0.8603,0.8603,0.8603,0.7946,0.6626,0.0,0.0,0.0,0.0,0.0,0.0,0.0,0.0,0.0,0.0,0.0,0.0,0.0,0.0,0.0,0.0,0.0,0.0,0.0,0.0,0.0,1.3471,1.466,1.508,1.508,1.5544,1.6951,1.659,1.6198,1.6155,1.7069,1.7229,1.6227,1.6938,1.72,1.669,1.6837,1.7243,1.7911,1.794,1.8143,1.8579,1.8579,1.868,1.8854,1.8854,1.8941,1.9087,1.8927,1.8854,1.884,1.8666,1.8579,1.8579,1.8579,1.8579,1.8491,1.7563,1.7098,1.6938,1.6938,1.6518,1.595,1.595,1.566,1.5298,1.5298,1.5298,1.5298,1.5298,1.5167,1.5066,1.524,1.5052,1.4964,1.5748,1.5371,1.4819,1.4993,1.4384,1.3658,1.3221,1.2744,1.2412,1.2412,1.2412,1.2543,1.3032,1.3629,1.3948,1.3686,1.335,0.0,1.3393,1.2669,1.2337,1.2827,1.2437,1.2149,1.2149,1.1754,1.0962,0.9671,0.9133,0.8711,0.834,0.8508,0.8603,0.8603,0.8603,0.8172,0.0,0.0,0.0,0.0,0.0,0.0,0.0,0.0,0.0,0.0,0.0,0.0,0.0,0.0,0.0,0.0,0.0,0.0,0.0,0.0,0.0,0.0,1.4558,1.5719,1.6864,1.6487,1.6532,1.765,1.7098,1.6779,1.7154,1.7545,1.7621,1.7243,1.7563,1.7737,1.7621,1.7621,1.7911,1.8564,1.8579,1.8753,1.9101,1.9101,1.9101,1.9101,1.9101,1.9101,1.9101,1.9101,1.9101,0.0,1.9101,1.9101,1.9101,1.9101,1.9101,0.0,0.0,0.0,0.0,0.0,1.6936,1.6634,1.6634,1.6213,1.5675,1.5675,1.5516,1.5298,1.5298,1.5298,1.5298,1.5298,1.5298,1.5428,1.6037,1.5747,1.5356,1.5617,1.4964,1.4196,1.386,1.3279,1.2744,1.2456,0.0,0.0,1.296,1.3716,1.4369,1.4543,1.4122,1.3875,1.4166,1.3396,1.2974,1.335,1.2802,1.2412,1.2412,1.2076,0.0,0.0,0.0,0.9686,0.9405,0.9391,0.0,0.0,0.0,0.0,0.0,0.0,0.0,0.0,0.7307,0.7484,0.0,0.0,0.0,0.0,0.0,0.0,0.0,0.0,0.0,0.0,0.0,0.0,0.0,0.0,0.0,0.0,1.553,1.6226,1.7969,1.7751,1.7417,1.7417,1.7342,1.7345,1.7417,1.7417,1.7417,1.7417,1.7417,1.7661,1.8274,0.0,0.0,0.0,0.0,1.9101,1.9101,1.9101,1.9101,1.9101,1.9101,1.9101,1.9101,1.9101,1.9101,1.9101,1.9101,1.9101,1.9101,1.9101,1.9101,1.9101,1.9101,1.8782,1.8245,1.7635,1.7374,1.7316,1.7316,0.0,0.0,1.6314,1.595,1.5501,1.5501,1.5501,1.5501,1.5414,1.5399,1.5515,1.6052,1.5747,1.5443,1.6068,1.5269,1.4413,1.4413,1.3991,1.3423,1.2746,1.3092,1.3308,1.2717,1.35,1.4616,1.5821,1.5022,1.4544,1.5211,1.4253,1.3525,1.3612,0.0,0.0,1.2528,1.2514,1.1948,1.0589,1.1071,1.1129,1.0517,1.0575,1.0857,1.1373,1.1387,1.1056,1.0401,1.0401,1.016,0.9686,0.9017,0.9031,0.0,0.0,0.0,0.0,0.0,0.0,0.0,0.0,0.0,0.0,0.0,0.0,0.0,0.0,0.0,1.5893,1.6938,1.778,1.8158,1.8506,1.8738,1.8738,1.8303,1.8201,1.8695,1.8738,1.8738,1.8738,1.8738,1.8796,1.8927,1.8927,0.0,1.9101,1.9101,1.9101,1.9101,1.9101,1.9101,1.9101,0.0,0.0,1.9101,1.9101,1.9101,1.9101,1.9101,1.9101,1.9101,1.9101,1.9101,1.9101,1.9101,1.9029,1.8912,1.8782,1.8433,1.8013,1.8013,1.7577,1.7011,1.7011,1.6938,1.6837,1.6837,1.6837,0.0,1.6184,1.6023,1.6037,1.6169,1.5747,1.5443,1.6068,1.5631,1.5109,1.5109,1.5008,1.4718,1.4065,1.405,1.4079,1.3949,1.3731,1.3817,1.4558,1.4457,1.4544,1.5211,1.4602,1.434,1.4877,1.4326,1.3745,1.3249,1.322,1.2437,1.0618,1.0618,1.0643,1.0502,1.1017,1.1115,1.0701,1.0701,1.0392,0.9763,0.9763,0.9957,1.031,0.9691,0.9467,0.0,0.0,0.0,0.0,0.0,0.0,0.0,0.0,0.0,0.0,0.0,1.4413,1.4747,0.0,1.6458,1.7113,1.7748,1.8317,1.8608,1.8912,1.9101,1.9101,1.884,1.8782,1.9072,1.9101,1.9101,1.9101,1.9101,1.9101,1.9101,1.9101,1.9101,1.9101,1.9101,1.9101,1.9101,1.9101,1.9101,1.9101,1.9101,1.9101,1.9101,1.9101,1.9101,1.9101,1.9101,1.9101,1.9101,1.9101,1.9101,1.9101,1.9101,1.9101,1.9101,1.9101,1.8912,1.8651,1.8651,1.8245,1.7708,1.7708,1.7458,1.72,1.72,1.72,1.7142,1.6791,1.6459,1.6213,1.6213,1.5747,1.537,1.5675,1.5515,1.5298,1.5298,1.5298,1.5095,1.4428,1.4573,1.4602,1.3962,1.386,1.4065,1.4703,1.4515,1.4544,1.5211,1.5008,1.4935,1.5254,1.4703,1.4181,1.3889,1.3569,1.2987,1.2015,1.1644,1.1444,1.1444,1.1478,1.1344,1.1002,1.1002,1.1002,1.1002,1.1002,1.1332,1.1931,1.1649,1.1154,0.0,0.0,0.0,0.0,0.0,0.0,0.0,0.0,1.3326,1.3991,1.5327,1.6401,1.6401,1.6936,1.7621,1.8274,1.8357,1.8593,1.9217,1.9174,1.9101,1.9101,1.9101,1.9101,1.9101,1.9101,1.9101,1.9101,1.9101,1.9101,1.9101,1.9101,1.9101,1.9101,1.9101,1.9101,1.9101,1.9101,1.9101,1.9101,1.9101,1.9101,1.9101,1.9101,1.9101,1.9101,1.9101,1.9101,1.9101,1.9101,1.9101,1.9101,1.9101,1.9101,1.9101,1.9101,1.9101,1.9101,1.9101,1.8782,1.8357,1.8357,1.8013,1.7577,1.7577,1.7577,1.7548,1.7432,1.7011,1.6561,1.6429,1.5936,1.5472,1.5472,1.5385,1.5298,1.5298,1.5385,1.5269,1.4616,1.5022,1.5153,1.4121,1.4239,1.4631,1.5037,1.4558,1.4399,1.5196,1.5182,1.5153,1.5283,1.4819,1.4442,1.4312,1.3744,1.3394,1.3394,1.2902,1.2586,1.2586,1.2132,1.1867,1.1867,1.1867,1.2102,1.2586,1.2586,1.286,1.3394,1.3394,1.2841,1.4182,1.2829,1.1838,1.2827,1.3132,1.3598,0.0,0.0,1.598,1.6648,1.6938,1.7098,1.7098,1.765,1.8303,1.8898,1.8999,1.9232,1.9899,1.9478,1.9101,1.9101,1.9101,1.9101,1.9101,1.9101,1.9101,1.9101,1.9101,1.9101,1.9101,1.9101,1.9101,1.9101,1.9101,1.9101,1.9101,1.9101,1.9101,1.9101,1.9101,1.9101,1.9101,1.9101,1.9101,1.9101,1.9101,1.9101,1.9101,1.9101,1.9101,1.9101,1.9101,1.9101,1.9101,1.9101,1.9101,1.9101,1.9101,1.9058,1.8999,1.8999,1.8941,1.8883,1.8883,1.8883,1.8782,1.8245,1.8042,1.7853,1.7226,1.6605,1.6111,1.6111,1.5689,1.5298,1.5298,1.5718,1.5922,1.5313,1.5675,1.6037,1.5908,1.5502,1.5008,1.4486,1.3889,1.3947,1.5138,1.4776,1.4645,1.524,1.5225,1.495,1.4355,1.3744,1.3394,1.3394,1.3321,1.3292,1.3292,1.322,1.3189,1.3189,1.3189,1.322,1.3292,1.3292,1.3321,1.3394,1.3394,1.3321,1.6105,1.5124,1.4282,1.4456,1.4776,1.5241,1.6024,1.6503,1.6849,1.7125,1.7795,1.8201,1.7853,1.8303,1.8927,0.0,1.9348,1.9333,2.0016,1.9217,1.8709,1.9058,1.8796,1.8724,1.9072,1.9101,1.9101,1.9101,1.9101,1.9101,1.9101,1.9101,1.9275,1.9667,1.9682,1.9841,2.0204,1.9856,1.9856,2.0204,1.9841,1.987,2.0204,2.0204,2.0016,1.9682,1.9682,1.9464,1.9101,1.9101,1.9101,1.9101,1.9101,1.9101,1.9101,1.9101,1.9101,1.9101,1.9101,1.9101,1.9101,1.9101,1.9101,1.9101,1.9101,1.9101,1.9043,1.8796,1.8477,1.8143,1.7835,1.727,1.6675,1.63,1.6024,1.5718,1.537,1.5501,1.5602,1.5341,1.5792,1.6097,1.5733,1.5747,1.5718,1.5443,1.4892,1.4558,1.4703,1.4471,1.4282,1.4195,1.4515,1.4602,1.4312,1.4427,1.4514,1.4514,1.4137,1.3919,1.3919,1.3598,1.3394,1.3394,1.3394,1.3569,1.3919,1.3919,1.4108,1.45,1.4122,1.3919,1.6971,1.6459,1.5921,1.5849,1.6284,1.6748,1.6748,1.7258,1.7722,1.7722,1.8462,1.897,1.8535,1.868,1.9174,2.019,1.9508,1.9203,2.0204,1.9261,1.8608,1.9043,1.8724,1.8622,1.9058,1.9101,1.9101,1.9101,1.9101,1.9174,1.9362,1.9377,1.9682,2.032,2.0349,2.0553,2.1003,2.0567,2.0567,2.0988,2.0553,2.0582,2.1003,2.1003,2.0756,2.0349,2.0349,1.9986,1.9377,1.9377,1.9275,1.9101,1.9101,1.9101,1.9101,1.9101,1.9101,1.9101,1.9101,1.9101,1.9101,1.9101,1.9101,1.9101,1.9101,1.9101,1.9101,1.9101,1.8796,1.8448,1.8448,1.7951,1.7342,1.688,1.6619,1.6358,1.5922,1.5675,1.5544,1.5544,1.5777,1.5879,1.5588,1.5922,1.6213,1.6213,1.582,1.5428,1.5138,1.4935,1.4529,1.373,1.4036,1.4225,1.4065,1.466,1.5022,1.5022,1.4732,1.4573,1.4573,1.4166,1.3919,1.3919,1.3919,1.4136,1.4573,1.4573,1.4819,1.5283,1.479,1.4573,1.6226,1.5792,1.5617,1.6835,1.765,1.8143,1.8143,1.8608,1.9043,1.9043,1.9072,1.9101,1.9087,1.8608,1.884,2.0669,1.9435,1.8869,2.0712,1.987,1.9087,1.9101,1.9087,1.9087,0.0,1.9101,1.9101,1.9101,1.9101,1.9391,2.003,2.0074,2.0349,2.0944,2.0973,2.0973,2.1003,2.0973,2.0973,2.1003,2.0973,2.0973,2.1003,2.1003,2.0988,2.0973,2.0973,2.0625,2.0074,2.0074,1.9696,1.9101,1.9101,1.9101,1.9101,1.9101,1.9101,1.9101,1.9101,1.9101,1.9101,1.9101,1.9101,1.9101,1.9101,1.9101,1.9101,1.9101,1.9087,1.9072,1.9072,1.8622,1.8154,1.8143,1.765,1.7154,1.7156,1.6634,1.6168,1.6168,1.5718,1.5516,1.6082,1.6198,1.6213,1.6213,1.6168,1.6401,1.704,1.653,1.566,1.4399,1.4283,1.4065,1.3481,1.3977,1.4326,1.4326,1.4921,1.5269,1.5269,1.5254,1.524,1.524,1.524,1.524,1.5269,1.5269,1.5269,1.5298,1.5269,1.5269,1.6849,1.6721,1.6762,1.765,1.8042,1.8303,1.8709,1.8956,1.9101,1.9101,1.9101,1.9101,1.9101,1.8927,1.9159,2.0233,1.9508,1.9174,2.0248,1.9304,1.8651,1.9058,1.8753,0.0,0.0,0.0,0.0,1.913,1.9508,1.987,2.0088,2.0103,2.0582,2.1627,2.1656,2.1859,2.2258,2.1873,2.1873,2.2258,2.2258,2.2258,2.2258,2.2258,2.204,2.1656,2.1656,2.1293,2.0698,2.0698,2.0553,2.0364,2.0364,2.0364,2.0306,1.9914,1.9769,1.9696,1.9261,1.9101,1.9101,1.9101,1.9101,1.9101,1.9101,1.9101,1.9101,1.9101,1.9101,1.9101,1.9101,1.8956,1.8695,1.8303,1.8027,1.7751,1.7301,1.7026,1.6735,1.63,1.6039,1.5834,1.5631,1.5602,1.5733,1.6139,1.5849,1.5675,1.5907,1.5733,1.5428,1.5008,1.4964,1.4892,1.4674,1.4848,1.4964,1.4964,1.5182,1.5298,1.5298,1.5298,1.5298,1.5298,1.5298,1.5298,1.5298,1.5298,1.5298,1.5298,1.5298,1.5298,1.7432,1.7388,1.7417,1.8303,1.8521,1.8622,1.9014,1.9101,1.9043,1.8825,1.8782,1.8782,1.8782,1.8579,1.8796,1.9928,1.9362,1.9087,1.9986,1.9406,1.9029,1.9406,1.9304,1.9348,0.0,0.0,0.0,1.9188,1.9928,2.0422,2.0422,2.0654,2.1249,2.2294,2.2316,2.2504,2.2888,2.2519,2.2519,2.2888,2.2888,2.2888,2.2888,2.2888,2.2693,2.2316,2.2316,2.196,2.1351,2.1351,2.1206,2.1003,2.1003,2.1003,2.0944,2.0553,2.0422,2.0291,1.9406,1.9101,1.9101,1.9101,1.9101,1.9101,1.9101,1.9101,1.9101,1.9101,1.9101,1.9101,1.9101,1.9101,1.8999,1.8622,1.8521,1.8404,1.7969,1.7722,1.7432,1.7011,1.6721,1.6429,1.6037,1.5776,1.5675,1.5849,1.5718,1.5617,1.5617,1.5617,1.553,1.5312,1.5298,1.5298,1.5298,1.5501,1.5617,1.5617,1.5849,1.5979,1.5979,1.5979,1.5979,1.5979,1.5979,1.5979,1.5979,1.5979,1.5979,1.5979,1.5979,1.5849,1.7861,1.7792,1.7632,1.8817,1.9126,1.9145,1.9116,1.9087,1.8883,1.8256,1.8158,1.8143,0.0,0.0,1.7867,1.9696,1.9014,1.868,1.9885,2.0074,2.0103,0.0,0.0,0.0,0.0,0.0,0.0,1.9333,0.0,2.1046,2.1046,2.1641,2.2294,2.2873,2.2888,2.2888,2.2888,2.2888,2.2888,2.2888,2.2888,2.2888,2.2888,2.2888,2.2888,2.2888,2.2888,2.2577,2.2048,2.2048,2.167,2.109,2.109,2.109,2.109,2.1061,2.1046,2.0872,1.9624,1.9203,1.9188,1.9159,1.9159,1.9145,1.9116,1.9101,1.9101,1.9101,1.9101,1.9101,1.9101,1.9101,1.9101,1.9101,1.9101,1.9101,1.9101,1.8651,1.8245,1.8216,1.7664,1.72,1.72,1.6632,1.6024,1.5428,1.5821,1.6169,1.6213,1.6226,1.6023,1.5457,1.537,1.5341,1.5341,1.5863,1.6213,1.6213,1.6837,1.72,1.72,1.72,1.72,1.72,1.72,1.72,1.72,1.72,1.72,1.72,1.72,1.688,1.8064,1.8817,1.9339,1.9259,1.9557,1.9711,1.9217,1.8753,1.8245,1.7592,1.7444,1.7301,0.0,0.0,0.0,1.8608,1.8796,0.0,1.9304,1.9783,0.0,2.0103,0.0,2.1003,2.1003,2.1612,0.0,0.0,2.1278,2.1743,2.1743,2.1902,2.2294,2.2873,2.2888,2.2888,2.2888,2.2888,2.2888,2.2888,2.2888,2.2888,2.2888,2.2888,2.2888,2.2888,2.2888,2.2801,2.2678,2.2678,2.2577,2.2417,2.2417,2.2417,2.2359,2.1917,2.1743,2.1627,2.0799,2.0524,2.0436,1.9986,1.9841,1.9754,1.9261,1.9101,1.9101,1.9101,1.9101,1.9101,1.9101,1.9101,1.9101,1.9101,1.9101,1.9101,1.9101,1.8985,1.8738,1.8303,1.7664,1.72,1.72,1.6632,1.6155,1.5979,1.5718,1.5689,1.6139,1.6648,1.6895,1.6735,1.6271,1.5965,1.5965,1.6111,1.6213,1.6213,1.6837,1.72,1.72,1.72,1.72,1.72,1.72,1.72,1.72,1.72,1.72,1.72,1.72,1.7388,1.8322,1.9148,1.974,1.9397,1.9525,1.9572,1.8857,1.8448,1.794,1.6967,1.6748,1.6576,1.5922,1.688,1.7748,0.0,0.0,0.0,1.9101,1.9899,2.0494,0.0,2.1293,0.0,2.1823,2.2171,2.2229,0.0,2.2171,2.2294,2.2004,2.2251,2.2548,2.2888,2.2888,2.2888,2.2888,2.2888,2.2888,2.2888,2.2888,2.2888,2.2888,2.2888,2.2888,2.2888,0.0,2.2888,2.2888,2.2888,2.2888,2.2888,2.2888,2.2888,2.2859,2.2519,2.2388,2.233,2.1953,2.1823,2.1699,2.0785,2.0494,2.0422,2.0045,1.9754,1.9537,1.9537,1.9333,1.9101,1.9101,1.9101,1.9101,1.9101,1.9101,1.9101,1.9101,1.9101,1.8999,1.8666,1.8303,1.7954,1.7676,1.733,1.688,1.63,1.5922,1.5718,1.5806,1.6124,1.6474,1.6735,1.643,1.6329,1.6619,1.6648,1.6648,1.6648,1.6996,1.72,1.72,1.72,1.72,1.72,1.72,1.72,1.72,1.72,1.72,1.72,1.72,1.7226,1.8534,1.9103,1.9483,1.9272,1.9169,1.8947,1.8266,1.7967,1.754,1.6327,1.6082,1.5879,1.5182,1.6139,1.7069,1.7069,0.0,1.9043,1.9217,2.0175,2.0901,2.0988,2.204,2.2772,2.2772,2.2844,2.2888,2.2888,2.2888,2.2678,2.2149,2.262,2.2888,2.2888,2.2888,2.2888,2.2888,2.2888,2.2888,2.2888,2.2888,2.2888,2.2888,2.2888,2.2888,2.2888,0.0,0.0,2.2888,2.2888,2.2888,2.2888,2.2888,2.2888,2.2888,2.2888,2.2888,2.2888,2.2888,2.2888,2.2685,2.1525,2.1133,2.1119,2.1017,2.0625,2.0204,2.0117,1.9682,1.9217,1.9116,1.9101,1.9101,1.9101,1.9101,1.9101,1.9101,1.9101,1.9101,1.9101,1.9101,1.8927,1.8419,1.8259,1.7809,1.6632,1.6401,1.6139,1.5617,1.5399,1.5501,1.6024,1.6082,1.6329,1.6909,1.7026,1.7069,1.7069,1.7139,1.72,1.72,1.72,1.72,1.72,1.72,1.72,1.72,1.72,1.72,1.72,1.7113,1.6808,1.862,1.9181,1.9467,1.8993,1.854,1.812,1.7717,1.6849,0.0,1.5556,1.5457,1.511,1.3947,1.5183,1.6371,1.6371,1.749,1.8724,1.9783,2.0117,2.0436,0.0,2.1685,2.2164,2.2164,2.262,0.0,0.0,0.0,2.2844,2.2765,2.283,2.2888,2.2888,2.2888,2.2888,2.2888,2.2888,2.2888,2.2888,2.2888,2.2888,2.2888,2.2888,2.2888,2.2888,2.2888,0.0,2.2888,2.2888,2.2888,2.2888,2.2888,2.2888,2.2888,2.2888,2.2888,2.2888,2.2888,2.2888,2.2772,2.2062,2.1815,2.1714,2.1162,2.093,2.0741,2.0233,2.0016,1.9798,1.9246,1.9101,1.9101,1.9101,1.9101,1.9101,1.9101,1.9101,1.9101,1.9101,1.9101,1.9072,1.897,1.8535,1.8129,1.7896,1.7388,1.6996,1.6878,1.595,1.5341,1.5443,1.5457,1.5501,1.5617,1.6097,1.6371,1.6371,1.6895,1.72,1.72,1.72,1.72,1.72,1.72,1.72,1.72,1.72,1.72,1.72,1.6634,1.6619,1.7996,1.8461,1.8787,1.8464,1.7985,1.7437,1.6862,0.0,0.0,1.5123,1.5192,1.5008,1.4049,1.5153,1.6213,1.6213,1.704,1.8129,1.9406,1.958,1.9812,2.0465,2.1394,2.1989,0.0,2.2548,0.0,0.0,0.0,2.2888,2.2888,2.2888,2.2888,2.2888,2.2888,2.2888,2.2888,2.2888,2.2888,2.2888,2.2888,2.2888,2.2888,2.2888,2.2888,2.2888,2.2888,0.0,2.2888,2.2888,2.2888,2.2888,2.2888,2.2888,2.2888,2.2888,2.2888,2.2888,2.2888,2.2888,2.2844,2.2562,2.2461,2.2403,2.2084,2.1772,2.1452,2.1162,2.0843,2.0494,2.0175,2.0088,2.0088,2.0088,1.9841,1.9522,1.9174,1.9101,1.9101,1.9101,1.9101,1.9101,1.9101,1.8869,1.8564,1.8259,1.794,1.7592,1.7226,1.6965,1.653,1.5834,1.5486,1.5298,1.5298,1.5559,1.5718,1.5718,1.6023,1.6211,1.6211,1.6211,1.6211,1.6211,1.6211,1.6211,1.6211,1.6211,1.6211,1.6197,1.5878,1.5892,1.741,1.7601,1.7834,1.7865,1.7195,1.6408,1.5973,1.5641,0.0,1.4877,1.5071,1.5095,1.4413,1.524,1.6024,0.0,1.6692,1.765,1.8927,1.9217,1.9508,0.0,2.122,0.0,2.1801,0.0,0.0,0.0,0.0,0.0,2.2888,2.2888,2.2888,2.2888,2.2888,2.2888,2.2888,2.2888,2.2888,2.2888,2.2888,2.2888,2.2888,2.2888,2.2888,2.2888,2.2888,0.0,0.0,2.2888,2.2888,2.2888,2.2888,2.2888,2.2888,2.2888,2.2888,2.2888,2.2888,2.2888,2.2888,2.2888,2.2888,2.2888,2.2888,2.2577,2.2178,2.2033,2.1612,2.1177,2.1032,2.1003,2.1003,2.1003,2.064,2.0146,1.9624,1.9406,1.9304,1.9304,1.9203,1.9101,1.9101,1.9101,1.8941,1.8462,1.839,1.8201,1.7661,1.7937,1.7809,1.6733,1.6197,1.5921,1.5921,1.566,1.5486,1.5486,1.537,1.5298,1.5298,1.5298,1.5298,1.5298,1.5298,1.5298,1.5298,1.5298,1.5298,1.5298,1.5298,1.537,1.741,1.7036,1.6785,1.733,1.5921,1.4579,1.53,0.0,1.45,1.4746,1.5071,1.5095,1.4413,1.4892,0.0,0.0,0.0,1.765,1.8927,1.9624,2.003,2.0088,0.0,0.0,2.1148,0.0,0.0,0.0,0.0,0.0,2.2888,2.2888,2.2888,2.2888,2.2888,2.2888,2.2888,2.2888,2.2888,2.2888,2.2888,2.2888,2.2888,2.2888,2.2888,2.2888,2.2888,0.0,0.0,2.2888,2.2888,2.2888,2.2888,2.2888,2.2888,2.2888,2.2888,2.2888,2.2888,2.2888,2.2888,2.2888,2.2888,2.2888,2.2888,2.2859,2.2707,2.2149,2.196,2.1757,2.1148,2.1003,2.1003,2.1003,2.0959,2.0901,2.0843,2.0393,2.0016,2.0016,1.9522,1.9101,1.9101,1.9101,1.9087,1.9029,1.9029,1.8999,1.8927,1.8506,1.8158,1.8042,1.7969,1.794,1.794,1.6822,1.6126,1.6126,1.5602,1.5298,1.5298,1.5298,1.5298,1.5298,1.5298,1.5298,1.5298,1.5298,1.5298,1.5298,1.5298,1.5588,1.5977,1.6183,1.6475,1.6396,1.5462,1.4677,1.5025,1.4691,1.4349,1.4477,1.4932,1.5211,1.495,1.5124,1.5414,1.5776,1.595,0.0,1.7243,1.7592,1.7911,1.8317,1.9841,0.0,0.0,0.0,0.0,0.0,0.0,0.0,2.2888,2.2888,2.2888,2.2888,2.2888,2.2888,2.2888,2.2888,2.2888,2.2888,2.2888,2.2888,2.2888,2.2888,2.2888,2.2888,2.2888,0.0,0.0,2.2888,2.2888,2.2888,2.2888,2.2888,2.2888,2.2888,2.2888,2.2888,2.2888,2.2888,2.2888,2.2888,2.2888,2.2888,2.2888,2.2888,2.2844,2.262,2.2533,2.2475,2.2214,2.2142,2.204,2.1685,2.1598,2.1481,2.109,2.0799,2.0538,2.0175,1.9885,1.958,1.9174,1.9101,1.9101,1.9101,1.9101,1.9101,1.9101,1.9246,1.9348,1.9348,1.8303,1.7606,1.7606,1.7113,1.6808,1.6808,1.659,1.6429,1.6429,1.6429,1.6429,1.6429,1.6037,1.6037,1.6429,1.6037,1.6037,1.6429,1.6429,1.6559,1.5198,1.5567,1.5969,1.5756,1.5185,1.4664,1.4664,1.4472,1.43,1.43,1.4839,1.5298,1.5298,1.5298,1.5428,1.5849,1.5573,1.5573,1.6371,1.6677,1.704,0.0,0.0,0.0,0.0,0.0,0.0,0.0,0.0,0.0,0.0,2.3004,2.2888,2.2888,2.2888,2.2888,2.2888,2.2888,2.2888,2.2888,2.3113,2.32,2.32,2.3389,2.3351,2.32,0.0,0.0,0.0,2.2888,2.2888,2.2888,2.2888,2.2888,2.2888,2.2888,2.2888,2.2888,2.2888,2.2888,2.2888,2.2888,2.2888,2.2888,2.2888,2.2888,2.2888,2.2888,2.2888,2.2888,2.2888,2.2888,2.2786,2.2359,2.228,2.2149,2.167,2.1423,2.1162,2.0741,2.0494,2.0161,1.9508,1.9406,1.9333,1.913,1.9101,1.9101,1.9101,1.9508,1.9798,1.9798,1.8579,1.7853,1.8042,1.7722,1.7505,1.7505,1.7316,1.72,1.72,1.72,1.72,1.72,1.675,1.6735,1.72,1.6735,1.675,1.72,1.72,1.7316,1.5563,1.5311,1.5035,1.5567,1.4896,1.4116,1.4116,1.4214,1.43,1.43,1.4839,1.5298,1.5298,1.5298,1.5298,1.5312,1.5298,0.0,1.7011,1.7766,1.8404,0.0,0.0,0.0,0.0,0.0,0.0,0.0,0.0,0.0,0.0,2.3258,2.2888,2.2888,2.2888,2.2888,2.2888,2.2888,2.2888,2.2902,2.3572,2.3876,2.3905,2.4505,2.4447,0.0,0.0,0.0,0.0,2.2888,2.2888,2.2888,2.2888,2.2888,2.2888,2.2888,2.2888,2.2888,2.2888,2.2888,2.2888,2.2888,2.2888,2.2888,2.2888,2.2888,2.2888,2.2888,2.2888,2.2888,2.2888,2.2888,2.2888,2.2888,2.2888,2.2888,2.2873,2.2403,2.1989,2.1975,2.1438,2.0799,2.019,2.0088,1.987,1.9203,1.9101,1.9101,1.9101,1.9116,1.9116,1.9116,1.9087,1.9348,2.0016,1.8912,1.8201,1.8201,1.7577,1.72,1.72,1.72,1.72,1.72,1.72,1.72,1.72,1.72,1.72,1.72,1.72,1.7563,1.4156,1.4701,1.5311,1.4752,1.4337,1.4103,1.4103,1.3836,1.3753,1.4205,1.4472,1.4761,1.5211,1.5298,1.5428,1.5849,1.5922,0.0,0.0,0.0,0.0,1.8462,2.0378,0.0,0.0,0.0,0.0,0.0,0.0,0.0,0.0,2.3702,2.336,2.2902,2.2888,2.2888,2.2888,2.2888,2.2888,2.2888,2.3128,2.3215,2.3229,2.3395,0.0,0.0,0.0,0.0,0.0,2.2888,2.2888,2.2888,2.2888,2.2888,2.2888,2.2888,2.2888,2.2888,2.2888,2.2888,2.2888,2.2888,2.2888,2.2888,2.2888,2.2888,2.2888,2.2888,2.2888,2.2888,2.2888,2.2888,2.2888,2.2888,2.2888,2.2888,2.2888,2.2765,2.249,2.2077,2.183,2.1481,2.0828,2.0712,2.0494,1.9885,1.9783,1.9624,1.9159,1.9101,1.9101,1.9101,1.9101,1.9188,1.9406,1.9043,1.8825,1.8825,1.8622,1.8506,1.8506,1.8506,1.8506,1.8506,1.81,1.81,1.8506,1.8085,1.81,1.8506,1.8506,1.8608,1.3609,1.4305,1.4973,1.4427,1.4297,1.4233,1.3986,1.3716,1.3579,1.3866,1.412,1.4428,1.4848,1.5124,1.5414,1.5806,1.5646,0.0,0.0,0.0,0.0,1.884,0.0,0.0,0.0,0.0,0.0,0.0,0.0,0.0,0.0,2.3659,2.3331,2.2902,2.2888,2.2888,2.2888,2.2888,2.2888,2.2888,2.3171,2.3273,2.3287,2.3534,0.0,0.0,0.0,0.0,0.0,2.2888,2.2888,2.2888,2.2888,2.2888,2.2888,2.2888,2.2888,2.2888,2.2888,2.2888,2.2888,2.2888,2.2888,2.2888,2.2888,2.2888,2.2888,2.2888,2.2888,2.2888,2.2888,2.2888,2.2888,2.2888,2.2888,2.2888,2.2888,2.2888,2.2786,2.2403,2.233,2.2127,2.1481,2.138,2.109,2.0233,2.0103,1.9856,1.9188,1.9101,1.9101,1.9101,1.9101,1.9101,1.9101,1.9101,1.9101,1.9101,1.9101,1.9101,1.9101,1.9101,1.9101,1.9101,1.8738,1.8724,1.9101,1.8724,1.8738,1.9101,1.9101,1.9101,0.0,1.3952,1.4049,1.4344,1.4419,1.4276,1.3715,1.3616,0.0,1.3298,1.374,1.421,1.4341,1.4834,1.5269,1.5414,1.4906,0.0,0.0,1.7359,0.0,0.0,0.0,0.0,0.0,0.0,0.0,0.0,0.0,0.0,0.0,2.3171,2.283,2.283,2.283,2.2859,2.2888,2.2888,2.2888,2.2902,2.3519,2.3818,2.3847,2.4457,0.0,0.0,0.0,0.0,0.0,2.2888,2.2888,2.2888,2.2888,2.2888,2.2888,2.2888,2.2888,2.2888,2.2888,2.2888,2.2888,2.2888,2.2888,2.2888,2.2888,2.2888,2.2888,2.2888,2.2888,2.2888,2.2888,2.2888,2.2888,2.2888,2.2888,2.2888,2.2888,2.2888,2.2888,2.2888,2.2888,2.2722,2.2164,2.2062,2.1641,2.0422,2.0233,1.9986,1.9319,1.9232,1.9232,1.9232,1.9203,1.9174,1.9174,1.913,1.9101,1.9101,1.9101,1.9101,1.9101,1.9101,1.9101,1.9101,1.9101,1.9101,1.9101,1.9101,1.9101,1.9101,1.9101,1.9101,1.1992,0.0,1.2775,1.2631,1.262,1.2566,0.0,1.2371,1.2414,1.2633,1.2771,1.3311,1.479,1.4776,1.5022,1.6518,0.0,0.0,1.7838,0.0,0.0,0.0,0.0,0.0,0.0,0.0,0.0,0.0,0.0,0.0,0.0,2.2294,2.2222,2.2222,2.2222,2.2432,2.2888,2.2888,2.2888,2.2888,2.307,2.3142,2.3142,2.3302,0.0,0.0,0.0,0.0,2.2888,2.2888,2.2888,2.2888,2.2888,2.2888,2.2888,2.2888,2.2888,2.2888,2.2888,2.2888,2.2888,2.2888,2.2888,2.2888,2.2888,2.2888,2.2888,2.2888,2.2888,2.2888,2.2888,2.2888,2.2888,2.2888,2.2888,2.2888,2.2888,2.2888,2.2888,2.2888,2.2888,2.2844,2.2722,2.2693,2.2432,2.167,2.1554,2.1307,2.064,2.0553,2.0553,2.0553,2.0132,1.987,1.987,1.9391,1.9101,1.9101,1.9101,1.9101,1.9101,1.9101,1.9101,1.9101,1.9101,1.9101,1.9101,1.9101,1.9101,1.9101,1.9101,1.9101,1.0721,1.1588,1.244,1.2599,1.261,1.2639,1.2787,1.2457,1.2148,1.2209,1.2567,1.3179,1.4224,1.4834,1.5515,1.6576,1.7011,0.0,0.0,0.0,0.0,0.0,0.0,0.0,0.0,0.0,0.0,0.0,0.0,0.0,0.0,2.154,2.154,2.154,2.1844,2.2294,2.2888,2.2888,2.2888,2.2888,2.2888,2.2888,2.2888,2.2888,2.2888,0.0,0.0,0.0,2.2888,2.2888,2.2888,2.2888,2.2888,2.2888,2.2888,2.2888,2.2888,2.2888,2.2888,2.2888,2.2888,2.2888,2.2888,2.2888,2.2888,2.2888,2.2888,2.2888,2.2888,2.2888,2.2888,2.2888,2.2888,2.2888,2.2888,2.2888,2.2888,2.2888,2.2888,2.2888,2.2888,2.2888,2.2888,2.2888,2.2707,2.2091,2.1989,2.1757,2.109,2.1003,2.1003,2.1003,2.0712,2.0509,2.0509,1.9928,1.942,1.9116,1.9101,1.9101,1.9101,1.9101,1.9101,1.9101,1.9101,1.9101,1.9101,1.9101,1.9101,1.9101,1.9101,1.9101,1.0198,1.138,1.2656,1.3029,1.3205,1.3333,1.3611,1.3086,1.2456,1.2126,1.277,1.3481,1.3772,1.5052,0.0,0.0,0.0,0.0,1.9986,2.0596,0.0,0.0,0.0,0.0,0.0,0.0,0.0,0.0,0.0,0.0,0.0,2.0712,2.0756,2.0857,2.1409,2.2004,2.2584,2.27,2.2765,2.2765,2.2765,2.2801,2.2888,2.2786,2.2801,0.0,0.0,0.0,2.2888,2.2888,2.2888,2.2888,2.2888,2.2888,2.2888,2.2888,2.2888,2.2888,2.2888,2.2888,2.2888,2.2888,2.2888,2.2888,2.2888,2.2888,2.2888,2.2888,2.2888,2.2888,2.2888,2.2888,2.2888,2.2888,2.2888,2.2888,2.2888,2.2888,2.2888,2.2888,2.2888,2.2888,2.2888,2.2888,2.2736,2.2222,2.2149,2.1931,2.1386,2.1293,2.1293,2.1314,2.1227,2.1148,2.1148,2.0596,1.9986,1.942,1.9217,1.9101,1.9101,1.9101,1.9101,1.9101,1.9101,1.9101,1.9101,1.9101,1.9101,1.9101,1.9101,1.9101,1.1543,1.2533,1.3031,1.217,1.2511,1.3066,1.3107,1.3195,1.3171,1.2892,1.3137,1.3889,1.5472,1.5603,1.5979,0.0,0.0,1.929,0.0,0.0,0.0,0.0,0.0,0.0,0.0,0.0,0.0,0.0,0.0,0.0,0.0,1.9391,1.9653,2.0219,2.0335,2.0683,2.1293,2.1859,2.2149,2.2149,2.2149,2.2403,2.2873,2.2359,2.2417,0.0,0.0,2.2888,2.2888,2.2888,2.2888,2.2888,2.2888,2.2888,2.2888,2.2888,2.2888,2.2888,2.2888,2.2888,2.2888,2.2888,2.2888,2.2888,2.2888,2.2888,2.2888,2.2888,2.2888,2.2888,2.2888,2.2888,2.2888,2.2888,2.2888,2.2888,2.2888,2.2888,2.2888,2.2888,2.2888,2.2888,2.2888,2.2888,2.2859,2.2772,2.2765,2.2759,2.2783,2.2687,2.2643,2.2768,2.2207,2.1844,2.1844,2.1235,2.0814,2.0712,1.9696,1.9101,1.9101,1.9101,1.9101,1.9101,1.9101,1.9101,1.9101,1.9101,1.9101,1.9101,1.9101,1.9101,1.1227,1.2266,1.3067,1.2538,1.3445,1.4421,1.4285,1.4342,1.4385,1.427,1.4602,1.5183,1.6039,0.0,1.7371,1.897,0.0,2.032,0.0,0.0,0.0,0.0,0.0,0.0,0.0,0.0,0.0,0.0,0.0,0.0,0.0,0.0,1.9246,1.9551,1.9566,1.9696,1.9972,2.064,2.1133,2.1452,2.1452,2.1612,2.1852,2.1583,2.1815,2.2403,0.0,2.2606,2.2888,2.2888,2.2888,2.2888,2.2888,2.2888,2.2888,2.2888,2.2888,2.2888,2.2888,2.2888,2.2888,2.2888,2.2888,2.2888,2.2888,2.2888,2.2888,2.2888,2.2888,2.2888,2.2888,2.2888,2.2888,2.2888,2.2888,2.2888,2.2888,2.2888,2.2888,2.2888,2.2888,2.2888,2.2888,2.2888,2.2888,2.2888,2.2888,2.2925,2.2992,2.2947,2.2925,2.2992,2.2686,2.249,2.249,2.1902,2.138,2.1017,2.0146,1.9638,1.9638,1.929,1.9101,1.9101,1.9101,1.9101,1.9101,1.9101,1.9101,1.9101,1.9101,1.929,1.1361,1.2354,1.3344,1.35,1.458,1.5577,1.5527,1.5501,1.5559,1.5704,1.6111,1.6488,1.6632,1.7621,0.0,1.9928,2.0611,0.0,0.0,0.0,0.0,0.0,0.0,0.0,0.0,0.0,0.0,0.0,0.0,0.0,0.0,0.0,1.9101,1.9101,1.9101,1.9101,1.9101,1.9609,2.0175,2.0785,2.0785,2.0857,2.1003,2.0843,2.1148,2.1757,2.1757,2.2033,2.2475,2.2635,2.2693,2.2707,2.283,2.2888,2.2888,2.2888,2.2888,2.2888,2.2888,2.2888,2.2888,2.2888,2.2888,2.2888,2.2888,2.2888,2.2888,2.2888,2.2888,2.2888,2.2888,2.2888,2.2888,2.2888,2.2888,2.2888,2.2888,2.2888,2.2888,2.2888,2.2925,2.2947,2.2925,2.2925,2.2947,2.2888,2.2888,2.2925,2.2947,2.2947,2.297,2.2978,2.297,2.2925,2.2888,2.2475,2.1989,2.1481,2.0727,2.0306,2.0306,1.9812,1.9537,1.9537,1.9537,1.9537,1.9537,1.9537,1.9537,1.9537,1.9537,1.9827,1.3347,1.3927,1.437,1.4993,1.5224,1.547,1.6008,1.614,1.6314,1.6938,1.7113,1.733,1.7954,1.8593,1.9275,1.9986,2.0611,0.0,0.0,0.0,0.0,0.0,0.0,0.0,0.0,0.0,0.0,0.0,0.0,0.0,0.0,0.0,0.0,1.9101,1.9101,1.9101,1.9101,1.9145,1.9508,2.0161,2.0161,2.0465,2.0973,2.0422,2.0494,2.1061,2.1061,2.109,2.1177,2.1801,2.2062,2.212,2.2693,2.2888,2.2888,2.2888,2.2888,2.2888,2.2888,2.2888,2.2888,2.2888,2.2888,2.2888,2.2888,2.2888,2.2888,2.2888,2.2888,2.2888,2.2888,2.2888,2.2888,2.2888,2.2888,2.2888,2.2888,2.2888,2.2888,2.2888,2.2992,2.306,2.2925,2.2992,2.3037,2.2925,2.2888,2.2947,2.306,2.3082,2.3135,2.3253,2.3157,2.3037,2.2925,2.2859,2.2801,2.2757,2.1605,2.093,2.093,2.0886,2.0857,2.0857,2.0857,2.0857,2.0857,2.0857,2.0857,2.0857,2.0857,2.0886,1.2851,1.3607,1.4282,1.4151,1.4993,1.6023,1.6661,1.7125,1.7621,1.8259,1.839,1.8462,1.8724,0.0,1.9449,2.0494,0.0,0.0,0.0,0.0,0.0,0.0,0.0,0.0,0.0,0.0,0.0,0.0,0.0,0.0,0.0,0.0,0.0,1.9101,1.9101,1.9101,1.9101,1.9508,1.9841,2.0103,1.9682,1.9595,1.9812,1.958,1.9827,2.0436,2.0436,2.0654,2.1046,2.1714,2.1989,2.2062,2.2664,2.2888,2.2888,2.2888,2.2947,2.3015,2.3015,2.3068,2.3142,2.3142,2.309,2.3037,2.3135,2.309,2.3015,2.3015,2.3015,2.3015,2.2925,2.2888,2.2888,2.2888,2.2888,2.2925,2.3015,2.3015,2.306,2.312,2.3201,2.3223,2.3157,2.3112,2.3105,2.3142,2.3082,2.3068,2.3201,2.3209,2.3231,2.3297,2.3253,2.3179,2.3037,2.3015,2.3015,2.3015,2.2127,2.1612,2.1612,2.122,2.1003,2.1003,2.1003,2.1003,2.1003,2.1003,2.1003,2.1003,2.1003,2.122,1.2773,1.3485,1.4239,1.4049,1.5124,1.6429,1.7316,1.7722,1.8187,1.9203,1.942,1.942,1.942,0.0,0.0,0.0,0.0,0.0,0.0,0.0,0.0,0.0,0.0,0.0,0.0,0.0,0.0,0.0,0.0,0.0,0.0,0.0,0.0,0.0,1.9304,1.9304,1.9101,1.9769,2.0103,2.0103,1.9827,1.9595,1.942,1.942,1.9667,2.0103,2.0103,2.0335,2.0741,2.1206,2.1641,2.2062,2.2664,2.2925,2.297,2.297,2.306,2.3171,2.3171,2.3223,2.3297,2.3297,2.3246,2.3179,2.3275,2.3246,2.3171,2.3171,2.3171,2.3135,2.3045,2.2955,2.2925,2.2947,2.297,2.3015,2.3135,2.3171,2.3179,2.3275,2.3319,2.3341,2.3319,2.3268,2.3246,2.3297,2.3223,2.3201,2.3297,2.3341,2.3363,2.3363,2.3363,2.3312,2.3157,2.3127,2.3127,2.3171,2.2651,2.2338,2.2338,2.1902,2.1633,2.1612,2.1612,2.1612,2.1612,2.1612,2.1612,2.1612,2.1612,2.1859,1.3569,1.3846,1.4457,1.5124,1.5747,1.6545,1.7896,1.7693,1.7766,1.9696,2.0103,2.0117,2.0117,2.0117,0.0,0.0,0.0,0.0,0.0,0.0,0.0,0.0,0.0,0.0,0.0,0.0,0.0,0.0,0.0,0.0,0.0,0.0,0.0,0.0,1.9754,1.9783,1.9116,1.9783,2.0117,2.0132,2.0712,2.0683,2.0117,2.0117,2.0117,2.0103,2.0117,2.0117,2.0103,2.0117,2.0857,2.2062,2.2664,2.2978,2.3105,2.3105,2.3179,2.3297,2.3297,2.3297,2.3297,2.3297,2.3297,2.3297,2.3297,2.3297,2.3297,2.3297,2.3297,2.3297,2.3297,2.3112,2.2947,2.306,2.3105,2.3149,2.3275,2.3297,2.3297,2.3297,2.3407,2.3466,2.3319,2.3407,2.3466,2.3319,2.3297,2.3297,2.3297,2.3422,2.3509,2.3509,2.3509,2.3466,2.3319,2.3179,2.3171,2.3297,2.3179,2.3105,2.3105,2.3105,2.3037,2.2925,2.2888,2.2888,2.2888,2.2888,2.2888,2.2888,2.2888,2.2888,1.3452,1.3525,1.3933,1.5037,1.5747,1.6545,1.7896,1.8056,1.8332,1.9798,2.0436,2.0727,2.0727,2.0727,0.0,0.0,0.0,0.0,0.0,0.0,0.0,0.0,0.0,0.0,0.0,0.0,0.0,0.0,0.0,0.0,0.0,0.0,0.0,0.0,2.0219,2.0204,2.0422,2.109,2.1438,2.1438,2.1612,2.1365,2.0727,2.0727,2.0869,2.1069,2.0828,2.0869,2.1069,2.0828,2.122,2.2019,2.2207,2.2622,2.3105,2.3105,2.3246,2.3444,2.3444,2.3473,2.3523,2.3523,2.3494,2.3451,2.3501,2.3494,2.3444,2.3444,2.3444,2.3422,2.3319,2.3231,2.3187,2.3246,2.3246,2.329,2.3407,2.3444,2.3451,2.3501,2.3545,2.3566,2.3523,2.3516,2.3494,2.3501,2.3473,2.3451,2.3501,2.3545,2.3566,2.3566,2.3566,2.3538,2.3466,2.34,2.3516,2.3846,2.3824,2.376,2.3659,2.3385,2.3304,2.345,2.3187,2.2992,2.2888,2.2888,2.2888,2.2888,2.2888,2.2888,1.3696,1.3827,1.4178,1.5737,1.6375,1.697,1.8328,1.8993,1.9537,2.0306,2.0959,2.1394,2.1394,2.1394,0.0,0.0,0.0,0.0,0.0,0.0,0.0,0.0,0.0,0.0,0.0,0.0,0.0,0.0,0.0,0.0,0.0,0.0,0.0,0.0,2.0901,2.0901,2.1003,2.1656,2.1989,2.1989,2.2388,2.2351,2.1955,2.1706,2.1713,2.1862,2.1412,2.1127,2.0971,2.0766,2.0939,2.1403,2.1914,2.2417,2.2914,2.334,2.3625,2.3839,2.3994,2.3994,2.3888,2.3888,2.3717,2.356,2.3588,2.3566,2.3538,2.3538,2.3538,2.3516,2.3436,2.3414,2.3414,2.3385,2.3385,2.3407,2.3516,2.3538,2.356,2.3588,2.3595,2.3595,2.3595,2.3566,2.3545,2.3595,2.3566,2.3545,2.3595,2.3595,2.3595,2.3595,2.3595,2.3573,2.3538,2.3668,2.3846,2.4162,2.4271,2.44,2.4532,2.4095,2.3921,2.4053,2.3739,2.3553,2.3451,2.3378,2.3334,2.3334,2.3334,2.3253,1.4056,1.4365,1.4818,1.69,1.7403,1.7731,1.8987,2.0143,2.0971,2.1009,0.0,2.2019,2.2062,2.2077,0.0,0.0,0.0,0.0,0.0,0.0,0.0,0.0,0.0,0.0,0.0,0.0,0.0,0.0,0.0,0.0,0.0,0.0,0.0,2.1191,2.1699,2.1728,2.1177,2.1786,2.2098,0.0,2.2987,2.3428,2.3435,2.2906,2.2637,2.2629,2.1928,2.1154,2.0348,2.0265,2.0294,2.0523,2.1768,2.2384,2.2685,2.3756,2.4245,2.4405,2.4764,2.4655,2.4302,2.4343,2.4015,2.3595,2.3638,2.3638,2.3595,2.3595,2.3595,2.3595,2.3595,2.3595,2.3573,2.3516,2.3509,2.3516,2.3588,2.3595,2.3595,2.3595,2.3595,2.3595,2.3595,2.3655,2.3714,2.3774,2.3774,2.3759,2.3699,2.3684,2.3691,2.3674,2.3659,2.3681,2.3724,2.4,2.4245,2.4405,2.4643,2.5008,2.554,2.5008,2.4708,2.4684,2.4451,2.4323,2.4323,2.413,2.4024,2.4003,2.4003,2.3797,1.3366,1.3745,1.4373,1.6862,1.8197,1.8965,1.9118,1.9865,2.0661,2.1073,2.1617,2.2149,2.262,0.0,0.0,0.0,0.0,0.0,0.0,0.0,0.0,0.0,0.0,0.0,0.0,0.0,0.0,0.0,0.0,0.0,0.0,0.0,0.0,2.249,2.2178,2.2164,2.2504,2.2635,2.2826,0.0,2.3303,2.3573,2.3861,2.3746,2.3755,2.387,2.3087,2.2319,2.1555,2.0694,2.0367,2.0518,2.1624,2.244,2.3097,2.4182,2.4664,2.4779,2.4863,2.4655,2.4343,2.4659,2.4235,2.3659,2.4036,2.3888,2.3595,2.3595,2.3595,2.3595,2.3595,2.3595,2.361,2.3588,2.3588,2.3588,2.361,2.3595,2.3595,2.3595,2.3595,2.3595,2.3595,2.4044,2.456,2.5091,2.5181,2.4986,2.4455,2.438,2.4304,2.4176,2.4156,2.4287,2.4583,2.4684,2.4867,2.5218,2.5294,2.5538,2.6043,2.5288,2.4965,2.5214,2.4827,2.4547,2.4384,2.4287,2.4177,2.4078,2.4009,2.3961,1.3035,1.3604,1.4265,1.6849,1.8288,1.9102,1.9229,1.9641,2.0178,2.071,2.1234,2.1807,0.0,0.0,0.0,0.0,0.0,0.0,0.0,0.0,0.0,0.0,0.0,0.0,0.0,0.0,0.0,0.0,0.0,0.0,0.0,2.2754,2.2812,2.3135,2.3016,2.3102,2.3407,2.3422,2.356,2.3831,2.3985,2.4297,2.4755,2.4492,2.4487,2.4628,2.3542,2.2662,2.1973,2.0926,2.0422,2.0439,2.184,2.2611,2.3125,2.4569,2.5141,2.5218,2.5441,2.523,2.4902,2.5121,2.4748,2.4277,2.4517,2.4287,2.3931,2.3931,2.3767,2.3595,2.3595,2.3595,2.3595,2.3595,2.3595,2.3595,2.3595,2.3595,2.3595,2.3595,2.3595,2.3699,2.4007,2.4844,2.5432,2.5332,2.5569,2.5576,2.5129,2.4515,2.4346,2.5002,2.5316,2.5474,2.5444,2.5592,2.5664,2.55,2.5703,2.5937,2.6185,2.5754,2.5589,2.5772,2.5441,2.5214,2.5118,2.4977,2.4855,2.4719,2.465,2.4487,1.2479,1.3465,1.4422,1.6747,1.8032,1.88,1.9154,1.9413,1.9738,2.0163,2.0681,2.124,0.0,0.0,0.0,0.0,0.0,0.0,0.0,0.0,0.0,0.0,0.0,0.0,0.0,0.0,0.0,0.0,0.0,0.0,2.2888,2.3246,2.345,2.3428,2.3839,2.4046,2.4024,2.4046,2.4156,2.4385,2.4755,2.5188,2.5642,2.5188,2.5072,2.5163,2.38,2.2875,2.2248,2.1219,2.0607,2.0469,2.21,2.2812,2.312,2.4818,2.5498,2.5684,2.6061,2.5901,2.5521,2.5594,2.5291,2.4902,2.4981,2.4719,2.439,2.439,2.4126,2.3815,2.3815,2.3815,2.3815,2.3815,2.3857,2.3859,2.3754,2.3724,2.379,2.3982,2.4109,2.4411,2.5085,2.5969,2.6335,2.5712,2.6087,2.6322,2.5993,2.513,2.4954,2.6002,2.6549,2.6779,2.655,2.669,2.6542,2.6037,2.6352,2.6584,2.6584,2.6468,2.6402,2.6402,2.6091,2.5952,2.5934,2.5752,2.5586,2.5454,2.5355,2.5103,1.0769,1.2754,1.491,1.6366,1.7708,1.8666,1.8564,1.909,1.9622,0.0,2.0119,0.0,0.0,0.0,0.0,0.0,0.0,0.0,0.0,0.0,0.0,0.0,0.0,0.0,0.0,0.0,0.0,0.0,0.0,0.0,2.2859,2.3384,2.3629,2.3573,2.4015,2.4198,2.4078,2.4198,2.4426,2.4735,2.5246,2.5624,2.586,2.5789,2.577,2.5721,2.4618,2.3819,2.3228,2.2101,2.1282,2.0841,2.1986,2.2846,2.3544,2.4723,2.5552,2.6132,2.6168,2.5901,2.5575,2.5972,2.5551,2.4962,2.5313,2.5141,2.4803,2.4803,2.4764,2.4724,2.4724,2.4724,2.4724,2.4724,2.4906,2.4903,2.4321,2.4198,2.4513,2.5503,2.6204,2.6834,2.752,2.7373,2.7379,2.8015,2.8435,2.8358,2.744,2.7951,2.7998,2.7041,2.7015,2.749,2.8586,2.7943,2.7616,2.7984,2.8072,2.8111,2.8111,2.7497,2.7149,2.7149,2.65,2.6097,2.599,2.5899,2.5789,2.5663,2.5473,2.5317,1.0901,1.2692,1.4518,1.5816,1.6876,1.7741,1.8382,1.8802,1.9185,1.9536,0.0,0.0,0.0,0.0,0.0,0.0,0.0,0.0,0.0,0.0,0.0,0.0,0.0,0.0,0.0,0.0,0.0,0.0,0.0,2.1682,2.1938,2.2529,2.2859,2.2818,2.3854,2.4381,2.4284,2.476,2.5146,2.5435,2.577,2.5989,2.6078,2.6078,2.6078,2.601,2.5145,2.427,2.3434,2.2719,2.1892,2.1183,2.2263,2.3129,2.3901,2.4778,2.5556,2.6202,2.6202,2.6061,2.5919,2.6132,2.5952,2.5661,2.5846,2.5591,2.5237,2.5237,2.5063,2.4902,2.4902,2.5203,2.5372,2.4813,2.5509,2.6248,2.6023,2.5734,2.5691,2.6477,2.7179,2.7674,2.7648,2.8183,2.8456,2.8094,2.9081,2.9728,2.9271,2.9601,2.9654,2.9062,2.8997,2.9242,2.984,2.9479,2.9099,2.8804,2.8558,2.8392,2.8392,2.8078,2.7912,2.7912,2.6783,2.6168,2.6115,2.6079,2.599,2.5883,2.5735,2.5602,1.1012,1.2407,1.3618,1.496,1.5994,1.6949,1.7898,0.0,1.88,0.0,0.0,0.0,0.0,0.0,0.0,0.0,0.0,0.0,0.0,0.0,0.0,0.0,0.0,0.0,0.0,0.0,0.0,0.0,0.0,2.102,2.1344,2.2049,2.2431,2.2397,2.3628,2.4256,2.4164,2.4984,2.5589,2.597,2.6132,2.6202,2.6202,2.6202,2.6202,2.6169,2.5606,2.4709,2.3602,2.3291,2.2486,2.1498,2.2302,2.3189,2.4067,2.463,2.5408,2.6202,2.6202,2.6202,2.6202,2.6202,2.6202,2.6202,2.6202,2.5954,2.5684,2.5684,2.546,2.5262,2.5458,2.5926,2.6186,2.5615,2.6518,2.7492,2.7428,2.729,2.7273,2.7614,2.8239,2.8584,2.8189,2.9079,2.9483,2.8496,2.9579,3.0506,3.0506,3.0506,3.0506,3.0506,3.0506,3.0506,3.0506,3.0506,3.0191,2.9496,2.9118,2.892,2.892,2.8757,2.8658,2.8658,2.7412,2.6667,2.6485,2.6285,2.615,2.6045,2.5954,2.5842,1.031,1.137,1.2235,1.3573,1.5308,1.6711,0.0,0.0,0.0,0.0,0.0,0.0,0.0,0.0,0.0,0.0,0.0,0.0,0.0,0.0,0.0,0.0,0.0,0.0,0.0,0.0,0.0,0.0,0.0,2.0488,2.1702,2.2635,2.3083,2.2962,2.3463,2.3683,2.3546,2.4401,2.528,2.6168,2.6185,2.6202,2.6202,2.6202,2.6202,2.6202,2.6152,2.5325,2.3984,2.3951,2.3089,2.1783,2.1831,2.2742,2.4,2.405,2.4978,2.6202,2.6202,2.6202,2.6202,2.6202,2.6202,2.6202,2.6202,2.6168,2.6168,2.6168,2.615,2.628,2.6995,2.7193,2.7392,2.8034,2.8425,2.844,2.7814,2.8494,2.925,2.927,2.9865,3.0377,3.0339,3.0393,3.0426,3.0363,3.0426,3.0506,3.0506,3.0506,3.0506,3.0506,3.0506,3.0506,3.0506,3.0506,3.0472,3.0423,3.0406,3.039,3.039,2.9711,2.9367,2.9367,2.8658,2.7945,2.7232,2.6535,2.6202,2.6185,2.6061,2.5954,0.9509,1.0992,1.2437,1.2462,1.4307,1.6114,1.6069,1.7068,1.8158,0.0,0.0,0.0,0.0,0.0,0.0,0.0,0.0,0.0,0.0,0.0,0.0,0.0,0.0,0.0,0.0,0.0,0.0,0.0,0.0,0.0,2.0679,2.1229,2.1624,2.1841,2.272,2.3391,2.3819,2.4132,2.4695,2.549,2.549,2.5739,2.6202,2.6202,2.5937,2.549,2.549,2.4928,2.3967,2.3487,2.2692,2.1812,2.1812,2.241,2.3354,2.3835,2.463,2.5574,2.6036,2.6202,2.6202,2.6202,2.6202,2.6202,2.6202,2.6202,2.6202,2.6202,2.6202,2.6369,2.7116,2.7647,2.8293,2.9466,2.9807,2.9781,2.9556,2.9828,3.0108,3.0108,3.0323,3.0506,3.0506,3.0506,3.0506,3.0506,3.0506,3.0506,3.0506,3.0506,3.0506,3.0506,3.0506,3.0506,3.0506,3.0506,3.0506,3.0506,3.0506,3.0506,3.0506,3.0241,3.0108,3.0108,2.9417,2.8456,2.7298,2.7033,2.6651,2.6202,2.615,2.6079,0.9025,1.0477,1.2179,1.2358,1.3605,1.5005,1.5846,0.0,1.7251,0.0,0.0,0.0,0.0,0.0,0.0,0.0,0.0,0.0,0.0,0.0,0.0,0.0,0.0,0.0,0.0,0.0,0.0,0.0,0.0,0.0,2.0496,2.0828,2.1135,2.1386,2.2139,2.2874,2.3619,2.3636,2.4,2.4746,2.4978,2.5359,2.5838,2.6086,2.5806,2.5094,2.4845,2.4315,2.3586,2.3106,2.2475,2.1812,2.1812,2.2409,2.3321,2.3818,2.463,2.554,2.602,2.6202,2.6202,2.6202,2.6202,2.6202,2.6202,2.6202,2.6202,2.6202,2.6202,2.6435,2.7415,2.8376,2.9334,3.0274,3.0506,3.0506,3.0506,3.0506,3.0506,3.0506,3.0506,3.0506,3.0506,3.0506,3.0506,3.0506,3.0506,3.0506,3.0506,3.0506,3.0506,3.0506,3.0506,3.0506,3.0506,3.0506,3.0506,3.0506,3.0506,3.0506,3.0506,3.0506,3.0506,3.0506,3.0009,2.9085,2.7663,2.7415,2.6917,2.6202,2.6202,2.6115,0.0,0.0,0.0,0.0,0.0,0.0,1.601,0.0,0.0,0.0,0.0,0.0,0.0,0.0,0.0,0.0,0.0,0.0,0.0,0.0,0.0,0.0,0.0,0.0,0.0,0.0,0.0,0.0,0.0,2.0608,2.1261,2.1617,2.1812,2.1812,2.1812,2.2129,2.2857,2.2857,2.3238,2.3984,2.4729,2.5094,2.5143,2.5854,2.5788,2.5027,2.4315,2.357,2.2857,2.2857,2.2459,2.1812,2.1812,2.2692,2.3967,2.3984,2.4928,2.6169,2.6185,2.6202,2.6202,2.6202,2.6202,2.6202,2.6202,2.6202,2.6202,2.6202,2.6202,2.6551,2.8028,2.945,3.0506,3.0506,3.0506,3.0506,3.0506,3.0506,3.0506,3.0506,3.0506,3.0506,3.0506,3.0506,3.0506,3.0506,3.0506,3.0506,3.0506,3.0506,3.0506,3.0506,3.0506,3.0506,3.0506,3.0506,3.0506,3.0506,3.0506,3.0506,3.0506,3.0506,3.0506,3.0506,3.0506,2.9814,2.8392,2.768,2.695,2.6202,2.6202,2.6115,0.9614,0.0,0.0,0.0,0.0,0.0,0.0,0.0,0.0,0.0,0.0,0.0,0.0,0.0,0.0,0.0,0.0,0.0,0.0,0.0,0.0,0.0,0.0,0.0,0.0,0.0,0.0,0.0,2.0971,2.1098,2.1293,2.1617,2.1812,2.1812,2.1812,2.1912,2.2111,2.2111,2.246,2.3205,2.3951,2.458,2.5143,2.5854,2.5507,2.4299,2.41,2.3272,2.2111,2.2111,2.198,2.1812,2.1812,2.2377,2.3272,2.3802,2.4597,2.5491,2.6003,2.6202,2.6202,2.6202,2.6202,2.6202,2.6202,2.6202,2.6202,2.6202,2.6202,2.6551,2.8028,2.945,3.0506,3.0506,3.0506,3.0506,3.0506,3.0506,3.0506,3.0506,3.0506,3.0506,3.0506,3.0506,3.0506,3.0506,3.0506,3.0506,3.0506,3.0506,3.0506,3.0506,3.0506,3.0506,3.0506,3.0506,3.0506,3.0506,3.0506,3.0506,3.0506,3.0506,3.0506,3.0506,3.0506,2.9814,2.8392,2.8194,2.7429,2.6202,2.6097,2.6045,1.0428,1.1221,1.2179,0.0,0.0,0.0,0.0,1.3989,0.0,0.0,0.0,0.0,0.0,0.0,0.0,0.0,0.0,0.0,0.0,0.0,0.0,0.0,0.0,0.0,0.0,0.0,0.0,2.1478,2.151,2.151,2.151,2.1676,2.1812,2.1812,2.1812,2.1812,2.1812,2.1812,2.2028,2.2443,2.3503,2.4232,2.4679,2.5722,2.5408,2.4,2.4,2.3156,2.1812,2.1812,2.1812,2.1812,2.1812,2.2245,2.299,2.3735,2.4481,2.5209,2.5937,2.6202,2.6202,2.6202,2.6202,2.6202,2.6202,2.6202,2.6202,2.6202,2.6651,2.7313,2.8177,2.945,3.0506,3.0506,3.0506,3.0506,3.0506,3.0506,3.0506,3.0506,3.0506,3.0506,3.0506,3.0506,3.0506,3.0506,3.0506,3.0506,3.0506,3.0506,3.0506,3.0506,3.0506,3.0506,3.0506,3.0506,3.0506,3.0506,3.0506,3.0506,3.0506,3.0506,3.0506,3.0506,3.0506,2.9814,2.8392,2.8392,2.7647,2.6202,2.6115,2.6079,1.1435,1.2059,1.3133,0.0,0.0,0.0,1.4925,1.4141,1.3296,0.0,0.0,0.0,0.0,0.0,0.0,0.0,0.0,0.0,0.0,0.0,0.0,0.0,0.0,0.0,0.0,2.1223,2.1751,2.1812,2.1812,2.1812,2.1812,2.1812,2.1812,2.1812,2.1812,2.1812,2.1812,2.1812,2.1812,2.1829,2.3205,2.3918,2.405,2.5359,2.5243,2.4,2.3918,2.3089,2.1812,2.1812,2.1812,2.1812,2.1812,2.2245,2.299,2.3735,2.4481,2.5209,2.5937,2.6202,2.6202,2.6202,2.6202,2.6202,2.6202,2.6202,2.6202,2.6202,2.7197,2.8293,2.8376,2.9383,3.0406,3.0472,3.0506,3.0506,3.0506,3.0506,3.0506,3.0506,3.0506,3.0506,3.0506,3.0506,3.0506,3.0506,3.0506,3.0506,3.0506,3.0506,3.0506,3.0506,3.0506,3.0506,3.0506,3.0506,3.0506,3.0506,3.0506,3.0506,3.0506,3.0506,3.0506,3.0506,3.0423,2.9731,2.8392,2.8326,2.7564,2.6202,2.6168,2.6185,1.3139,1.3795,1.4182,1.3238,0.0,0.0,1.3218,1.3452,1.3934,0.0,0.0,0.0,0.0,0.0,0.0,0.0,0.0,0.0,0.0,0.0,0.0,0.0,0.0,0.0,0.0,2.1275,2.151,2.1766,2.1812,2.1812,2.1812,2.1812,2.1812,2.1812,2.1812,2.1812,2.1812,2.1812,2.1812,2.1812,2.2692,2.3421,2.4017,2.4299,2.4265,2.3967,2.3371,2.2609,2.1812,2.1812,2.1812,2.1812,2.1812,2.2245,2.299,2.3735,2.4481,2.5209,2.5937,2.6202,2.6202,2.6202,2.6202,2.6202,2.6202,2.6202,2.6202,2.6202,2.6833,2.7647,2.8243,2.9003,2.9761,3.0357,3.0506,3.0506,3.0506,3.0506,3.0506,3.0506,3.0506,3.0506,3.0506,3.0506,3.0506,3.0506,3.0506,3.0506,3.0506,3.0506,3.0506,3.0506,3.0506,3.0506,3.0506,3.0506,3.0506,3.0506,3.0506,3.0506,3.0506,3.0506,3.0506,3.0506,2.991,2.9218,2.8392,2.7796,2.7066,2.6202,2.6097,2.6097,1.4546,1.4993,1.5383,1.4869,0.0,0.0,0.0,0.0,0.0,0.0,0.0,0.0,0.0,0.0,0.0,0.0,0.0,0.0,0.0,0.0,0.0,0.0,0.0,0.0,0.0,2.0446,2.0666,2.1218,2.1597,2.1812,2.1812,2.1812,2.1812,2.1812,2.1812,2.1812,2.1812,2.1812,2.1812,2.1812,2.2543,2.3288,2.4,2.4,2.4,2.3967,2.3222,2.2492,2.1812,2.1812,2.1812,2.1812,2.1812,2.2028,2.2477,2.3586,2.4232,2.4713,2.5821,2.6202,2.6202,2.6202,2.6202,2.6202,2.6202,2.6202,2.6202,2.6202,2.6717,2.7464,2.821,2.8903,2.9579,3.0323,3.0506,3.0506,3.0506,3.0506,3.0506,3.0506,3.0506,3.0506,3.0506,3.0506,3.0506,3.0506,3.0506,3.0506,3.0506,3.0506,3.0506,3.0506,3.0506,3.0506,3.0506,3.0506,3.0506,3.0506,3.0506,3.0506,3.0506,3.0506,3.0506,3.0506,3.0141,2.945,2.8392,2.8028,2.7282,2.6202,2.6115,2.615,0.0,0.0,0.0,0.0,0.0,1.5324,0.0,0.0,0.0,0.0,0.0,0.0,0.0,0.0,0.0,0.0,0.0,0.0,0.0,0.0,0.0,0.0,0.0,0.0,0.0,1.9267,1.9548,2.0423,2.0801,2.1149,2.1564,2.1597,2.1663,2.1812,2.1812,2.1812,2.1812,2.1812,2.1812,2.1812,2.2409,2.3156,2.3984,2.3702,2.3735,2.3951,2.3073,2.2344,2.1812,2.1812,2.1812,2.1812,2.1812,2.1812,2.1978,2.3454,2.4,2.4216,2.569,2.6202,2.6202,2.6202,2.6202,2.6202,2.6202,2.6202,2.6202,2.6202,2.6617,2.7282,2.8177,2.8787,2.9433,3.029,3.0506,3.0506,3.0506,3.0506,3.0506,3.0506,3.0506,3.0506,3.0506,3.0506,3.0506,3.0506,3.0506,3.0506,3.0506,3.0506,3.0506,3.0506,3.0506,3.0506,3.0506,3.0506,3.0506,3.0506,3.0506,3.0506,3.0506,3.0506,3.0506,3.0506,3.0506,2.9814,2.8392,2.8392,2.7647,2.6202,2.6202,2.6202,0.0,0.0,0.0,0.0,1.7151,0.0,0.0,0.0,0.0,0.0,0.0,0.0,0.0,0.0,0.0,0.0,0.0,0.0,0.0,0.0,0.0,0.0,0.0,0.0,0.0,0.0,1.8286,1.9631,1.865,1.8812,2.0718,2.0818,2.1116,2.1779,2.1812,2.1812,2.1812,2.1812,2.1812,2.1812,2.1879,2.2642,2.3967,2.2642,2.2758,2.3918,2.2542,2.1879,2.1812,2.1812,2.1812,2.1812,2.1812,2.1812,2.1978,2.3454,2.4,2.4216,2.569,2.6202,2.6202,2.6202,2.6202,2.6202,2.6202,2.6202,2.6202,2.6202,2.6252,2.6651,2.8044,2.8459,2.8857,3.0174,3.0506,3.0506,3.0506,3.0506,3.0506,3.0506,3.0506,3.0506,3.0506,3.0506,3.0506,3.0506,3.0506,3.0506,3.0506,3.0506,3.0506,3.0506,3.0506,3.0506,3.0506,3.0506,3.0506,3.0506,3.0506,3.0506,3.0506,3.0506,3.0506,3.0506,3.0506,2.9814,2.8392,2.8392,2.7647,2.6202,2.6202,2.6202,0.0,0.0,0.0,0.0,0.0,0.0,1.5287,0.0,1.5172,0.0,0.0,0.0,0.0,0.0,0.0,0.0,0.0,0.0,0.0,0.0,0.0,0.0,0.0,0.0,0.0,0.0,0.0,0.0,0.0,1.8066,1.9346,2.0224,2.0834,2.1149,2.158,2.1812,2.1812,2.1812,2.1812,2.1781,2.1365,2.216,2.3934,2.2029,2.221,2.3918,2.2427,2.1812,2.1812,2.1812,2.1812,2.1812,2.1812,2.1812,2.1978,2.3454,2.4,2.4216,2.569,2.6202,2.6202,2.6202,2.6202,2.6202,2.6202,2.6202,2.6202,2.6202,2.6518,2.7083,2.8127,2.8691,2.9234,3.0257,3.0506,3.0506,3.0506,3.0506,3.0506,3.0506,3.0506,3.0506,3.0506,3.0506,3.0506,3.0506,3.0506,3.0506,3.0506,3.0506,3.0506,3.0506,3.0506,3.0506,3.0506,3.0506,3.0506,3.0506,3.0506,3.0506,3.0506,3.0506,3.0506,3.0506,3.0506,2.9992,2.8986,2.8591,2.7862,2.6834,2.6402,2.6202,1.9348,0.0,0.0,0.0,0.0,0.0,0.0,0.0,0.0,0.0,0.0,0.0,0.0,0.0,0.0,0.0,0.0,0.0,0.0,0.0,0.0,0.0,0.0,0.0,0.0,0.0,0.0,0.0,0.0,0.0,1.817,1.9412,2.0287,2.0685,2.1431,2.1812,2.1812,2.1812,2.1812,2.1781,2.1265,2.1961,2.3636,2.1829,2.1995,2.3619,2.2344,2.1812,2.1812,2.1812,2.1812,2.1812,2.1812,2.1928,2.226,2.3537,2.4,2.4216,2.569,2.6202,2.6202,2.6202,2.6202,2.6202,2.6202,2.6202,2.6202,2.6202,2.6717,2.7464,2.821,2.8903,2.9579,3.0323,3.0506,3.0506,3.0506,3.0506,3.0506,3.0506,3.0506,3.0506,3.0506,3.0506,3.0506,3.0506,3.0506,3.0506,3.0506,3.0506,3.0506,3.0506,3.0506,3.0506,3.0506,3.0506,3.0506,3.0506,3.0506,3.0506,3.0506,3.0506,3.0506,3.0506,3.0506,3.0141,2.9397,2.8903,2.8194,2.7265,2.6535,2.6202,0.0,0.0,0.0,1.7349,0.0,0.0,0.0,0.0,1.6553,0.0,0.0,0.0,0.0,0.0,0.0,0.0,0.0,0.0,0.0,0.0,0.0,0.0,0.0,0.0,0.0,0.0,0.0,0.0,0.0,0.0,1.737,1.8203,1.9217,2.0652,2.1431,2.1812,2.1812,2.1812,2.1812,2.1812,2.1779,2.2193,2.2907,2.2112,2.2178,2.2891,2.2144,2.1812,2.1812,2.1812,2.1812,2.1812,2.1812,2.2243,2.2957,2.3719,2.4,2.4216,2.569,2.6202,2.6202,2.6202,2.6202,2.6202,2.6202,2.6202,2.6202,2.6202,2.6717,2.7464,2.821,2.8903,2.9579,3.0323,3.0506,3.0506,3.0506,3.0506,3.0506,3.0506,3.0506,3.0506,3.0506,3.0506,3.0506,3.0506,3.0506,3.0506,3.0506,3.0506,3.0506,3.0506,3.0506,3.0506,3.0506,3.0506,3.0506,3.0506,3.0506,3.0506,3.0506,3.0506,3.0506,3.0506,3.0506,3.0141,2.9397,2.9383,2.8655,2.7265,2.6535,2.6202,0.0,0.0,2.1267,1.9081,0.0,0.0,0.0,0.0,0.0,0.0,0.0,0.0,0.0,0.0,0.0,0.0,0.0,0.0,0.0,0.0,0.0,0.0,0.0,0.0,0.0,0.0,0.0,0.0,1.5707,0.0,0.0,1.8323,1.9465,1.9962,2.0688,2.1315,2.1812,2.1812,2.1812,2.1781,2.1315,2.1698,2.2857,2.163,2.1746,2.2857,2.2127,2.1812,2.1812,2.1812,2.1812,2.1812,2.1812,2.2245,2.299,2.3735,2.4315,2.4878,2.5854,2.6202,2.6202,2.6202,2.6202,2.6202,2.6202,2.6202,2.6301,2.6783,2.7464,2.8194,2.887,2.9599,3.0191,3.0439,3.0506,3.0506,3.0506,3.0506,3.0506,3.0506,3.0506,3.0506,3.0506,3.0506,3.0506,3.0506,2.9715,2.9218,2.9529,2.9562,2.9612,2.9761,3.0208,3.0506,3.0506,3.0506,3.0506,3.0506,3.0506,3.0506,3.0506,3.0506,3.0506,3.0506,3.0506,3.0373,3.0125,2.9185,2.8492,2.7995,2.6766,2.6202,2.1028,2.14,0.0,1.9647,1.9038,0.0,1.7718,0.0,0.0,0.0,0.0,0.0,0.0,0.0,0.0,0.0,0.0,0.0,0.0,0.0,0.0,0.0,0.0,0.0,0.0,0.0,1.5547,1.6337,1.5663,0.0,0.0,0.0,1.92,1.9962,2.0453,2.105,2.1781,2.1812,2.168,2.1414,2.1182,2.1448,2.2079,2.1398,2.1613,2.2492,2.2011,2.1812,2.1812,2.1812,2.1812,2.1812,2.1812,2.241,2.3354,2.3818,2.463,2.5574,2.6036,2.6202,2.6202,2.6202,2.6202,2.6202,2.6202,2.6385,2.6684,2.7166,2.7995,2.8853,2.9301,2.9943,3.0506,3.0506,3.0506,3.0506,3.0506,3.029,3.0191,3.0456,3.029,3.0191,3.0456,3.0274,3.0108,3.0108,2.9284,2.8707,2.882,2.8853,2.8986,2.9347,2.9827,3.0208,3.0472,3.0506,3.0506,3.0506,3.0506,3.0506,3.0506,3.0506,3.0506,3.0506,3.0506,3.0506,3.0506,2.9582,2.8906,2.8376,2.7429,2.67]}]]